<?xml version="1.0" encoding="UTF-8" standalone="no" ?>
<gpx xmlns="http://www.topografix.com/GPX/1/1" xmlns:xsi="http://www.w3.org/2001/XMLSchema-instance" xsi:schemaLocation="http://www.topografix.com/GPX/1/1 http://www.topografix.com/GPX/1/1/gpx.xsd" version="1.1" creator="VisuGPX - https://www.visugpx.com">
  <metadata>
    <name>Vallée de la Buèges</name>
    <desc><![CDATA[Superbe boucle à plat ( ou presque)]]></desc>
  </metadata>
  <wpt lat="43.83657" lon="3.65322">
    <ele>129.8</ele>
    <name><![CDATA[Point 1]]></name>
    <desc><![CDATA[]]></desc>
  </wpt>
  <wpt lat="43.83307" lon="3.65167">
    <ele>131.6</ele>
    <name><![CDATA[Point 2]]></name>
    <desc><![CDATA[]]></desc>
  </wpt>
  <wpt lat="43.83276" lon="3.6487">
    <ele>134.2</ele>
    <name><![CDATA[Point 3]]></name>
    <desc><![CDATA[]]></desc>
  </wpt>
  <wpt lat="43.83272" lon="3.64367">
    <ele>140.7</ele>
    <name><![CDATA[Point 4]]></name>
    <desc><![CDATA[]]></desc>
  </wpt>
  <wpt lat="43.83086" lon="3.63546">
    <ele>156.4</ele>
    <name><![CDATA[Point 5]]></name>
    <desc><![CDATA[]]></desc>
  </wpt>
  <wpt lat="43.82729" lon="3.62502">
    <ele>157.9</ele>
    <name><![CDATA[Point 6]]></name>
    <desc><![CDATA[]]></desc>
  </wpt>
  <trk>
    <name><![CDATA[Vallée de la Buèges_1]]></name>
    <trkseg>
      <trkpt lat="43.82826" lon="3.61894">
        <ele>185.470596</ele>
        <time>2012-05-24 16:49:21Z</time>
      </trkpt>
      <trkpt lat="43.82821" lon="3.61894">
        <ele>182.160782</ele>
        <time>2012-05-24 16:49:25Z</time>
      </trkpt>
      <trkpt lat="43.82817" lon="3.61892">
        <ele>181.478653</ele>
        <time>2012-05-24 16:49:29Z</time>
      </trkpt>
      <trkpt lat="43.82814" lon="3.61889">
        <ele>182.912262</ele>
        <time>2012-05-24 16:49:33Z</time>
      </trkpt>
      <trkpt lat="43.82809" lon="3.61886">
        <ele>177.230042</ele>
        <time>2012-05-24 16:49:37Z</time>
      </trkpt>
      <trkpt lat="43.82806" lon="3.61881">
        <ele>182.62532</ele>
        <time>2012-05-24 16:49:41Z</time>
      </trkpt>
      <trkpt lat="43.82803" lon="3.61875">
        <ele>184.908112</ele>
        <time>2012-05-24 16:49:45Z</time>
      </trkpt>
      <trkpt lat="43.828" lon="3.61868">
        <ele>193.170273</ele>
        <time>2012-05-24 16:49:49Z</time>
      </trkpt>
      <trkpt lat="43.82798" lon="3.61862">
        <ele>187.235825</ele>
        <time>2012-05-24 16:49:53Z</time>
      </trkpt>
      <trkpt lat="43.82799" lon="3.61859">
        <ele>187.946457</ele>
        <time>2012-05-24 16:49:57Z</time>
      </trkpt>
      <trkpt lat="43.82798" lon="3.61856">
        <ele>191.591339</ele>
        <time>2012-05-24 16:50:01Z</time>
      </trkpt>
      <trkpt lat="43.82798" lon="3.61856">
        <ele>180.412735</ele>
        <time>2012-05-24 16:50:05Z</time>
      </trkpt>
      <trkpt lat="43.82796" lon="3.61853">
        <ele>179.209335</ele>
        <time>2012-05-24 16:50:09Z</time>
      </trkpt>
      <trkpt lat="43.82794" lon="3.61854">
        <ele>179.515305</ele>
        <time>2012-05-24 16:50:13Z</time>
      </trkpt>
      <trkpt lat="43.82793" lon="3.61854">
        <ele>175.155777</ele>
        <time>2012-05-24 16:50:17Z</time>
      </trkpt>
      <trkpt lat="43.82793" lon="3.61854">
        <ele>179.218567</ele>
        <time>2012-05-24 16:50:21Z</time>
      </trkpt>
      <trkpt lat="43.82789" lon="3.61856">
        <ele>181.630524</ele>
        <time>2012-05-24 16:50:25Z</time>
      </trkpt>
      <trkpt lat="43.82789" lon="3.61856">
        <ele>173.2099</ele>
        <time>2012-05-24 16:50:29Z</time>
      </trkpt>
      <trkpt lat="43.82789" lon="3.61856">
        <ele>171.973679</ele>
        <time>2012-05-24 16:50:33Z</time>
      </trkpt>
      <trkpt lat="43.82791" lon="3.61858">
        <ele>168.850632</ele>
        <time>2012-05-24 16:50:37Z</time>
      </trkpt>
      <trkpt lat="43.82791" lon="3.6186">
        <ele>166.25528</ele>
        <time>2012-05-24 16:50:41Z</time>
      </trkpt>
      <trkpt lat="43.82791" lon="3.6186">
        <ele>168.231979</ele>
        <time>2012-05-24 16:50:45Z</time>
      </trkpt>
      <trkpt lat="43.82791" lon="3.6186">
        <ele>164.112579</ele>
        <time>2012-05-24 16:50:49Z</time>
      </trkpt>
      <trkpt lat="43.82791" lon="3.6186">
        <ele>174.888885</ele>
        <time>2012-05-24 16:50:53Z</time>
      </trkpt>
      <trkpt lat="43.82791" lon="3.6186">
        <ele>167.731628</ele>
        <time>2012-05-24 16:50:57Z</time>
      </trkpt>
      <trkpt lat="43.8279" lon="3.61862">
        <ele>166.411942</ele>
        <time>2012-05-24 16:51:01Z</time>
      </trkpt>
      <trkpt lat="43.82786" lon="3.61861">
        <ele>160.688324</ele>
        <time>2012-05-24 16:51:05Z</time>
      </trkpt>
      <trkpt lat="43.82785" lon="3.6186">
        <ele>159.813263</ele>
        <time>2012-05-24 16:51:09Z</time>
      </trkpt>
      <trkpt lat="43.8278" lon="3.61858">
        <ele>159.396454</ele>
        <time>2012-05-24 16:51:13Z</time>
      </trkpt>
      <trkpt lat="43.82776" lon="3.61853">
        <ele>154.045074</ele>
        <time>2012-05-24 16:51:17Z</time>
      </trkpt>
      <trkpt lat="43.82774" lon="3.61848">
        <ele>160.821213</ele>
        <time>2012-05-24 16:51:21Z</time>
      </trkpt>
      <trkpt lat="43.82771" lon="3.61847">
        <ele>161.134949</ele>
        <time>2012-05-24 16:51:25Z</time>
      </trkpt>
      <trkpt lat="43.82766" lon="3.61847">
        <ele>161.866425</ele>
        <time>2012-05-24 16:51:29Z</time>
      </trkpt>
      <trkpt lat="43.82764" lon="3.61847">
        <ele>168.748016</ele>
        <time>2012-05-24 16:51:33Z</time>
      </trkpt>
      <trkpt lat="43.82761" lon="3.61847">
        <ele>164.773132</ele>
        <time>2012-05-24 16:51:37Z</time>
      </trkpt>
      <trkpt lat="43.82757" lon="3.61845">
        <ele>165.369293</ele>
        <time>2012-05-24 16:51:41Z</time>
      </trkpt>
      <trkpt lat="43.82757" lon="3.61845">
        <ele>175.861923</ele>
        <time>2012-05-24 16:51:45Z</time>
      </trkpt>
      <trkpt lat="43.82755" lon="3.61842">
        <ele>174.721909</ele>
        <time>2012-05-24 16:51:49Z</time>
      </trkpt>
      <trkpt lat="43.8276" lon="3.61833">
        <ele>169.058029</ele>
        <time>2012-05-24 16:51:53Z</time>
      </trkpt>
      <trkpt lat="43.82765" lon="3.61831">
        <ele>165.881393</ele>
        <time>2012-05-24 16:51:57Z</time>
      </trkpt>
      <trkpt lat="43.82771" lon="3.61828">
        <ele>166.991791</ele>
        <time>2012-05-24 16:52:01Z</time>
      </trkpt>
      <trkpt lat="43.82772" lon="3.61828">
        <ele>152.191696</ele>
        <time>2012-05-24 16:52:05Z</time>
      </trkpt>
      <trkpt lat="43.82777" lon="3.6182">
        <ele>162.553268</ele>
        <time>2012-05-24 16:52:09Z</time>
      </trkpt>
      <trkpt lat="43.82777" lon="3.61814">
        <ele>163.49762</ele>
        <time>2012-05-24 16:52:13Z</time>
      </trkpt>
      <trkpt lat="43.82778" lon="3.61807">
        <ele>158.063736</ele>
        <time>2012-05-24 16:52:17Z</time>
      </trkpt>
      <trkpt lat="43.82777" lon="3.61806">
        <ele>161.725815</ele>
        <time>2012-05-24 16:52:21Z</time>
      </trkpt>
      <trkpt lat="43.82778" lon="3.61804">
        <ele>157.484192</ele>
        <time>2012-05-24 16:52:25Z</time>
      </trkpt>
      <trkpt lat="43.82778" lon="3.61804">
        <ele>157.471252</ele>
        <time>2012-05-24 16:52:29Z</time>
      </trkpt>
      <trkpt lat="43.82778" lon="3.61804">
        <ele>153.522217</ele>
        <time>2012-05-24 16:52:33Z</time>
      </trkpt>
      <trkpt lat="43.82778" lon="3.61804">
        <ele>151.084961</ele>
        <time>2012-05-24 16:52:37Z</time>
      </trkpt>
      <trkpt lat="43.82779" lon="3.61798">
        <ele>154.677109</ele>
        <time>2012-05-24 16:52:41Z</time>
      </trkpt>
      <trkpt lat="43.82779" lon="3.61798">
        <ele>150.174057</ele>
        <time>2012-05-24 16:52:45Z</time>
      </trkpt>
      <trkpt lat="43.82779" lon="3.61798">
        <ele>148.814575</ele>
        <time>2012-05-24 16:52:49Z</time>
      </trkpt>
      <trkpt lat="43.82779" lon="3.61798">
        <ele>150.449036</ele>
        <time>2012-05-24 16:52:53Z</time>
      </trkpt>
      <trkpt lat="43.82778" lon="3.61791">
        <ele>151.418777</ele>
        <time>2012-05-24 16:52:57Z</time>
      </trkpt>
      <trkpt lat="43.82778" lon="3.61791">
        <ele>153.60231</ele>
        <time>2012-05-24 16:53:01Z</time>
      </trkpt>
      <trkpt lat="43.82778" lon="3.61791">
        <ele>151.474655</ele>
        <time>2012-05-24 16:53:05Z</time>
      </trkpt>
      <trkpt lat="43.82777" lon="3.61789">
        <ele>148.158539</ele>
        <time>2012-05-24 16:53:09Z</time>
      </trkpt>
      <trkpt lat="43.82777" lon="3.61789">
        <ele>147.180222</ele>
        <time>2012-05-24 16:53:13Z</time>
      </trkpt>
      <trkpt lat="43.82781" lon="3.61785">
        <ele>144.137268</ele>
        <time>2012-05-24 16:53:17Z</time>
      </trkpt>
      <trkpt lat="43.82781" lon="3.61785">
        <ele>149.564346</ele>
        <time>2012-05-24 16:53:21Z</time>
      </trkpt>
      <trkpt lat="43.82781" lon="3.61785">
        <ele>156.218979</ele>
        <time>2012-05-24 16:53:25Z</time>
      </trkpt>
      <trkpt lat="43.82783" lon="3.61778">
        <ele>152.01088</ele>
        <time>2012-05-24 16:53:29Z</time>
      </trkpt>
      <trkpt lat="43.82783" lon="3.61769">
        <ele>149.228394</ele>
        <time>2012-05-24 16:53:33Z</time>
      </trkpt>
      <trkpt lat="43.82783" lon="3.61761">
        <ele>155.18248</ele>
        <time>2012-05-24 16:53:37Z</time>
      </trkpt>
      <trkpt lat="43.82784" lon="3.61757">
        <ele>152.640366</ele>
        <time>2012-05-24 16:53:41Z</time>
      </trkpt>
      <trkpt lat="43.82782" lon="3.61758">
        <ele>151.100449</ele>
        <time>2012-05-24 16:53:45Z</time>
      </trkpt>
      <trkpt lat="43.82782" lon="3.61758">
        <ele>150.535873</ele>
        <time>2012-05-24 16:53:49Z</time>
      </trkpt>
      <trkpt lat="43.82782" lon="3.61758">
        <ele>153.543106</ele>
        <time>2012-05-24 16:53:53Z</time>
      </trkpt>
      <trkpt lat="43.82776" lon="3.61752">
        <ele>159.15123</ele>
        <time>2012-05-24 16:53:57Z</time>
      </trkpt>
      <trkpt lat="43.82772" lon="3.61753">
        <ele>159.712555</ele>
        <time>2012-05-24 16:54:01Z</time>
      </trkpt>
      <trkpt lat="43.82772" lon="3.61753">
        <ele>159.588181</ele>
        <time>2012-05-24 16:54:05Z</time>
      </trkpt>
      <trkpt lat="43.82769" lon="3.61756">
        <ele>157.343079</ele>
        <time>2012-05-24 16:54:09Z</time>
      </trkpt>
      <trkpt lat="43.82767" lon="3.61758">
        <ele>162.761536</ele>
        <time>2012-05-24 16:54:13Z</time>
      </trkpt>
      <trkpt lat="43.82765" lon="3.6176">
        <ele>156.854858</ele>
        <time>2012-05-24 16:54:17Z</time>
      </trkpt>
      <trkpt lat="43.82765" lon="3.6176">
        <ele>158.860291</ele>
        <time>2012-05-24 16:54:21Z</time>
      </trkpt>
      <trkpt lat="43.82765" lon="3.6176">
        <ele>157.806152</ele>
        <time>2012-05-24 16:54:25Z</time>
      </trkpt>
      <trkpt lat="43.82761" lon="3.61761">
        <ele>162.560486</ele>
        <time>2012-05-24 16:54:29Z</time>
      </trkpt>
      <trkpt lat="43.82749" lon="3.61773">
        <ele>157.494492</ele>
        <time>2012-05-24 16:54:33Z</time>
      </trkpt>
      <trkpt lat="43.8274" lon="3.61779">
        <ele>142.347626</ele>
        <time>2012-05-24 16:54:37Z</time>
      </trkpt>
      <trkpt lat="43.82733" lon="3.61787">
        <ele>142.73819</ele>
        <time>2012-05-24 16:54:41Z</time>
      </trkpt>
      <trkpt lat="43.8273" lon="3.6179">
        <ele>163.95076</ele>
        <time>2012-05-24 16:54:45Z</time>
      </trkpt>
      <trkpt lat="43.82731" lon="3.61791">
        <ele>147.975082</ele>
        <time>2012-05-24 16:54:49Z</time>
      </trkpt>
      <trkpt lat="43.82731" lon="3.61791">
        <ele>149.307709</ele>
        <time>2012-05-24 16:54:53Z</time>
      </trkpt>
      <trkpt lat="43.82731" lon="3.61791">
        <ele>153.755417</ele>
        <time>2012-05-24 16:54:57Z</time>
      </trkpt>
      <trkpt lat="43.82731" lon="3.61791">
        <ele>169.762863</ele>
        <time>2012-05-24 16:55:01Z</time>
      </trkpt>
      <trkpt lat="43.82731" lon="3.61791">
        <ele>179.368591</ele>
        <time>2012-05-24 16:55:05Z</time>
      </trkpt>
      <trkpt lat="43.8273" lon="3.61791">
        <ele>177.3452</ele>
        <time>2012-05-24 16:55:09Z</time>
      </trkpt>
      <trkpt lat="43.8273" lon="3.61791">
        <ele>177.586121</ele>
        <time>2012-05-24 16:55:13Z</time>
      </trkpt>
      <trkpt lat="43.8273" lon="3.61791">
        <ele>174.610229</ele>
        <time>2012-05-24 16:55:17Z</time>
      </trkpt>
      <trkpt lat="43.8273" lon="3.61791">
        <ele>172.710602</ele>
        <time>2012-05-24 16:55:21Z</time>
      </trkpt>
      <trkpt lat="43.82731" lon="3.61793">
        <ele>161.457596</ele>
        <time>2012-05-24 16:55:25Z</time>
      </trkpt>
      <trkpt lat="43.82733" lon="3.61796">
        <ele>161.347229</ele>
        <time>2012-05-24 16:55:29Z</time>
      </trkpt>
      <trkpt lat="43.82733" lon="3.618">
        <ele>167.198029</ele>
        <time>2012-05-24 16:55:33Z</time>
      </trkpt>
      <trkpt lat="43.82731" lon="3.61804">
        <ele>168.258957</ele>
        <time>2012-05-24 16:55:37Z</time>
      </trkpt>
      <trkpt lat="43.82729" lon="3.61812">
        <ele>170.630493</ele>
        <time>2012-05-24 16:55:41Z</time>
      </trkpt>
      <trkpt lat="43.82727" lon="3.61819">
        <ele>168.798218</ele>
        <time>2012-05-24 16:55:45Z</time>
      </trkpt>
      <trkpt lat="43.82725" lon="3.61822">
        <ele>176.624008</ele>
        <time>2012-05-24 16:55:49Z</time>
      </trkpt>
      <trkpt lat="43.82727" lon="3.61824">
        <ele>183.985794</ele>
        <time>2012-05-24 16:55:53Z</time>
      </trkpt>
      <trkpt lat="43.82733" lon="3.61827">
        <ele>184.880615</ele>
        <time>2012-05-24 16:55:57Z</time>
      </trkpt>
      <trkpt lat="43.82734" lon="3.61828">
        <ele>187.610275</ele>
        <time>2012-05-24 16:56:01Z</time>
      </trkpt>
      <trkpt lat="43.82737" lon="3.61837">
        <ele>185.438324</ele>
        <time>2012-05-24 16:56:05Z</time>
      </trkpt>
      <trkpt lat="43.82738" lon="3.61842">
        <ele>180.415146</ele>
        <time>2012-05-24 16:56:09Z</time>
      </trkpt>
      <trkpt lat="43.82737" lon="3.61851">
        <ele>186.564987</ele>
        <time>2012-05-24 16:56:13Z</time>
      </trkpt>
      <trkpt lat="43.82737" lon="3.61851">
        <ele>182.167007</ele>
        <time>2012-05-24 16:56:17Z</time>
      </trkpt>
      <trkpt lat="43.82736" lon="3.61862">
        <ele>187.743118</ele>
        <time>2012-05-24 16:56:21Z</time>
      </trkpt>
      <trkpt lat="43.82734" lon="3.6187">
        <ele>165.877563</ele>
        <time>2012-05-24 16:56:25Z</time>
      </trkpt>
      <trkpt lat="43.82735" lon="3.61875">
        <ele>162.565933</ele>
        <time>2012-05-24 16:56:29Z</time>
      </trkpt>
      <trkpt lat="43.82736" lon="3.61878">
        <ele>160.653778</ele>
        <time>2012-05-24 16:56:33Z</time>
      </trkpt>
      <trkpt lat="43.82736" lon="3.61878">
        <ele>158.850494</ele>
        <time>2012-05-24 16:56:37Z</time>
      </trkpt>
      <trkpt lat="43.82737" lon="3.61883">
        <ele>161.952271</ele>
        <time>2012-05-24 16:56:41Z</time>
      </trkpt>
      <trkpt lat="43.82731" lon="3.61898">
        <ele>161.188553</ele>
        <time>2012-05-24 16:56:45Z</time>
      </trkpt>
      <trkpt lat="43.82735" lon="3.61904">
        <ele>162.537521</ele>
        <time>2012-05-24 16:56:49Z</time>
      </trkpt>
      <trkpt lat="43.82739" lon="3.61916">
        <ele>164.281708</ele>
        <time>2012-05-24 16:56:53Z</time>
      </trkpt>
      <trkpt lat="43.82738" lon="3.61924">
        <ele>163.823364</ele>
        <time>2012-05-24 16:56:57Z</time>
      </trkpt>
      <trkpt lat="43.82738" lon="3.61924">
        <ele>166.379547</ele>
        <time>2012-05-24 16:57:01Z</time>
      </trkpt>
      <trkpt lat="43.82735" lon="3.61933">
        <ele>166.373917</ele>
        <time>2012-05-24 16:57:05Z</time>
      </trkpt>
      <trkpt lat="43.82735" lon="3.61934">
        <ele>166.804459</ele>
        <time>2012-05-24 16:57:09Z</time>
      </trkpt>
      <trkpt lat="43.82736" lon="3.61934">
        <ele>167.453537</ele>
        <time>2012-05-24 16:57:13Z</time>
      </trkpt>
      <trkpt lat="43.82737" lon="3.61936">
        <ele>162.125198</ele>
        <time>2012-05-24 16:57:17Z</time>
      </trkpt>
      <trkpt lat="43.82737" lon="3.61939">
        <ele>161.372787</ele>
        <time>2012-05-24 16:57:21Z</time>
      </trkpt>
      <trkpt lat="43.82736" lon="3.61944">
        <ele>161.167816</ele>
        <time>2012-05-24 16:57:25Z</time>
      </trkpt>
      <trkpt lat="43.82736" lon="3.61953">
        <ele>165.899353</ele>
        <time>2012-05-24 16:57:29Z</time>
      </trkpt>
      <trkpt lat="43.82736" lon="3.61958">
        <ele>161.951935</ele>
        <time>2012-05-24 16:57:33Z</time>
      </trkpt>
      <trkpt lat="43.82736" lon="3.61964">
        <ele>156.272217</ele>
        <time>2012-05-24 16:57:37Z</time>
      </trkpt>
      <trkpt lat="43.82734" lon="3.61976">
        <ele>159.603806</ele>
        <time>2012-05-24 16:57:41Z</time>
      </trkpt>
      <trkpt lat="43.82734" lon="3.61984">
        <ele>163.267044</ele>
        <time>2012-05-24 16:57:45Z</time>
      </trkpt>
      <trkpt lat="43.82733" lon="3.61996">
        <ele>156.353882</ele>
        <time>2012-05-24 16:57:49Z</time>
      </trkpt>
      <trkpt lat="43.82733" lon="3.62001">
        <ele>159.163986</ele>
        <time>2012-05-24 16:57:53Z</time>
      </trkpt>
      <trkpt lat="43.82734" lon="3.62007">
        <ele>156.984589</ele>
        <time>2012-05-24 16:57:57Z</time>
      </trkpt>
      <trkpt lat="43.82735" lon="3.62012">
        <ele>158.659271</ele>
        <time>2012-05-24 16:58:01Z</time>
      </trkpt>
      <trkpt lat="43.82736" lon="3.62017">
        <ele>154.916367</ele>
        <time>2012-05-24 16:58:05Z</time>
      </trkpt>
      <trkpt lat="43.82738" lon="3.62024">
        <ele>159.560226</ele>
        <time>2012-05-24 16:58:09Z</time>
      </trkpt>
      <trkpt lat="43.8274" lon="3.62028">
        <ele>157.226257</ele>
        <time>2012-05-24 16:58:13Z</time>
      </trkpt>
      <trkpt lat="43.82741" lon="3.62032">
        <ele>156.098801</ele>
        <time>2012-05-24 16:58:17Z</time>
      </trkpt>
      <trkpt lat="43.82742" lon="3.62036">
        <ele>161.928741</ele>
        <time>2012-05-24 16:58:21Z</time>
      </trkpt>
      <trkpt lat="43.82745" lon="3.6204">
        <ele>159.399384</ele>
        <time>2012-05-24 16:58:25Z</time>
      </trkpt>
      <trkpt lat="43.82745" lon="3.6204">
        <ele>158.069977</ele>
        <time>2012-05-24 16:58:29Z</time>
      </trkpt>
      <trkpt lat="43.82745" lon="3.62045">
        <ele>152.555618</ele>
        <time>2012-05-24 16:58:33Z</time>
      </trkpt>
      <trkpt lat="43.82749" lon="3.62053">
        <ele>148.591599</ele>
        <time>2012-05-24 16:58:37Z</time>
      </trkpt>
      <trkpt lat="43.82752" lon="3.62058">
        <ele>147.116165</ele>
        <time>2012-05-24 16:58:41Z</time>
      </trkpt>
      <trkpt lat="43.82755" lon="3.62062">
        <ele>148.905838</ele>
        <time>2012-05-24 16:58:45Z</time>
      </trkpt>
      <trkpt lat="43.8276" lon="3.62067">
        <ele>155.864944</ele>
        <time>2012-05-24 16:58:49Z</time>
      </trkpt>
      <trkpt lat="43.82761" lon="3.62069">
        <ele>153.979034</ele>
        <time>2012-05-24 16:58:53Z</time>
      </trkpt>
      <trkpt lat="43.82766" lon="3.62074">
        <ele>147.189651</ele>
        <time>2012-05-24 16:58:57Z</time>
      </trkpt>
      <trkpt lat="43.82769" lon="3.62079">
        <ele>152.860123</ele>
        <time>2012-05-24 16:59:01Z</time>
      </trkpt>
      <trkpt lat="43.82771" lon="3.62085">
        <ele>149.0233</ele>
        <time>2012-05-24 16:59:05Z</time>
      </trkpt>
      <trkpt lat="43.82774" lon="3.62088">
        <ele>142.266296</ele>
        <time>2012-05-24 16:59:09Z</time>
      </trkpt>
      <trkpt lat="43.82779" lon="3.62094">
        <ele>139.463531</ele>
        <time>2012-05-24 16:59:13Z</time>
      </trkpt>
      <trkpt lat="43.82783" lon="3.62099">
        <ele>136.349289</ele>
        <time>2012-05-24 16:59:17Z</time>
      </trkpt>
      <trkpt lat="43.82787" lon="3.62104">
        <ele>131.602112</ele>
        <time>2012-05-24 16:59:21Z</time>
      </trkpt>
      <trkpt lat="43.82792" lon="3.62106">
        <ele>131.321533</ele>
        <time>2012-05-24 16:59:25Z</time>
      </trkpt>
      <trkpt lat="43.82797" lon="3.62109">
        <ele>140.1884</ele>
        <time>2012-05-24 16:59:29Z</time>
      </trkpt>
      <trkpt lat="43.82802" lon="3.62111">
        <ele>141.296143</ele>
        <time>2012-05-24 16:59:33Z</time>
      </trkpt>
      <trkpt lat="43.82805" lon="3.62113">
        <ele>142.009476</ele>
        <time>2012-05-24 16:59:37Z</time>
      </trkpt>
      <trkpt lat="43.8281" lon="3.62113">
        <ele>158.080627</ele>
        <time>2012-05-24 16:59:41Z</time>
      </trkpt>
      <trkpt lat="43.82814" lon="3.62113">
        <ele>167.225906</ele>
        <time>2012-05-24 16:59:45Z</time>
      </trkpt>
      <trkpt lat="43.82817" lon="3.62115">
        <ele>175.37883</ele>
        <time>2012-05-24 16:59:49Z</time>
      </trkpt>
      <trkpt lat="43.82822" lon="3.6212">
        <ele>162.353256</ele>
        <time>2012-05-24 16:59:53Z</time>
      </trkpt>
      <trkpt lat="43.82825" lon="3.62125">
        <ele>170.542831</ele>
        <time>2012-05-24 16:59:57Z</time>
      </trkpt>
      <trkpt lat="43.82828" lon="3.62131">
        <ele>169.737778</ele>
        <time>2012-05-24 17:00:01Z</time>
      </trkpt>
      <trkpt lat="43.8283" lon="3.62136">
        <ele>164.61084</ele>
        <time>2012-05-24 17:00:05Z</time>
      </trkpt>
      <trkpt lat="43.82832" lon="3.62138">
        <ele>159.641769</ele>
        <time>2012-05-24 17:00:09Z</time>
      </trkpt>
      <trkpt lat="43.82835" lon="3.62142">
        <ele>160.756165</ele>
        <time>2012-05-24 17:00:13Z</time>
      </trkpt>
      <trkpt lat="43.8284" lon="3.62146">
        <ele>163.989471</ele>
        <time>2012-05-24 17:00:17Z</time>
      </trkpt>
      <trkpt lat="43.82841" lon="3.62149">
        <ele>171.87619</ele>
        <time>2012-05-24 17:00:21Z</time>
      </trkpt>
      <trkpt lat="43.82844" lon="3.62152">
        <ele>183.180099</ele>
        <time>2012-05-24 17:00:25Z</time>
      </trkpt>
      <trkpt lat="43.8285" lon="3.6216">
        <ele>177.868408</ele>
        <time>2012-05-24 17:00:29Z</time>
      </trkpt>
      <trkpt lat="43.82851" lon="3.62168">
        <ele>174.971115</ele>
        <time>2012-05-24 17:00:33Z</time>
      </trkpt>
      <trkpt lat="43.82852" lon="3.62174">
        <ele>176.228561</ele>
        <time>2012-05-24 17:00:37Z</time>
      </trkpt>
      <trkpt lat="43.82852" lon="3.62177">
        <ele>176.840103</ele>
        <time>2012-05-24 17:00:41Z</time>
      </trkpt>
      <trkpt lat="43.82853" lon="3.6219">
        <ele>182.848083</ele>
        <time>2012-05-24 17:00:45Z</time>
      </trkpt>
      <trkpt lat="43.82853" lon="3.62194">
        <ele>182.647964</ele>
        <time>2012-05-24 17:00:49Z</time>
      </trkpt>
      <trkpt lat="43.82853" lon="3.62197">
        <ele>180.069199</ele>
        <time>2012-05-24 17:00:53Z</time>
      </trkpt>
      <trkpt lat="43.82853" lon="3.62209">
        <ele>180.226486</ele>
        <time>2012-05-24 17:00:57Z</time>
      </trkpt>
      <trkpt lat="43.82854" lon="3.62212">
        <ele>175.452805</ele>
        <time>2012-05-24 17:01:01Z</time>
      </trkpt>
      <trkpt lat="43.82853" lon="3.62214">
        <ele>174.21553</ele>
        <time>2012-05-24 17:01:05Z</time>
      </trkpt>
      <trkpt lat="43.82849" lon="3.62223">
        <ele>175.913544</ele>
        <time>2012-05-24 17:01:09Z</time>
      </trkpt>
      <trkpt lat="43.82846" lon="3.62231">
        <ele>172.46019</ele>
        <time>2012-05-24 17:01:13Z</time>
      </trkpt>
      <trkpt lat="43.82845" lon="3.62239">
        <ele>168.13765</ele>
        <time>2012-05-24 17:01:17Z</time>
      </trkpt>
      <trkpt lat="43.82842" lon="3.62244">
        <ele>164.936966</ele>
        <time>2012-05-24 17:01:21Z</time>
      </trkpt>
      <trkpt lat="43.82839" lon="3.62248">
        <ele>158.013092</ele>
        <time>2012-05-24 17:01:25Z</time>
      </trkpt>
      <trkpt lat="43.82836" lon="3.6225">
        <ele>153.100998</ele>
        <time>2012-05-24 17:01:29Z</time>
      </trkpt>
      <trkpt lat="43.82832" lon="3.62253">
        <ele>150.40094</ele>
        <time>2012-05-24 17:01:33Z</time>
      </trkpt>
      <trkpt lat="43.82828" lon="3.62257">
        <ele>147.762238</ele>
        <time>2012-05-24 17:01:37Z</time>
      </trkpt>
      <trkpt lat="43.82827" lon="3.62262">
        <ele>149.669434</ele>
        <time>2012-05-24 17:01:41Z</time>
      </trkpt>
      <trkpt lat="43.82826" lon="3.6227">
        <ele>148.832123</ele>
        <time>2012-05-24 17:01:45Z</time>
      </trkpt>
      <trkpt lat="43.82828" lon="3.62275">
        <ele>144.860046</ele>
        <time>2012-05-24 17:01:49Z</time>
      </trkpt>
      <trkpt lat="43.82829" lon="3.62281">
        <ele>142.808517</ele>
        <time>2012-05-24 17:01:53Z</time>
      </trkpt>
      <trkpt lat="43.82825" lon="3.62291">
        <ele>136.176682</ele>
        <time>2012-05-24 17:01:57Z</time>
      </trkpt>
      <trkpt lat="43.82821" lon="3.62297">
        <ele>136.243378</ele>
        <time>2012-05-24 17:02:01Z</time>
      </trkpt>
      <trkpt lat="43.82819" lon="3.62306">
        <ele>139.647339</ele>
        <time>2012-05-24 17:02:05Z</time>
      </trkpt>
      <trkpt lat="43.82818" lon="3.62309">
        <ele>145.883301</ele>
        <time>2012-05-24 17:02:09Z</time>
      </trkpt>
      <trkpt lat="43.82817" lon="3.62316">
        <ele>142.314789</ele>
        <time>2012-05-24 17:02:13Z</time>
      </trkpt>
      <trkpt lat="43.82813" lon="3.62325">
        <ele>143.151978</ele>
        <time>2012-05-24 17:02:17Z</time>
      </trkpt>
      <trkpt lat="43.82813" lon="3.62328">
        <ele>146.147797</ele>
        <time>2012-05-24 17:02:21Z</time>
      </trkpt>
      <trkpt lat="43.82811" lon="3.62338">
        <ele>142.880661</ele>
        <time>2012-05-24 17:02:25Z</time>
      </trkpt>
      <trkpt lat="43.82809" lon="3.62345">
        <ele>148.821411</ele>
        <time>2012-05-24 17:02:29Z</time>
      </trkpt>
      <trkpt lat="43.82807" lon="3.62352">
        <ele>148.695251</ele>
        <time>2012-05-24 17:02:33Z</time>
      </trkpt>
      <trkpt lat="43.82806" lon="3.62359">
        <ele>144.641403</ele>
        <time>2012-05-24 17:02:37Z</time>
      </trkpt>
      <trkpt lat="43.82803" lon="3.62363">
        <ele>142.597366</ele>
        <time>2012-05-24 17:02:41Z</time>
      </trkpt>
      <trkpt lat="43.82801" lon="3.62368">
        <ele>144.460175</ele>
        <time>2012-05-24 17:02:45Z</time>
      </trkpt>
      <trkpt lat="43.82798" lon="3.62372">
        <ele>143.189743</ele>
        <time>2012-05-24 17:02:49Z</time>
      </trkpt>
      <trkpt lat="43.82794" lon="3.62377">
        <ele>149.674774</ele>
        <time>2012-05-24 17:02:53Z</time>
      </trkpt>
      <trkpt lat="43.82791" lon="3.62382">
        <ele>147.868408</ele>
        <time>2012-05-24 17:02:57Z</time>
      </trkpt>
      <trkpt lat="43.82787" lon="3.62386">
        <ele>152.14183</ele>
        <time>2012-05-24 17:03:01Z</time>
      </trkpt>
      <trkpt lat="43.82783" lon="3.62388">
        <ele>152.754395</ele>
        <time>2012-05-24 17:03:05Z</time>
      </trkpt>
      <trkpt lat="43.82777" lon="3.62392">
        <ele>156.059143</ele>
        <time>2012-05-24 17:03:09Z</time>
      </trkpt>
      <trkpt lat="43.82771" lon="3.62396">
        <ele>156.268661</ele>
        <time>2012-05-24 17:03:13Z</time>
      </trkpt>
      <trkpt lat="43.82768" lon="3.62399">
        <ele>161.272461</ele>
        <time>2012-05-24 17:03:17Z</time>
      </trkpt>
      <trkpt lat="43.82765" lon="3.62405">
        <ele>154.195953</ele>
        <time>2012-05-24 17:03:21Z</time>
      </trkpt>
      <trkpt lat="43.82763" lon="3.6241">
        <ele>154.140167</ele>
        <time>2012-05-24 17:03:25Z</time>
      </trkpt>
      <trkpt lat="43.82761" lon="3.62417">
        <ele>152.116653</ele>
        <time>2012-05-24 17:03:29Z</time>
      </trkpt>
      <trkpt lat="43.82758" lon="3.62424">
        <ele>152.789993</ele>
        <time>2012-05-24 17:03:33Z</time>
      </trkpt>
      <trkpt lat="43.82755" lon="3.62429">
        <ele>157.916824</ele>
        <time>2012-05-24 17:03:37Z</time>
      </trkpt>
      <trkpt lat="43.82752" lon="3.62437">
        <ele>157.061844</ele>
        <time>2012-05-24 17:03:41Z</time>
      </trkpt>
      <trkpt lat="43.82749" lon="3.62441">
        <ele>150.552307</ele>
        <time>2012-05-24 17:03:45Z</time>
      </trkpt>
      <trkpt lat="43.82743" lon="3.62445">
        <ele>154.3022</ele>
        <time>2012-05-24 17:03:49Z</time>
      </trkpt>
      <trkpt lat="43.82737" lon="3.62451">
        <ele>153.815201</ele>
        <time>2012-05-24 17:03:53Z</time>
      </trkpt>
      <trkpt lat="43.82732" lon="3.62455">
        <ele>149.886078</ele>
        <time>2012-05-24 17:03:57Z</time>
      </trkpt>
      <trkpt lat="43.82727" lon="3.62461">
        <ele>153.835083</ele>
        <time>2012-05-24 17:04:01Z</time>
      </trkpt>
      <trkpt lat="43.82725" lon="3.62467">
        <ele>154.538712</ele>
        <time>2012-05-24 17:04:05Z</time>
      </trkpt>
      <trkpt lat="43.82724" lon="3.62472">
        <ele>154.240189</ele>
        <time>2012-05-24 17:04:09Z</time>
      </trkpt>
      <trkpt lat="43.82724" lon="3.62476">
        <ele>158.873718</ele>
        <time>2012-05-24 17:04:13Z</time>
      </trkpt>
      <trkpt lat="43.82725" lon="3.62482">
        <ele>155.804123</ele>
        <time>2012-05-24 17:04:17Z</time>
      </trkpt>
      <trkpt lat="43.82726" lon="3.62489">
        <ele>155.925339</ele>
        <time>2012-05-24 17:04:21Z</time>
      </trkpt>
      <trkpt lat="43.82727" lon="3.62495">
        <ele>151.838089</ele>
        <time>2012-05-24 17:04:25Z</time>
      </trkpt>
      <trkpt lat="43.82728" lon="3.62501">
        <ele>150.637451</ele>
        <time>2012-05-24 17:04:29Z</time>
      </trkpt>
      <trkpt lat="43.8273" lon="3.62507">
        <ele>150.287445</ele>
        <time>2012-05-24 17:04:33Z</time>
      </trkpt>
      <trkpt lat="43.82732" lon="3.62512">
        <ele>153.447205</ele>
        <time>2012-05-24 17:04:37Z</time>
      </trkpt>
      <trkpt lat="43.82734" lon="3.62514">
        <ele>149.795776</ele>
        <time>2012-05-24 17:04:41Z</time>
      </trkpt>
      <trkpt lat="43.82737" lon="3.6252">
        <ele>148.425659</ele>
        <time>2012-05-24 17:04:45Z</time>
      </trkpt>
      <trkpt lat="43.8274" lon="3.62526">
        <ele>152.531647</ele>
        <time>2012-05-24 17:04:49Z</time>
      </trkpt>
      <trkpt lat="43.82742" lon="3.62534">
        <ele>143.601868</ele>
        <time>2012-05-24 17:04:53Z</time>
      </trkpt>
      <trkpt lat="43.82743" lon="3.62537">
        <ele>150.004486</ele>
        <time>2012-05-24 17:04:57Z</time>
      </trkpt>
      <trkpt lat="43.82746" lon="3.62544">
        <ele>155.25705</ele>
        <time>2012-05-24 17:05:01Z</time>
      </trkpt>
      <trkpt lat="43.82748" lon="3.62549">
        <ele>158.133881</ele>
        <time>2012-05-24 17:05:05Z</time>
      </trkpt>
      <trkpt lat="43.8275" lon="3.62551">
        <ele>159.29509</ele>
        <time>2012-05-24 17:05:09Z</time>
      </trkpt>
      <trkpt lat="43.8275" lon="3.62552">
        <ele>148.412216</ele>
        <time>2012-05-24 17:05:13Z</time>
      </trkpt>
      <trkpt lat="43.8275" lon="3.62552">
        <ele>141.993332</ele>
        <time>2012-05-24 17:05:17Z</time>
      </trkpt>
      <trkpt lat="43.8275" lon="3.62552">
        <ele>140.358704</ele>
        <time>2012-05-24 17:05:21Z</time>
      </trkpt>
      <trkpt lat="43.8275" lon="3.62552">
        <ele>141.610992</ele>
        <time>2012-05-24 17:05:25Z</time>
      </trkpt>
      <trkpt lat="43.8275" lon="3.62552">
        <ele>145.472672</ele>
        <time>2012-05-24 17:05:29Z</time>
      </trkpt>
      <trkpt lat="43.8275" lon="3.62552">
        <ele>153.006821</ele>
        <time>2012-05-24 17:05:33Z</time>
      </trkpt>
      <trkpt lat="43.8275" lon="3.62552">
        <ele>160.745438</ele>
        <time>2012-05-24 17:05:37Z</time>
      </trkpt>
      <trkpt lat="43.82752" lon="3.62558">
        <ele>140.17337</ele>
        <time>2012-05-24 17:05:41Z</time>
      </trkpt>
      <trkpt lat="43.82753" lon="3.62559">
        <ele>140.406525</ele>
        <time>2012-05-24 17:05:45Z</time>
      </trkpt>
      <trkpt lat="43.82751" lon="3.62566">
        <ele>137.578598</ele>
        <time>2012-05-24 17:05:49Z</time>
      </trkpt>
      <trkpt lat="43.82752" lon="3.6257">
        <ele>143.907013</ele>
        <time>2012-05-24 17:05:53Z</time>
      </trkpt>
      <trkpt lat="43.82751" lon="3.62578">
        <ele>138.472504</ele>
        <time>2012-05-24 17:05:57Z</time>
      </trkpt>
      <trkpt lat="43.82751" lon="3.62583">
        <ele>141.045319</ele>
        <time>2012-05-24 17:06:01Z</time>
      </trkpt>
      <trkpt lat="43.82751" lon="3.62586">
        <ele>143.761566</ele>
        <time>2012-05-24 17:06:05Z</time>
      </trkpt>
      <trkpt lat="43.82751" lon="3.62585">
        <ele>145.638306</ele>
        <time>2012-05-24 17:06:09Z</time>
      </trkpt>
      <trkpt lat="43.82751" lon="3.62587">
        <ele>135.475754</ele>
        <time>2012-05-24 17:06:13Z</time>
      </trkpt>
      <trkpt lat="43.82751" lon="3.62587">
        <ele>134.419235</ele>
        <time>2012-05-24 17:06:17Z</time>
      </trkpt>
      <trkpt lat="43.82751" lon="3.62587">
        <ele>133.385223</ele>
        <time>2012-05-24 17:06:21Z</time>
      </trkpt>
      <trkpt lat="43.82751" lon="3.62587">
        <ele>141.346771</ele>
        <time>2012-05-24 17:06:25Z</time>
      </trkpt>
      <trkpt lat="43.82751" lon="3.62587">
        <ele>147.069687</ele>
        <time>2012-05-24 17:06:29Z</time>
      </trkpt>
      <trkpt lat="43.82751" lon="3.62587">
        <ele>148.065643</ele>
        <time>2012-05-24 17:06:33Z</time>
      </trkpt>
      <trkpt lat="43.82751" lon="3.62587">
        <ele>147.20784</ele>
        <time>2012-05-24 17:06:37Z</time>
      </trkpt>
      <trkpt lat="43.82751" lon="3.62587">
        <ele>146.945297</ele>
        <time>2012-05-24 17:06:41Z</time>
      </trkpt>
      <trkpt lat="43.82751" lon="3.62587">
        <ele>151.454193</ele>
        <time>2012-05-24 17:06:45Z</time>
      </trkpt>
      <trkpt lat="43.82751" lon="3.62587">
        <ele>152.721603</ele>
        <time>2012-05-24 17:06:49Z</time>
      </trkpt>
      <trkpt lat="43.8275" lon="3.62593">
        <ele>145.605225</ele>
        <time>2012-05-24 17:06:53Z</time>
      </trkpt>
      <trkpt lat="43.8275" lon="3.62593">
        <ele>143.426849</ele>
        <time>2012-05-24 17:06:57Z</time>
      </trkpt>
      <trkpt lat="43.82753" lon="3.62585">
        <ele>143.207794</ele>
        <time>2012-05-24 17:07:01Z</time>
      </trkpt>
      <trkpt lat="43.82755" lon="3.62577">
        <ele>147.555695</ele>
        <time>2012-05-24 17:07:05Z</time>
      </trkpt>
      <trkpt lat="43.82754" lon="3.6257">
        <ele>148.343704</ele>
        <time>2012-05-24 17:07:09Z</time>
      </trkpt>
      <trkpt lat="43.82754" lon="3.62564">
        <ele>150.554764</ele>
        <time>2012-05-24 17:07:13Z</time>
      </trkpt>
      <trkpt lat="43.82754" lon="3.62561">
        <ele>152.580383</ele>
        <time>2012-05-24 17:07:17Z</time>
      </trkpt>
      <trkpt lat="43.82757" lon="3.6256">
        <ele>153.62735</ele>
        <time>2012-05-24 17:07:21Z</time>
      </trkpt>
      <trkpt lat="43.8276" lon="3.6256">
        <ele>149.012955</ele>
        <time>2012-05-24 17:07:25Z</time>
      </trkpt>
      <trkpt lat="43.82761" lon="3.62561">
        <ele>149.450989</ele>
        <time>2012-05-24 17:07:29Z</time>
      </trkpt>
      <trkpt lat="43.82763" lon="3.62563">
        <ele>154.041565</ele>
        <time>2012-05-24 17:07:33Z</time>
      </trkpt>
      <trkpt lat="43.82764" lon="3.62565">
        <ele>151.183289</ele>
        <time>2012-05-24 17:07:37Z</time>
      </trkpt>
      <trkpt lat="43.82768" lon="3.62566">
        <ele>145.813431</ele>
        <time>2012-05-24 17:07:41Z</time>
      </trkpt>
      <trkpt lat="43.82771" lon="3.62569">
        <ele>143.872025</ele>
        <time>2012-05-24 17:07:45Z</time>
      </trkpt>
      <trkpt lat="43.82775" lon="3.62574">
        <ele>152.696976</ele>
        <time>2012-05-24 17:07:49Z</time>
      </trkpt>
      <trkpt lat="43.82779" lon="3.62578">
        <ele>150.017044</ele>
        <time>2012-05-24 17:07:53Z</time>
      </trkpt>
      <trkpt lat="43.82782" lon="3.62581">
        <ele>148.772217</ele>
        <time>2012-05-24 17:07:57Z</time>
      </trkpt>
      <trkpt lat="43.82786" lon="3.62583">
        <ele>151.792068</ele>
        <time>2012-05-24 17:08:01Z</time>
      </trkpt>
      <trkpt lat="43.8279" lon="3.62587">
        <ele>150.408142</ele>
        <time>2012-05-24 17:08:05Z</time>
      </trkpt>
      <trkpt lat="43.82795" lon="3.62589">
        <ele>152.509384</ele>
        <time>2012-05-24 17:08:09Z</time>
      </trkpt>
      <trkpt lat="43.828" lon="3.62594">
        <ele>152.384674</ele>
        <time>2012-05-24 17:08:13Z</time>
      </trkpt>
      <trkpt lat="43.82805" lon="3.62597">
        <ele>150.48735</ele>
        <time>2012-05-24 17:08:17Z</time>
      </trkpt>
      <trkpt lat="43.82807" lon="3.62603">
        <ele>147.09671</ele>
        <time>2012-05-24 17:08:21Z</time>
      </trkpt>
      <trkpt lat="43.82811" lon="3.62606">
        <ele>151.623383</ele>
        <time>2012-05-24 17:08:25Z</time>
      </trkpt>
      <trkpt lat="43.82816" lon="3.62608">
        <ele>145.573578</ele>
        <time>2012-05-24 17:08:29Z</time>
      </trkpt>
      <trkpt lat="43.8282" lon="3.62614">
        <ele>150.531769</ele>
        <time>2012-05-24 17:08:33Z</time>
      </trkpt>
      <trkpt lat="43.82824" lon="3.62616">
        <ele>155.564957</ele>
        <time>2012-05-24 17:08:37Z</time>
      </trkpt>
      <trkpt lat="43.82826" lon="3.62618">
        <ele>160.241135</ele>
        <time>2012-05-24 17:08:41Z</time>
      </trkpt>
      <trkpt lat="43.82827" lon="3.62621">
        <ele>162.541031</ele>
        <time>2012-05-24 17:08:45Z</time>
      </trkpt>
      <trkpt lat="43.82829" lon="3.62625">
        <ele>166.334427</ele>
        <time>2012-05-24 17:08:49Z</time>
      </trkpt>
      <trkpt lat="43.8283" lon="3.62627">
        <ele>166.074707</ele>
        <time>2012-05-24 17:08:53Z</time>
      </trkpt>
      <trkpt lat="43.82832" lon="3.62638">
        <ele>160.90831</ele>
        <time>2012-05-24 17:08:57Z</time>
      </trkpt>
      <trkpt lat="43.82832" lon="3.62644">
        <ele>164.283081</ele>
        <time>2012-05-24 17:09:01Z</time>
      </trkpt>
      <trkpt lat="43.82834" lon="3.62651">
        <ele>166.667664</ele>
        <time>2012-05-24 17:09:05Z</time>
      </trkpt>
      <trkpt lat="43.82837" lon="3.62654">
        <ele>163.368057</ele>
        <time>2012-05-24 17:09:09Z</time>
      </trkpt>
      <trkpt lat="43.8284" lon="3.62658">
        <ele>158.330658</ele>
        <time>2012-05-24 17:09:13Z</time>
      </trkpt>
      <trkpt lat="43.82848" lon="3.62666">
        <ele>147.384827</ele>
        <time>2012-05-24 17:09:17Z</time>
      </trkpt>
      <trkpt lat="43.82854" lon="3.62673">
        <ele>149.379593</ele>
        <time>2012-05-24 17:09:21Z</time>
      </trkpt>
      <trkpt lat="43.82858" lon="3.62676">
        <ele>150.743439</ele>
        <time>2012-05-24 17:09:25Z</time>
      </trkpt>
      <trkpt lat="43.82861" lon="3.6268">
        <ele>152.114182</ele>
        <time>2012-05-24 17:09:29Z</time>
      </trkpt>
      <trkpt lat="43.82865" lon="3.62683">
        <ele>155.411499</ele>
        <time>2012-05-24 17:09:33Z</time>
      </trkpt>
      <trkpt lat="43.8287" lon="3.62688">
        <ele>151.474396</ele>
        <time>2012-05-24 17:09:37Z</time>
      </trkpt>
      <trkpt lat="43.82873" lon="3.62691">
        <ele>154.590851</ele>
        <time>2012-05-24 17:09:41Z</time>
      </trkpt>
      <trkpt lat="43.82876" lon="3.62694">
        <ele>155.736725</ele>
        <time>2012-05-24 17:09:45Z</time>
      </trkpt>
      <trkpt lat="43.82878" lon="3.62695">
        <ele>152.899368</ele>
        <time>2012-05-24 17:09:49Z</time>
      </trkpt>
      <trkpt lat="43.82881" lon="3.627">
        <ele>156.456955</ele>
        <time>2012-05-24 17:09:53Z</time>
      </trkpt>
      <trkpt lat="43.82885" lon="3.62702">
        <ele>154.832382</ele>
        <time>2012-05-24 17:09:57Z</time>
      </trkpt>
      <trkpt lat="43.82887" lon="3.62706">
        <ele>153.290375</ele>
        <time>2012-05-24 17:10:01Z</time>
      </trkpt>
      <trkpt lat="43.82888" lon="3.62708">
        <ele>153.857437</ele>
        <time>2012-05-24 17:10:05Z</time>
      </trkpt>
      <trkpt lat="43.82888" lon="3.62712">
        <ele>161.79921</ele>
        <time>2012-05-24 17:10:09Z</time>
      </trkpt>
      <trkpt lat="43.82888" lon="3.62716">
        <ele>158.345291</ele>
        <time>2012-05-24 17:10:13Z</time>
      </trkpt>
      <trkpt lat="43.82889" lon="3.62722">
        <ele>159.823975</ele>
        <time>2012-05-24 17:10:17Z</time>
      </trkpt>
      <trkpt lat="43.82893" lon="3.62728">
        <ele>159.351028</ele>
        <time>2012-05-24 17:10:21Z</time>
      </trkpt>
      <trkpt lat="43.82897" lon="3.62733">
        <ele>156.055344</ele>
        <time>2012-05-24 17:10:25Z</time>
      </trkpt>
      <trkpt lat="43.82898" lon="3.62737">
        <ele>158.567261</ele>
        <time>2012-05-24 17:10:29Z</time>
      </trkpt>
      <trkpt lat="43.82902" lon="3.62742">
        <ele>154.05452</ele>
        <time>2012-05-24 17:10:33Z</time>
      </trkpt>
      <trkpt lat="43.82904" lon="3.62745">
        <ele>157.50058</ele>
        <time>2012-05-24 17:10:37Z</time>
      </trkpt>
      <trkpt lat="43.82909" lon="3.62751">
        <ele>152.543686</ele>
        <time>2012-05-24 17:10:41Z</time>
      </trkpt>
      <trkpt lat="43.82911" lon="3.62754">
        <ele>153.808136</ele>
        <time>2012-05-24 17:10:45Z</time>
      </trkpt>
      <trkpt lat="43.82913" lon="3.62757">
        <ele>152.67453</ele>
        <time>2012-05-24 17:10:49Z</time>
      </trkpt>
      <trkpt lat="43.82913" lon="3.62758">
        <ele>149.112259</ele>
        <time>2012-05-24 17:10:53Z</time>
      </trkpt>
      <trkpt lat="43.82914" lon="3.62761">
        <ele>149.010406</ele>
        <time>2012-05-24 17:10:57Z</time>
      </trkpt>
      <trkpt lat="43.82914" lon="3.62764">
        <ele>147.977356</ele>
        <time>2012-05-24 17:11:01Z</time>
      </trkpt>
      <trkpt lat="43.82915" lon="3.62766">
        <ele>145.666534</ele>
        <time>2012-05-24 17:11:05Z</time>
      </trkpt>
      <trkpt lat="43.82916" lon="3.6277">
        <ele>146.370865</ele>
        <time>2012-05-24 17:11:09Z</time>
      </trkpt>
      <trkpt lat="43.82922" lon="3.62777">
        <ele>144.006821</ele>
        <time>2012-05-24 17:11:13Z</time>
      </trkpt>
      <trkpt lat="43.82926" lon="3.62782">
        <ele>144.185532</ele>
        <time>2012-05-24 17:11:17Z</time>
      </trkpt>
      <trkpt lat="43.8293" lon="3.62786">
        <ele>148.409241</ele>
        <time>2012-05-24 17:11:21Z</time>
      </trkpt>
      <trkpt lat="43.82933" lon="3.62794">
        <ele>145.92514</ele>
        <time>2012-05-24 17:11:25Z</time>
      </trkpt>
      <trkpt lat="43.82935" lon="3.62797">
        <ele>147.225998</ele>
        <time>2012-05-24 17:11:29Z</time>
      </trkpt>
      <trkpt lat="43.82937" lon="3.62799">
        <ele>147.818222</ele>
        <time>2012-05-24 17:11:33Z</time>
      </trkpt>
      <trkpt lat="43.82941" lon="3.62803">
        <ele>145.893356</ele>
        <time>2012-05-24 17:11:37Z</time>
      </trkpt>
      <trkpt lat="43.82947" lon="3.62811">
        <ele>146.207886</ele>
        <time>2012-05-24 17:11:41Z</time>
      </trkpt>
      <trkpt lat="43.82952" lon="3.62816">
        <ele>148.382401</ele>
        <time>2012-05-24 17:11:45Z</time>
      </trkpt>
      <trkpt lat="43.82952" lon="3.62816">
        <ele>148.964294</ele>
        <time>2012-05-24 17:11:49Z</time>
      </trkpt>
      <trkpt lat="43.82958" lon="3.62825">
        <ele>147.381714</ele>
        <time>2012-05-24 17:11:53Z</time>
      </trkpt>
      <trkpt lat="43.82968" lon="3.62834">
        <ele>147.870575</ele>
        <time>2012-05-24 17:11:57Z</time>
      </trkpt>
      <trkpt lat="43.82983" lon="3.62845">
        <ele>154.462234</ele>
        <time>2012-05-24 17:12:01Z</time>
      </trkpt>
      <trkpt lat="43.82988" lon="3.62853">
        <ele>150.472214</ele>
        <time>2012-05-24 17:12:05Z</time>
      </trkpt>
      <trkpt lat="43.82993" lon="3.62858">
        <ele>154.232269</ele>
        <time>2012-05-24 17:12:09Z</time>
      </trkpt>
      <trkpt lat="43.82997" lon="3.62859">
        <ele>153.717087</ele>
        <time>2012-05-24 17:12:13Z</time>
      </trkpt>
      <trkpt lat="43.83002" lon="3.6286">
        <ele>149.726837</ele>
        <time>2012-05-24 17:12:17Z</time>
      </trkpt>
      <trkpt lat="43.83008" lon="3.62862">
        <ele>152.56485</ele>
        <time>2012-05-24 17:12:21Z</time>
      </trkpt>
      <trkpt lat="43.83011" lon="3.62865">
        <ele>150.857788</ele>
        <time>2012-05-24 17:12:25Z</time>
      </trkpt>
      <trkpt lat="43.83014" lon="3.62869">
        <ele>154.724625</ele>
        <time>2012-05-24 17:12:29Z</time>
      </trkpt>
      <trkpt lat="43.83018" lon="3.62876">
        <ele>148.843292</ele>
        <time>2012-05-24 17:12:33Z</time>
      </trkpt>
      <trkpt lat="43.8302" lon="3.6288">
        <ele>151.961105</ele>
        <time>2012-05-24 17:12:37Z</time>
      </trkpt>
      <trkpt lat="43.83022" lon="3.62886">
        <ele>153.852219</ele>
        <time>2012-05-24 17:12:41Z</time>
      </trkpt>
      <trkpt lat="43.83022" lon="3.6289">
        <ele>153.085602</ele>
        <time>2012-05-24 17:12:45Z</time>
      </trkpt>
      <trkpt lat="43.83024" lon="3.62897">
        <ele>152.44313</ele>
        <time>2012-05-24 17:12:49Z</time>
      </trkpt>
      <trkpt lat="43.83025" lon="3.62902">
        <ele>148.568634</ele>
        <time>2012-05-24 17:12:53Z</time>
      </trkpt>
      <trkpt lat="43.83025" lon="3.62909">
        <ele>150.16481</ele>
        <time>2012-05-24 17:12:57Z</time>
      </trkpt>
      <trkpt lat="43.83028" lon="3.62915">
        <ele>148.976486</ele>
        <time>2012-05-24 17:13:01Z</time>
      </trkpt>
      <trkpt lat="43.83031" lon="3.6292">
        <ele>152.844528</ele>
        <time>2012-05-24 17:13:05Z</time>
      </trkpt>
      <trkpt lat="43.83033" lon="3.62921">
        <ele>154.81012</ele>
        <time>2012-05-24 17:13:09Z</time>
      </trkpt>
      <trkpt lat="43.83038" lon="3.62926">
        <ele>154.521149</ele>
        <time>2012-05-24 17:13:13Z</time>
      </trkpt>
      <trkpt lat="43.83041" lon="3.62932">
        <ele>151.677902</ele>
        <time>2012-05-24 17:13:17Z</time>
      </trkpt>
      <trkpt lat="43.8305" lon="3.62941">
        <ele>155.585648</ele>
        <time>2012-05-24 17:13:21Z</time>
      </trkpt>
      <trkpt lat="43.83057" lon="3.62948">
        <ele>157.310333</ele>
        <time>2012-05-24 17:13:25Z</time>
      </trkpt>
      <trkpt lat="43.83061" lon="3.62955">
        <ele>154.778534</ele>
        <time>2012-05-24 17:13:29Z</time>
      </trkpt>
      <trkpt lat="43.83061" lon="3.62955">
        <ele>156.518524</ele>
        <time>2012-05-24 17:13:33Z</time>
      </trkpt>
      <trkpt lat="43.83061" lon="3.62954">
        <ele>157.224335</ele>
        <time>2012-05-24 17:13:37Z</time>
      </trkpt>
      <trkpt lat="43.83065" lon="3.62961">
        <ele>153.136734</ele>
        <time>2012-05-24 17:13:41Z</time>
      </trkpt>
      <trkpt lat="43.83074" lon="3.62969">
        <ele>154.763565</ele>
        <time>2012-05-24 17:13:45Z</time>
      </trkpt>
      <trkpt lat="43.83078" lon="3.62973">
        <ele>153.228592</ele>
        <time>2012-05-24 17:13:49Z</time>
      </trkpt>
      <trkpt lat="43.83081" lon="3.62977">
        <ele>153.036255</ele>
        <time>2012-05-24 17:13:53Z</time>
      </trkpt>
      <trkpt lat="43.83083" lon="3.62981">
        <ele>152.168976</ele>
        <time>2012-05-24 17:13:57Z</time>
      </trkpt>
      <trkpt lat="43.83085" lon="3.62991">
        <ele>152.066315</ele>
        <time>2012-05-24 17:14:01Z</time>
      </trkpt>
      <trkpt lat="43.83087" lon="3.62996">
        <ele>153.157852</ele>
        <time>2012-05-24 17:14:05Z</time>
      </trkpt>
      <trkpt lat="43.83089" lon="3.63002">
        <ele>151.613968</ele>
        <time>2012-05-24 17:14:09Z</time>
      </trkpt>
      <trkpt lat="43.83092" lon="3.63009">
        <ele>150.167313</ele>
        <time>2012-05-24 17:14:13Z</time>
      </trkpt>
      <trkpt lat="43.83092" lon="3.6302">
        <ele>153.796951</ele>
        <time>2012-05-24 17:14:17Z</time>
      </trkpt>
      <trkpt lat="43.83093" lon="3.63023">
        <ele>153.90625</ele>
        <time>2012-05-24 17:14:21Z</time>
      </trkpt>
      <trkpt lat="43.83093" lon="3.63026">
        <ele>151.489212</ele>
        <time>2012-05-24 17:14:25Z</time>
      </trkpt>
      <trkpt lat="43.83093" lon="3.63033">
        <ele>149.957916</ele>
        <time>2012-05-24 17:14:29Z</time>
      </trkpt>
      <trkpt lat="43.83089" lon="3.63043">
        <ele>153.629547</ele>
        <time>2012-05-24 17:14:33Z</time>
      </trkpt>
      <trkpt lat="43.83088" lon="3.63048">
        <ele>150.594116</ele>
        <time>2012-05-24 17:14:37Z</time>
      </trkpt>
      <trkpt lat="43.83086" lon="3.63055">
        <ele>154.608353</ele>
        <time>2012-05-24 17:14:41Z</time>
      </trkpt>
      <trkpt lat="43.83087" lon="3.63061">
        <ele>151.104599</ele>
        <time>2012-05-24 17:14:45Z</time>
      </trkpt>
      <trkpt lat="43.8309" lon="3.63068">
        <ele>147.394638</ele>
        <time>2012-05-24 17:14:49Z</time>
      </trkpt>
      <trkpt lat="43.83091" lon="3.63075">
        <ele>151.976151</ele>
        <time>2012-05-24 17:14:53Z</time>
      </trkpt>
      <trkpt lat="43.83093" lon="3.63079">
        <ele>148.703888</ele>
        <time>2012-05-24 17:14:57Z</time>
      </trkpt>
      <trkpt lat="43.83093" lon="3.63082">
        <ele>150.049149</ele>
        <time>2012-05-24 17:15:01Z</time>
      </trkpt>
      <trkpt lat="43.83093" lon="3.63084">
        <ele>153.292831</ele>
        <time>2012-05-24 17:15:05Z</time>
      </trkpt>
      <trkpt lat="43.83094" lon="3.63089">
        <ele>162.475433</ele>
        <time>2012-05-24 17:15:09Z</time>
      </trkpt>
      <trkpt lat="43.83095" lon="3.63091">
        <ele>168.788834</ele>
        <time>2012-05-24 17:15:13Z</time>
      </trkpt>
      <trkpt lat="43.83093" lon="3.63095">
        <ele>171.175034</ele>
        <time>2012-05-24 17:15:17Z</time>
      </trkpt>
      <trkpt lat="43.83091" lon="3.63109">
        <ele>162.599136</ele>
        <time>2012-05-24 17:15:21Z</time>
      </trkpt>
      <trkpt lat="43.83089" lon="3.63116">
        <ele>163.798996</ele>
        <time>2012-05-24 17:15:25Z</time>
      </trkpt>
      <trkpt lat="43.83089" lon="3.63125">
        <ele>163.475464</ele>
        <time>2012-05-24 17:15:29Z</time>
      </trkpt>
      <trkpt lat="43.83091" lon="3.6313">
        <ele>150.661865</ele>
        <time>2012-05-24 17:15:33Z</time>
      </trkpt>
      <trkpt lat="43.83093" lon="3.63133">
        <ele>148.98114</ele>
        <time>2012-05-24 17:15:37Z</time>
      </trkpt>
      <trkpt lat="43.83096" lon="3.63138">
        <ele>151.399628</ele>
        <time>2012-05-24 17:15:41Z</time>
      </trkpt>
      <trkpt lat="43.83097" lon="3.63143">
        <ele>149.420471</ele>
        <time>2012-05-24 17:15:45Z</time>
      </trkpt>
      <trkpt lat="43.83097" lon="3.63144">
        <ele>148.312683</ele>
        <time>2012-05-24 17:15:49Z</time>
      </trkpt>
      <trkpt lat="43.83098" lon="3.63159">
        <ele>147.370438</ele>
        <time>2012-05-24 17:15:53Z</time>
      </trkpt>
      <trkpt lat="43.831" lon="3.63169">
        <ele>145.338303</ele>
        <time>2012-05-24 17:15:57Z</time>
      </trkpt>
      <trkpt lat="43.831" lon="3.63178">
        <ele>145.87915</ele>
        <time>2012-05-24 17:16:01Z</time>
      </trkpt>
      <trkpt lat="43.83099" lon="3.63186">
        <ele>145.004761</ele>
        <time>2012-05-24 17:16:05Z</time>
      </trkpt>
      <trkpt lat="43.83101" lon="3.63195">
        <ele>143.375854</ele>
        <time>2012-05-24 17:16:09Z</time>
      </trkpt>
      <trkpt lat="43.83098" lon="3.632">
        <ele>146.313522</ele>
        <time>2012-05-24 17:16:13Z</time>
      </trkpt>
      <trkpt lat="43.83094" lon="3.63206">
        <ele>151.178314</ele>
        <time>2012-05-24 17:16:17Z</time>
      </trkpt>
      <trkpt lat="43.83092" lon="3.6321">
        <ele>148.299835</ele>
        <time>2012-05-24 17:16:21Z</time>
      </trkpt>
      <trkpt lat="43.83094" lon="3.63215">
        <ele>145.661789</ele>
        <time>2012-05-24 17:16:25Z</time>
      </trkpt>
      <trkpt lat="43.83097" lon="3.6322">
        <ele>141.820679</ele>
        <time>2012-05-24 17:16:29Z</time>
      </trkpt>
      <trkpt lat="43.831" lon="3.63227">
        <ele>141.873291</ele>
        <time>2012-05-24 17:16:33Z</time>
      </trkpt>
      <trkpt lat="43.83105" lon="3.63234">
        <ele>140.094055</ele>
        <time>2012-05-24 17:16:37Z</time>
      </trkpt>
      <trkpt lat="43.8311" lon="3.63244">
        <ele>143.517975</ele>
        <time>2012-05-24 17:16:41Z</time>
      </trkpt>
      <trkpt lat="43.83112" lon="3.63252">
        <ele>146.995193</ele>
        <time>2012-05-24 17:16:45Z</time>
      </trkpt>
      <trkpt lat="43.83112" lon="3.63256">
        <ele>144.938339</ele>
        <time>2012-05-24 17:16:49Z</time>
      </trkpt>
      <trkpt lat="43.83113" lon="3.63263">
        <ele>145.685379</ele>
        <time>2012-05-24 17:16:53Z</time>
      </trkpt>
      <trkpt lat="43.83114" lon="3.6327">
        <ele>148.070114</ele>
        <time>2012-05-24 17:16:57Z</time>
      </trkpt>
      <trkpt lat="43.83117" lon="3.63275">
        <ele>144.396973</ele>
        <time>2012-05-24 17:17:01Z</time>
      </trkpt>
      <trkpt lat="43.83117" lon="3.63281">
        <ele>147.336761</ele>
        <time>2012-05-24 17:17:05Z</time>
      </trkpt>
      <trkpt lat="43.83119" lon="3.63287">
        <ele>142.068604</ele>
        <time>2012-05-24 17:17:09Z</time>
      </trkpt>
      <trkpt lat="43.83125" lon="3.63295">
        <ele>146.371292</ele>
        <time>2012-05-24 17:17:13Z</time>
      </trkpt>
      <trkpt lat="43.8313" lon="3.63302">
        <ele>147.883301</ele>
        <time>2012-05-24 17:17:17Z</time>
      </trkpt>
      <trkpt lat="43.83131" lon="3.63304">
        <ele>146.259415</ele>
        <time>2012-05-24 17:17:21Z</time>
      </trkpt>
      <trkpt lat="43.83137" lon="3.63312">
        <ele>142.019852</ele>
        <time>2012-05-24 17:17:25Z</time>
      </trkpt>
      <trkpt lat="43.83143" lon="3.63319">
        <ele>141.308136</ele>
        <time>2012-05-24 17:17:29Z</time>
      </trkpt>
      <trkpt lat="43.83146" lon="3.63324">
        <ele>146.268463</ele>
        <time>2012-05-24 17:17:33Z</time>
      </trkpt>
      <trkpt lat="43.83149" lon="3.63326">
        <ele>145.627075</ele>
        <time>2012-05-24 17:17:37Z</time>
      </trkpt>
      <trkpt lat="43.83149" lon="3.63332">
        <ele>144.493988</ele>
        <time>2012-05-24 17:17:41Z</time>
      </trkpt>
      <trkpt lat="43.83151" lon="3.63338">
        <ele>147.68042</ele>
        <time>2012-05-24 17:17:45Z</time>
      </trkpt>
      <trkpt lat="43.83153" lon="3.63345">
        <ele>148.378403</ele>
        <time>2012-05-24 17:17:49Z</time>
      </trkpt>
      <trkpt lat="43.83157" lon="3.63353">
        <ele>148.346497</ele>
        <time>2012-05-24 17:17:53Z</time>
      </trkpt>
      <trkpt lat="43.8316" lon="3.63359">
        <ele>147.068069</ele>
        <time>2012-05-24 17:17:57Z</time>
      </trkpt>
      <trkpt lat="43.83165" lon="3.63366">
        <ele>149.012802</ele>
        <time>2012-05-24 17:18:01Z</time>
      </trkpt>
      <trkpt lat="43.83168" lon="3.63372">
        <ele>148.055313</ele>
        <time>2012-05-24 17:18:05Z</time>
      </trkpt>
      <trkpt lat="43.83172" lon="3.63377">
        <ele>147.737656</ele>
        <time>2012-05-24 17:18:09Z</time>
      </trkpt>
      <trkpt lat="43.83173" lon="3.6338">
        <ele>147.199158</ele>
        <time>2012-05-24 17:18:13Z</time>
      </trkpt>
      <trkpt lat="43.83175" lon="3.63386">
        <ele>145.871368</ele>
        <time>2012-05-24 17:18:17Z</time>
      </trkpt>
      <trkpt lat="43.8318" lon="3.63394">
        <ele>148.158676</ele>
        <time>2012-05-24 17:18:21Z</time>
      </trkpt>
      <trkpt lat="43.83184" lon="3.63405">
        <ele>148.57489</ele>
        <time>2012-05-24 17:18:25Z</time>
      </trkpt>
      <trkpt lat="43.83186" lon="3.63415">
        <ele>152.428238</ele>
        <time>2012-05-24 17:18:29Z</time>
      </trkpt>
      <trkpt lat="43.83192" lon="3.6342">
        <ele>150.374527</ele>
        <time>2012-05-24 17:18:33Z</time>
      </trkpt>
      <trkpt lat="43.83192" lon="3.63423">
        <ele>153.808304</ele>
        <time>2012-05-24 17:18:37Z</time>
      </trkpt>
      <trkpt lat="43.83193" lon="3.63429">
        <ele>155.015579</ele>
        <time>2012-05-24 17:18:41Z</time>
      </trkpt>
      <trkpt lat="43.83195" lon="3.63435">
        <ele>151.519684</ele>
        <time>2012-05-24 17:18:45Z</time>
      </trkpt>
      <trkpt lat="43.83199" lon="3.63442">
        <ele>152.972</ele>
        <time>2012-05-24 17:18:49Z</time>
      </trkpt>
      <trkpt lat="43.83201" lon="3.63445">
        <ele>150.593628</ele>
        <time>2012-05-24 17:18:53Z</time>
      </trkpt>
      <trkpt lat="43.83202" lon="3.63452">
        <ele>150.44194</ele>
        <time>2012-05-24 17:18:57Z</time>
      </trkpt>
      <trkpt lat="43.83202" lon="3.63456">
        <ele>147.69635</ele>
        <time>2012-05-24 17:19:01Z</time>
      </trkpt>
      <trkpt lat="43.83203" lon="3.63461">
        <ele>139.936111</ele>
        <time>2012-05-24 17:19:05Z</time>
      </trkpt>
      <trkpt lat="43.83207" lon="3.63467">
        <ele>147.01503</ele>
        <time>2012-05-24 17:19:09Z</time>
      </trkpt>
      <trkpt lat="43.83209" lon="3.63477">
        <ele>153.010925</ele>
        <time>2012-05-24 17:19:13Z</time>
      </trkpt>
      <trkpt lat="43.83212" lon="3.63485">
        <ele>147.617157</ele>
        <time>2012-05-24 17:19:17Z</time>
      </trkpt>
      <trkpt lat="43.83213" lon="3.63491">
        <ele>146.834946</ele>
        <time>2012-05-24 17:19:21Z</time>
      </trkpt>
      <trkpt lat="43.83212" lon="3.63502">
        <ele>154.154572</ele>
        <time>2012-05-24 17:19:25Z</time>
      </trkpt>
      <trkpt lat="43.83212" lon="3.63509">
        <ele>152.12291</ele>
        <time>2012-05-24 17:19:29Z</time>
      </trkpt>
      <trkpt lat="43.83212" lon="3.63514">
        <ele>156.037796</ele>
        <time>2012-05-24 17:19:33Z</time>
      </trkpt>
      <trkpt lat="43.83214" lon="3.63525">
        <ele>155.366867</ele>
        <time>2012-05-24 17:19:37Z</time>
      </trkpt>
      <trkpt lat="43.83215" lon="3.63528">
        <ele>153.84816</ele>
        <time>2012-05-24 17:19:41Z</time>
      </trkpt>
      <trkpt lat="43.83215" lon="3.63533">
        <ele>145.52211</ele>
        <time>2012-05-24 17:19:45Z</time>
      </trkpt>
      <trkpt lat="43.83213" lon="3.6354">
        <ele>147.836044</ele>
        <time>2012-05-24 17:19:49Z</time>
      </trkpt>
      <trkpt lat="43.8321" lon="3.63551">
        <ele>153.076614</ele>
        <time>2012-05-24 17:19:53Z</time>
      </trkpt>
      <trkpt lat="43.83209" lon="3.63561">
        <ele>155.462585</ele>
        <time>2012-05-24 17:19:57Z</time>
      </trkpt>
      <trkpt lat="43.83208" lon="3.63568">
        <ele>157.179443</ele>
        <time>2012-05-24 17:20:01Z</time>
      </trkpt>
      <trkpt lat="43.83205" lon="3.6357">
        <ele>157.191788</ele>
        <time>2012-05-24 17:20:05Z</time>
      </trkpt>
      <trkpt lat="43.83199" lon="3.63571">
        <ele>149.906921</ele>
        <time>2012-05-24 17:20:09Z</time>
      </trkpt>
      <trkpt lat="43.83193" lon="3.6357">
        <ele>152.538559</ele>
        <time>2012-05-24 17:20:13Z</time>
      </trkpt>
      <trkpt lat="43.83189" lon="3.6357">
        <ele>151.483429</ele>
        <time>2012-05-24 17:20:17Z</time>
      </trkpt>
      <trkpt lat="43.83183" lon="3.63567">
        <ele>154.359131</ele>
        <time>2012-05-24 17:20:21Z</time>
      </trkpt>
      <trkpt lat="43.8318" lon="3.63566">
        <ele>155.481934</ele>
        <time>2012-05-24 17:20:25Z</time>
      </trkpt>
      <trkpt lat="43.83175" lon="3.63564">
        <ele>149.521942</ele>
        <time>2012-05-24 17:20:29Z</time>
      </trkpt>
      <trkpt lat="43.83168" lon="3.63564">
        <ele>152.238419</ele>
        <time>2012-05-24 17:20:33Z</time>
      </trkpt>
      <trkpt lat="43.83166" lon="3.63563">
        <ele>151.839767</ele>
        <time>2012-05-24 17:20:37Z</time>
      </trkpt>
      <trkpt lat="43.8316" lon="3.63562">
        <ele>143.719589</ele>
        <time>2012-05-24 17:20:41Z</time>
      </trkpt>
      <trkpt lat="43.83156" lon="3.63559">
        <ele>137.126709</ele>
        <time>2012-05-24 17:20:45Z</time>
      </trkpt>
      <trkpt lat="43.83155" lon="3.63557">
        <ele>133.903564</ele>
        <time>2012-05-24 17:20:49Z</time>
      </trkpt>
      <trkpt lat="43.83152" lon="3.6356">
        <ele>132.849854</ele>
        <time>2012-05-24 17:20:53Z</time>
      </trkpt>
      <trkpt lat="43.83146" lon="3.63564">
        <ele>136.235092</ele>
        <time>2012-05-24 17:20:57Z</time>
      </trkpt>
      <trkpt lat="43.8314" lon="3.63568">
        <ele>140.22464</ele>
        <time>2012-05-24 17:21:01Z</time>
      </trkpt>
      <trkpt lat="43.83136" lon="3.63576">
        <ele>139.804276</ele>
        <time>2012-05-24 17:21:05Z</time>
      </trkpt>
      <trkpt lat="43.83133" lon="3.6358">
        <ele>142.784164</ele>
        <time>2012-05-24 17:21:09Z</time>
      </trkpt>
      <trkpt lat="43.83127" lon="3.63583">
        <ele>140.564926</ele>
        <time>2012-05-24 17:21:13Z</time>
      </trkpt>
      <trkpt lat="43.83122" lon="3.63588">
        <ele>141.406784</ele>
        <time>2012-05-24 17:21:17Z</time>
      </trkpt>
      <trkpt lat="43.83117" lon="3.63593">
        <ele>147.514938</ele>
        <time>2012-05-24 17:21:21Z</time>
      </trkpt>
      <trkpt lat="43.83114" lon="3.63598">
        <ele>150.398651</ele>
        <time>2012-05-24 17:21:25Z</time>
      </trkpt>
      <trkpt lat="43.83115" lon="3.63608">
        <ele>154.800888</ele>
        <time>2012-05-24 17:21:29Z</time>
      </trkpt>
      <trkpt lat="43.83118" lon="3.63615">
        <ele>151.634338</ele>
        <time>2012-05-24 17:21:33Z</time>
      </trkpt>
      <trkpt lat="43.83125" lon="3.63623">
        <ele>151.907898</ele>
        <time>2012-05-24 17:21:37Z</time>
      </trkpt>
      <trkpt lat="43.83127" lon="3.63627">
        <ele>154.111755</ele>
        <time>2012-05-24 17:21:41Z</time>
      </trkpt>
      <trkpt lat="43.8313" lon="3.63632">
        <ele>151.927521</ele>
        <time>2012-05-24 17:21:45Z</time>
      </trkpt>
      <trkpt lat="43.83136" lon="3.63639">
        <ele>153.259872</ele>
        <time>2012-05-24 17:21:49Z</time>
      </trkpt>
      <trkpt lat="43.83144" lon="3.63644">
        <ele>144.965317</ele>
        <time>2012-05-24 17:21:53Z</time>
      </trkpt>
      <trkpt lat="43.83149" lon="3.63647">
        <ele>145.736328</ele>
        <time>2012-05-24 17:21:57Z</time>
      </trkpt>
      <trkpt lat="43.83151" lon="3.63648">
        <ele>151.167526</ele>
        <time>2012-05-24 17:22:01Z</time>
      </trkpt>
      <trkpt lat="43.83157" lon="3.63652">
        <ele>147.572556</ele>
        <time>2012-05-24 17:22:05Z</time>
      </trkpt>
      <trkpt lat="43.83166" lon="3.63659">
        <ele>152.183838</ele>
        <time>2012-05-24 17:22:09Z</time>
      </trkpt>
      <trkpt lat="43.83171" lon="3.63663">
        <ele>145.950058</ele>
        <time>2012-05-24 17:22:13Z</time>
      </trkpt>
      <trkpt lat="43.83175" lon="3.63668">
        <ele>146.65126</ele>
        <time>2012-05-24 17:22:17Z</time>
      </trkpt>
      <trkpt lat="43.8318" lon="3.63671">
        <ele>140.814667</ele>
        <time>2012-05-24 17:22:21Z</time>
      </trkpt>
      <trkpt lat="43.83185" lon="3.63676">
        <ele>145.006363</ele>
        <time>2012-05-24 17:22:25Z</time>
      </trkpt>
      <trkpt lat="43.83188" lon="3.63678">
        <ele>144.199982</ele>
        <time>2012-05-24 17:22:29Z</time>
      </trkpt>
      <trkpt lat="43.83192" lon="3.6368">
        <ele>149.32486</ele>
        <time>2012-05-24 17:22:33Z</time>
      </trkpt>
      <trkpt lat="43.83198" lon="3.63682">
        <ele>150.73027</ele>
        <time>2012-05-24 17:22:37Z</time>
      </trkpt>
      <trkpt lat="43.83204" lon="3.63684">
        <ele>146.779678</ele>
        <time>2012-05-24 17:22:41Z</time>
      </trkpt>
      <trkpt lat="43.83205" lon="3.63684">
        <ele>146.621002</ele>
        <time>2012-05-24 17:22:45Z</time>
      </trkpt>
      <trkpt lat="43.83207" lon="3.63688">
        <ele>144.884567</ele>
        <time>2012-05-24 17:22:49Z</time>
      </trkpt>
      <trkpt lat="43.83212" lon="3.6369">
        <ele>143.796005</ele>
        <time>2012-05-24 17:22:53Z</time>
      </trkpt>
      <trkpt lat="43.83219" lon="3.63693">
        <ele>143.613525</ele>
        <time>2012-05-24 17:22:57Z</time>
      </trkpt>
      <trkpt lat="43.8322" lon="3.63696">
        <ele>145.95401</ele>
        <time>2012-05-24 17:23:01Z</time>
      </trkpt>
      <trkpt lat="43.83223" lon="3.63699">
        <ele>146.711624</ele>
        <time>2012-05-24 17:23:05Z</time>
      </trkpt>
      <trkpt lat="43.83228" lon="3.63704">
        <ele>143.348007</ele>
        <time>2012-05-24 17:23:09Z</time>
      </trkpt>
      <trkpt lat="43.83233" lon="3.63708">
        <ele>145.683212</ele>
        <time>2012-05-24 17:23:13Z</time>
      </trkpt>
      <trkpt lat="43.83232" lon="3.63708">
        <ele>151.059509</ele>
        <time>2012-05-24 17:23:17Z</time>
      </trkpt>
      <trkpt lat="43.83239" lon="3.63711">
        <ele>142.284134</ele>
        <time>2012-05-24 17:23:21Z</time>
      </trkpt>
      <trkpt lat="43.83247" lon="3.63714">
        <ele>143.106339</ele>
        <time>2012-05-24 17:23:25Z</time>
      </trkpt>
      <trkpt lat="43.83257" lon="3.63715">
        <ele>148.091537</ele>
        <time>2012-05-24 17:23:29Z</time>
      </trkpt>
      <trkpt lat="43.83257" lon="3.63715">
        <ele>146.650253</ele>
        <time>2012-05-24 17:23:33Z</time>
      </trkpt>
      <trkpt lat="43.83262" lon="3.63719">
        <ele>147.96611</ele>
        <time>2012-05-24 17:23:37Z</time>
      </trkpt>
      <trkpt lat="43.83268" lon="3.63723">
        <ele>145.409363</ele>
        <time>2012-05-24 17:23:41Z</time>
      </trkpt>
      <trkpt lat="43.83276" lon="3.63728">
        <ele>141.521896</ele>
        <time>2012-05-24 17:23:45Z</time>
      </trkpt>
      <trkpt lat="43.83279" lon="3.63732">
        <ele>140.229019</ele>
        <time>2012-05-24 17:23:49Z</time>
      </trkpt>
      <trkpt lat="43.83279" lon="3.63734">
        <ele>144.544693</ele>
        <time>2012-05-24 17:23:53Z</time>
      </trkpt>
      <trkpt lat="43.8328" lon="3.63736">
        <ele>148.06752</ele>
        <time>2012-05-24 17:23:57Z</time>
      </trkpt>
      <trkpt lat="43.83278" lon="3.63738">
        <ele>151.075195</ele>
        <time>2012-05-24 17:24:01Z</time>
      </trkpt>
      <trkpt lat="43.83278" lon="3.6374">
        <ele>147.76355</ele>
        <time>2012-05-24 17:24:05Z</time>
      </trkpt>
      <trkpt lat="43.83281" lon="3.63742">
        <ele>149.651001</ele>
        <time>2012-05-24 17:24:09Z</time>
      </trkpt>
      <trkpt lat="43.83283" lon="3.63751">
        <ele>154.739563</ele>
        <time>2012-05-24 17:24:13Z</time>
      </trkpt>
      <trkpt lat="43.83284" lon="3.63756">
        <ele>139.846481</ele>
        <time>2012-05-24 17:24:17Z</time>
      </trkpt>
      <trkpt lat="43.83287" lon="3.63761">
        <ele>139.532242</ele>
        <time>2012-05-24 17:24:21Z</time>
      </trkpt>
      <trkpt lat="43.83288" lon="3.63766">
        <ele>145.040665</ele>
        <time>2012-05-24 17:24:25Z</time>
      </trkpt>
      <trkpt lat="43.83288" lon="3.63772">
        <ele>149.687424</ele>
        <time>2012-05-24 17:24:29Z</time>
      </trkpt>
      <trkpt lat="43.83289" lon="3.63776">
        <ele>151.550171</ele>
        <time>2012-05-24 17:24:33Z</time>
      </trkpt>
      <trkpt lat="43.83291" lon="3.63785">
        <ele>149.789017</ele>
        <time>2012-05-24 17:24:37Z</time>
      </trkpt>
      <trkpt lat="43.83295" lon="3.63794">
        <ele>148.004501</ele>
        <time>2012-05-24 17:24:41Z</time>
      </trkpt>
      <trkpt lat="43.83297" lon="3.63803">
        <ele>150.221909</ele>
        <time>2012-05-24 17:24:45Z</time>
      </trkpt>
      <trkpt lat="43.83298" lon="3.63808">
        <ele>153.194504</ele>
        <time>2012-05-24 17:24:49Z</time>
      </trkpt>
      <trkpt lat="43.83304" lon="3.63816">
        <ele>157.772629</ele>
        <time>2012-05-24 17:24:53Z</time>
      </trkpt>
      <trkpt lat="43.83304" lon="3.63816">
        <ele>154.1772</ele>
        <time>2012-05-24 17:24:57Z</time>
      </trkpt>
      <trkpt lat="43.83303" lon="3.63817">
        <ele>152.876282</ele>
        <time>2012-05-24 17:25:01Z</time>
      </trkpt>
      <trkpt lat="43.83302" lon="3.6382">
        <ele>152.134521</ele>
        <time>2012-05-24 17:25:05Z</time>
      </trkpt>
      <trkpt lat="43.83303" lon="3.63831">
        <ele>148.600754</ele>
        <time>2012-05-24 17:25:09Z</time>
      </trkpt>
      <trkpt lat="43.83303" lon="3.63831">
        <ele>148.970383</ele>
        <time>2012-05-24 17:25:13Z</time>
      </trkpt>
      <trkpt lat="43.83306" lon="3.63836">
        <ele>153.469574</ele>
        <time>2012-05-24 17:25:17Z</time>
      </trkpt>
      <trkpt lat="43.83324" lon="3.63853">
        <ele>146.673187</ele>
        <time>2012-05-24 17:25:21Z</time>
      </trkpt>
      <trkpt lat="43.83324" lon="3.63853">
        <ele>151.199875</ele>
        <time>2012-05-24 17:25:25Z</time>
      </trkpt>
      <trkpt lat="43.83331" lon="3.63862">
        <ele>154.748581</ele>
        <time>2012-05-24 17:25:29Z</time>
      </trkpt>
      <trkpt lat="43.83335" lon="3.63866">
        <ele>151.473022</ele>
        <time>2012-05-24 17:25:33Z</time>
      </trkpt>
      <trkpt lat="43.83335" lon="3.63866">
        <ele>136.04776</ele>
        <time>2012-05-24 17:25:37Z</time>
      </trkpt>
      <trkpt lat="43.83336" lon="3.63869">
        <ele>135.246338</ele>
        <time>2012-05-24 17:25:41Z</time>
      </trkpt>
      <trkpt lat="43.83336" lon="3.63869">
        <ele>136.098404</ele>
        <time>2012-05-24 17:25:45Z</time>
      </trkpt>
      <trkpt lat="43.83336" lon="3.63869">
        <ele>129.539474</ele>
        <time>2012-05-24 17:25:49Z</time>
      </trkpt>
      <trkpt lat="43.83337" lon="3.63872">
        <ele>131.52182</ele>
        <time>2012-05-24 17:25:53Z</time>
      </trkpt>
      <trkpt lat="43.83337" lon="3.63872">
        <ele>142.753677</ele>
        <time>2012-05-24 17:25:57Z</time>
      </trkpt>
      <trkpt lat="43.83337" lon="3.63872">
        <ele>142.923615</ele>
        <time>2012-05-24 17:26:01Z</time>
      </trkpt>
      <trkpt lat="43.83339" lon="3.63869">
        <ele>146.858704</ele>
        <time>2012-05-24 17:26:05Z</time>
      </trkpt>
      <trkpt lat="43.83341" lon="3.63869">
        <ele>147.945374</ele>
        <time>2012-05-24 17:26:09Z</time>
      </trkpt>
      <trkpt lat="43.83343" lon="3.6387">
        <ele>159.818436</ele>
        <time>2012-05-24 17:26:13Z</time>
      </trkpt>
      <trkpt lat="43.83345" lon="3.63869">
        <ele>156.730331</ele>
        <time>2012-05-24 17:26:17Z</time>
      </trkpt>
      <trkpt lat="43.83345" lon="3.63869">
        <ele>151.789551</ele>
        <time>2012-05-24 17:26:21Z</time>
      </trkpt>
      <trkpt lat="43.83345" lon="3.63869">
        <ele>147.307053</ele>
        <time>2012-05-24 17:26:25Z</time>
      </trkpt>
      <trkpt lat="43.83342" lon="3.63869">
        <ele>147.491531</ele>
        <time>2012-05-24 17:26:29Z</time>
      </trkpt>
      <trkpt lat="43.83341" lon="3.63869">
        <ele>144.358429</ele>
        <time>2012-05-24 17:26:33Z</time>
      </trkpt>
      <trkpt lat="43.83342" lon="3.63874">
        <ele>153.354126</ele>
        <time>2012-05-24 17:26:37Z</time>
      </trkpt>
      <trkpt lat="43.83342" lon="3.63874">
        <ele>150.056488</ele>
        <time>2012-05-24 17:26:41Z</time>
      </trkpt>
      <trkpt lat="43.83343" lon="3.63874">
        <ele>144.293533</ele>
        <time>2012-05-24 17:26:45Z</time>
      </trkpt>
      <trkpt lat="43.83343" lon="3.63877">
        <ele>143.295456</ele>
        <time>2012-05-24 17:26:49Z</time>
      </trkpt>
      <trkpt lat="43.83345" lon="3.63882">
        <ele>143.883926</ele>
        <time>2012-05-24 17:26:53Z</time>
      </trkpt>
      <trkpt lat="43.83344" lon="3.63887">
        <ele>137.793808</ele>
        <time>2012-05-24 17:26:57Z</time>
      </trkpt>
      <trkpt lat="43.83345" lon="3.63894">
        <ele>136.26738</ele>
        <time>2012-05-24 17:27:01Z</time>
      </trkpt>
      <trkpt lat="43.83347" lon="3.63899">
        <ele>139.736481</ele>
        <time>2012-05-24 17:27:05Z</time>
      </trkpt>
      <trkpt lat="43.83351" lon="3.63908">
        <ele>134.149017</ele>
        <time>2012-05-24 17:27:09Z</time>
      </trkpt>
      <trkpt lat="43.8335" lon="3.63913">
        <ele>132.979706</ele>
        <time>2012-05-24 17:27:13Z</time>
      </trkpt>
      <trkpt lat="43.83352" lon="3.6392">
        <ele>132.424866</ele>
        <time>2012-05-24 17:27:17Z</time>
      </trkpt>
      <trkpt lat="43.83353" lon="3.63925">
        <ele>130.971542</ele>
        <time>2012-05-24 17:27:21Z</time>
      </trkpt>
      <trkpt lat="43.83358" lon="3.63933">
        <ele>133.010391</ele>
        <time>2012-05-24 17:27:25Z</time>
      </trkpt>
      <trkpt lat="43.8336" lon="3.63944">
        <ele>136.745132</ele>
        <time>2012-05-24 17:27:29Z</time>
      </trkpt>
      <trkpt lat="43.8336" lon="3.63951">
        <ele>140.243607</ele>
        <time>2012-05-24 17:27:33Z</time>
      </trkpt>
      <trkpt lat="43.83362" lon="3.63958">
        <ele>140.428589</ele>
        <time>2012-05-24 17:27:37Z</time>
      </trkpt>
      <trkpt lat="43.83361" lon="3.63963">
        <ele>141.406647</ele>
        <time>2012-05-24 17:27:41Z</time>
      </trkpt>
      <trkpt lat="43.83361" lon="3.63973">
        <ele>141.65004</ele>
        <time>2012-05-24 17:27:45Z</time>
      </trkpt>
      <trkpt lat="43.83358" lon="3.63981">
        <ele>138.48819</ele>
        <time>2012-05-24 17:27:49Z</time>
      </trkpt>
      <trkpt lat="43.83357" lon="3.63992">
        <ele>134.79245</ele>
        <time>2012-05-24 17:27:53Z</time>
      </trkpt>
      <trkpt lat="43.83355" lon="3.64">
        <ele>138.346436</ele>
        <time>2012-05-24 17:27:57Z</time>
      </trkpt>
      <trkpt lat="43.83352" lon="3.64005">
        <ele>144.108185</ele>
        <time>2012-05-24 17:28:01Z</time>
      </trkpt>
      <trkpt lat="43.83352" lon="3.64012">
        <ele>141.480179</ele>
        <time>2012-05-24 17:28:05Z</time>
      </trkpt>
      <trkpt lat="43.83355" lon="3.64017">
        <ele>139.249207</ele>
        <time>2012-05-24 17:28:09Z</time>
      </trkpt>
      <trkpt lat="43.83358" lon="3.64026">
        <ele>140.831451</ele>
        <time>2012-05-24 17:28:13Z</time>
      </trkpt>
      <trkpt lat="43.83361" lon="3.64034">
        <ele>137.350937</ele>
        <time>2012-05-24 17:28:17Z</time>
      </trkpt>
      <trkpt lat="43.83363" lon="3.64042">
        <ele>135.584641</ele>
        <time>2012-05-24 17:28:21Z</time>
      </trkpt>
      <trkpt lat="43.83363" lon="3.64048">
        <ele>135.412628</ele>
        <time>2012-05-24 17:28:25Z</time>
      </trkpt>
      <trkpt lat="43.83364" lon="3.64054">
        <ele>136.166489</ele>
        <time>2012-05-24 17:28:29Z</time>
      </trkpt>
      <trkpt lat="43.83365" lon="3.64058">
        <ele>138.915787</ele>
        <time>2012-05-24 17:28:33Z</time>
      </trkpt>
      <trkpt lat="43.83363" lon="3.64065">
        <ele>137.974792</ele>
        <time>2012-05-24 17:28:37Z</time>
      </trkpt>
      <trkpt lat="43.83363" lon="3.64071">
        <ele>134.87677</ele>
        <time>2012-05-24 17:28:41Z</time>
      </trkpt>
      <trkpt lat="43.83363" lon="3.6408">
        <ele>135.776184</ele>
        <time>2012-05-24 17:28:45Z</time>
      </trkpt>
      <trkpt lat="43.83365" lon="3.64087">
        <ele>138.212753</ele>
        <time>2012-05-24 17:28:49Z</time>
      </trkpt>
      <trkpt lat="43.83367" lon="3.64093">
        <ele>138.908585</ele>
        <time>2012-05-24 17:28:53Z</time>
      </trkpt>
      <trkpt lat="43.83368" lon="3.641">
        <ele>141.597977</ele>
        <time>2012-05-24 17:28:57Z</time>
      </trkpt>
      <trkpt lat="43.8337" lon="3.64108">
        <ele>140.579865</ele>
        <time>2012-05-24 17:29:01Z</time>
      </trkpt>
      <trkpt lat="43.83373" lon="3.64115">
        <ele>140.771484</ele>
        <time>2012-05-24 17:29:05Z</time>
      </trkpt>
      <trkpt lat="43.83374" lon="3.64123">
        <ele>141.382919</ele>
        <time>2012-05-24 17:29:09Z</time>
      </trkpt>
      <trkpt lat="43.83373" lon="3.64129">
        <ele>140.699707</ele>
        <time>2012-05-24 17:29:13Z</time>
      </trkpt>
      <trkpt lat="43.83372" lon="3.64132">
        <ele>143.94191</ele>
        <time>2012-05-24 17:29:17Z</time>
      </trkpt>
      <trkpt lat="43.83372" lon="3.64134">
        <ele>145.496292</ele>
        <time>2012-05-24 17:29:21Z</time>
      </trkpt>
      <trkpt lat="43.83375" lon="3.64139">
        <ele>144.843246</ele>
        <time>2012-05-24 17:29:25Z</time>
      </trkpt>
      <trkpt lat="43.83376" lon="3.64145">
        <ele>141.513855</ele>
        <time>2012-05-24 17:29:29Z</time>
      </trkpt>
      <trkpt lat="43.83376" lon="3.6415">
        <ele>139.795288</ele>
        <time>2012-05-24 17:29:33Z</time>
      </trkpt>
      <trkpt lat="43.83376" lon="3.64157">
        <ele>141.254364</ele>
        <time>2012-05-24 17:29:37Z</time>
      </trkpt>
      <trkpt lat="43.83375" lon="3.64164">
        <ele>142.875946</ele>
        <time>2012-05-24 17:29:41Z</time>
      </trkpt>
      <trkpt lat="43.83376" lon="3.6417">
        <ele>143.850098</ele>
        <time>2012-05-24 17:29:45Z</time>
      </trkpt>
      <trkpt lat="43.83373" lon="3.64173">
        <ele>145.880478</ele>
        <time>2012-05-24 17:29:49Z</time>
      </trkpt>
      <trkpt lat="43.83368" lon="3.64176">
        <ele>143.256424</ele>
        <time>2012-05-24 17:29:53Z</time>
      </trkpt>
      <trkpt lat="43.83362" lon="3.64177">
        <ele>140.128128</ele>
        <time>2012-05-24 17:29:57Z</time>
      </trkpt>
      <trkpt lat="43.83355" lon="3.64183">
        <ele>143.48439</ele>
        <time>2012-05-24 17:30:01Z</time>
      </trkpt>
      <trkpt lat="43.83351" lon="3.64187">
        <ele>142.952042</ele>
        <time>2012-05-24 17:30:05Z</time>
      </trkpt>
      <trkpt lat="43.83344" lon="3.64189">
        <ele>144.080902</ele>
        <time>2012-05-24 17:30:09Z</time>
      </trkpt>
      <trkpt lat="43.83337" lon="3.64193">
        <ele>144.586136</ele>
        <time>2012-05-24 17:30:13Z</time>
      </trkpt>
      <trkpt lat="43.83331" lon="3.64196">
        <ele>144.536423</ele>
        <time>2012-05-24 17:30:17Z</time>
      </trkpt>
      <trkpt lat="43.83326" lon="3.64198">
        <ele>143.658585</ele>
        <time>2012-05-24 17:30:21Z</time>
      </trkpt>
      <trkpt lat="43.83323" lon="3.64202">
        <ele>144.620544</ele>
        <time>2012-05-24 17:30:25Z</time>
      </trkpt>
      <trkpt lat="43.8332" lon="3.64204">
        <ele>145.080643</ele>
        <time>2012-05-24 17:30:29Z</time>
      </trkpt>
      <trkpt lat="43.83321" lon="3.64209">
        <ele>144.037247</ele>
        <time>2012-05-24 17:30:33Z</time>
      </trkpt>
      <trkpt lat="43.8332" lon="3.64211">
        <ele>143.400574</ele>
        <time>2012-05-24 17:30:37Z</time>
      </trkpt>
      <trkpt lat="43.83314" lon="3.64215">
        <ele>137.275681</ele>
        <time>2012-05-24 17:30:41Z</time>
      </trkpt>
      <trkpt lat="43.83311" lon="3.64219">
        <ele>139.321793</ele>
        <time>2012-05-24 17:30:45Z</time>
      </trkpt>
      <trkpt lat="43.83312" lon="3.64222">
        <ele>138.297928</ele>
        <time>2012-05-24 17:30:49Z</time>
      </trkpt>
      <trkpt lat="43.83317" lon="3.64225">
        <ele>143.030121</ele>
        <time>2012-05-24 17:30:53Z</time>
      </trkpt>
      <trkpt lat="43.83317" lon="3.64225">
        <ele>138.973984</ele>
        <time>2012-05-24 17:30:57Z</time>
      </trkpt>
      <trkpt lat="43.8332" lon="3.64228">
        <ele>136.006912</ele>
        <time>2012-05-24 17:31:01Z</time>
      </trkpt>
      <trkpt lat="43.83329" lon="3.64232">
        <ele>145.671616</ele>
        <time>2012-05-24 17:31:05Z</time>
      </trkpt>
      <trkpt lat="43.83336" lon="3.64236">
        <ele>167.853882</ele>
        <time>2012-05-24 17:31:10Z</time>
      </trkpt>
      <trkpt lat="43.83341" lon="3.64239">
        <ele>164.852509</ele>
        <time>2012-05-24 17:31:13Z</time>
      </trkpt>
      <trkpt lat="43.83353" lon="3.6425">
        <ele>153.257477</ele>
        <time>2012-05-24 17:31:17Z</time>
      </trkpt>
      <trkpt lat="43.83352" lon="3.6425">
        <ele>138.202682</ele>
        <time>2012-05-24 17:31:21Z</time>
      </trkpt>
      <trkpt lat="43.83352" lon="3.64249">
        <ele>140.027527</ele>
        <time>2012-05-24 17:31:25Z</time>
      </trkpt>
      <trkpt lat="43.83352" lon="3.64249">
        <ele>142.418533</ele>
        <time>2012-05-24 17:31:29Z</time>
      </trkpt>
      <trkpt lat="43.83352" lon="3.64249">
        <ele>134.807709</ele>
        <time>2012-05-24 17:31:33Z</time>
      </trkpt>
      <trkpt lat="43.83353" lon="3.64253">
        <ele>124.512329</ele>
        <time>2012-05-24 17:31:37Z</time>
      </trkpt>
      <trkpt lat="43.83353" lon="3.64252">
        <ele>126.672958</ele>
        <time>2012-05-24 17:31:41Z</time>
      </trkpt>
      <trkpt lat="43.83357" lon="3.6425">
        <ele>127.525833</ele>
        <time>2012-05-24 17:31:45Z</time>
      </trkpt>
      <trkpt lat="43.83358" lon="3.64249">
        <ele>128.803986</ele>
        <time>2012-05-24 17:31:49Z</time>
      </trkpt>
      <trkpt lat="43.83359" lon="3.64246">
        <ele>126.693542</ele>
        <time>2012-05-24 17:31:53Z</time>
      </trkpt>
      <trkpt lat="43.83361" lon="3.64241">
        <ele>132.560059</ele>
        <time>2012-05-24 17:31:57Z</time>
      </trkpt>
      <trkpt lat="43.83365" lon="3.64237">
        <ele>130.943405</ele>
        <time>2012-05-24 17:32:01Z</time>
      </trkpt>
      <trkpt lat="43.83366" lon="3.64235">
        <ele>134.103821</ele>
        <time>2012-05-24 17:32:05Z</time>
      </trkpt>
      <trkpt lat="43.83368" lon="3.64233">
        <ele>137.789139</ele>
        <time>2012-05-24 17:32:09Z</time>
      </trkpt>
      <trkpt lat="43.8337" lon="3.64231">
        <ele>136.866379</ele>
        <time>2012-05-24 17:32:13Z</time>
      </trkpt>
      <trkpt lat="43.83372" lon="3.64229">
        <ele>135.74881</ele>
        <time>2012-05-24 17:32:17Z</time>
      </trkpt>
      <trkpt lat="43.83373" lon="3.6423">
        <ele>132.712463</ele>
        <time>2012-05-24 17:32:21Z</time>
      </trkpt>
      <trkpt lat="43.83375" lon="3.64222">
        <ele>131.074265</ele>
        <time>2012-05-24 17:32:25Z</time>
      </trkpt>
      <trkpt lat="43.83378" lon="3.64215">
        <ele>135.671051</ele>
        <time>2012-05-24 17:32:29Z</time>
      </trkpt>
      <trkpt lat="43.83379" lon="3.6421">
        <ele>136.963821</ele>
        <time>2012-05-24 17:32:33Z</time>
      </trkpt>
      <trkpt lat="43.8338" lon="3.64203">
        <ele>135.490768</ele>
        <time>2012-05-24 17:32:37Z</time>
      </trkpt>
      <trkpt lat="43.8338" lon="3.64203">
        <ele>140.628464</ele>
        <time>2012-05-24 17:32:41Z</time>
      </trkpt>
      <trkpt lat="43.83381" lon="3.64194">
        <ele>140.634018</ele>
        <time>2012-05-24 17:32:45Z</time>
      </trkpt>
      <trkpt lat="43.83381" lon="3.64183">
        <ele>142.032578</ele>
        <time>2012-05-24 17:32:49Z</time>
      </trkpt>
      <trkpt lat="43.83382" lon="3.64179">
        <ele>144.895996</ele>
        <time>2012-05-24 17:32:53Z</time>
      </trkpt>
      <trkpt lat="43.8338" lon="3.64169">
        <ele>143.724167</ele>
        <time>2012-05-24 17:32:57Z</time>
      </trkpt>
      <trkpt lat="43.83379" lon="3.64163">
        <ele>145.68718</ele>
        <time>2012-05-24 17:33:01Z</time>
      </trkpt>
      <trkpt lat="43.83377" lon="3.64155">
        <ele>140.900803</ele>
        <time>2012-05-24 17:33:05Z</time>
      </trkpt>
      <trkpt lat="43.83376" lon="3.64148">
        <ele>141.964828</ele>
        <time>2012-05-24 17:33:09Z</time>
      </trkpt>
      <trkpt lat="43.83375" lon="3.64142">
        <ele>137.812531</ele>
        <time>2012-05-24 17:33:13Z</time>
      </trkpt>
      <trkpt lat="43.83375" lon="3.64134">
        <ele>134.288116</ele>
        <time>2012-05-24 17:33:17Z</time>
      </trkpt>
      <trkpt lat="43.83376" lon="3.64128">
        <ele>138.483749</ele>
        <time>2012-05-24 17:33:21Z</time>
      </trkpt>
      <trkpt lat="43.83376" lon="3.64129">
        <ele>137.4039</ele>
        <time>2012-05-24 17:33:25Z</time>
      </trkpt>
      <trkpt lat="43.83377" lon="3.64133">
        <ele>141.696091</ele>
        <time>2012-05-24 17:33:29Z</time>
      </trkpt>
      <trkpt lat="43.83377" lon="3.64137">
        <ele>141.626541</ele>
        <time>2012-05-24 17:33:33Z</time>
      </trkpt>
      <trkpt lat="43.83378" lon="3.64142">
        <ele>144.81311</ele>
        <time>2012-05-24 17:33:37Z</time>
      </trkpt>
      <trkpt lat="43.83379" lon="3.64146">
        <ele>140.934311</ele>
        <time>2012-05-24 17:33:41Z</time>
      </trkpt>
      <trkpt lat="43.8338" lon="3.64151">
        <ele>148.504272</ele>
        <time>2012-05-24 17:33:45Z</time>
      </trkpt>
      <trkpt lat="43.83383" lon="3.64155">
        <ele>142.471832</ele>
        <time>2012-05-24 17:33:49Z</time>
      </trkpt>
      <trkpt lat="43.83384" lon="3.64159">
        <ele>142.618011</ele>
        <time>2012-05-24 17:33:53Z</time>
      </trkpt>
      <trkpt lat="43.83385" lon="3.64164">
        <ele>139.4534</ele>
        <time>2012-05-24 17:33:57Z</time>
      </trkpt>
      <trkpt lat="43.83384" lon="3.64168">
        <ele>145.793213</ele>
        <time>2012-05-24 17:34:01Z</time>
      </trkpt>
      <trkpt lat="43.83384" lon="3.64172">
        <ele>136.455368</ele>
        <time>2012-05-24 17:34:05Z</time>
      </trkpt>
      <trkpt lat="43.83382" lon="3.64174">
        <ele>139.371994</ele>
        <time>2012-05-24 17:34:09Z</time>
      </trkpt>
      <trkpt lat="43.83381" lon="3.6418">
        <ele>140.16124</ele>
        <time>2012-05-24 17:34:13Z</time>
      </trkpt>
      <trkpt lat="43.83381" lon="3.64185">
        <ele>142.901794</ele>
        <time>2012-05-24 17:34:17Z</time>
      </trkpt>
      <trkpt lat="43.83384" lon="3.64197">
        <ele>148.53006</ele>
        <time>2012-05-24 17:34:21Z</time>
      </trkpt>
      <trkpt lat="43.83385" lon="3.64202">
        <ele>150.396591</ele>
        <time>2012-05-24 17:34:25Z</time>
      </trkpt>
      <trkpt lat="43.83385" lon="3.64205">
        <ele>149.142502</ele>
        <time>2012-05-24 17:34:29Z</time>
      </trkpt>
      <trkpt lat="43.83386" lon="3.6421">
        <ele>153.37027</ele>
        <time>2012-05-24 17:34:33Z</time>
      </trkpt>
      <trkpt lat="43.8339" lon="3.64213">
        <ele>153.343338</ele>
        <time>2012-05-24 17:34:37Z</time>
      </trkpt>
      <trkpt lat="43.83392" lon="3.64216">
        <ele>151.562759</ele>
        <time>2012-05-24 17:34:41Z</time>
      </trkpt>
      <trkpt lat="43.8339" lon="3.64221">
        <ele>153.148392</ele>
        <time>2012-05-24 17:34:45Z</time>
      </trkpt>
      <trkpt lat="43.83392" lon="3.64226">
        <ele>155.190369</ele>
        <time>2012-05-24 17:34:49Z</time>
      </trkpt>
      <trkpt lat="43.83391" lon="3.64229">
        <ele>156.711243</ele>
        <time>2012-05-24 17:34:53Z</time>
      </trkpt>
      <trkpt lat="43.83391" lon="3.64232">
        <ele>158.225616</ele>
        <time>2012-05-24 17:34:57Z</time>
      </trkpt>
      <trkpt lat="43.83393" lon="3.6424">
        <ele>154.310013</ele>
        <time>2012-05-24 17:35:01Z</time>
      </trkpt>
      <trkpt lat="43.83393" lon="3.64246">
        <ele>157.692978</ele>
        <time>2012-05-24 17:35:05Z</time>
      </trkpt>
      <trkpt lat="43.83394" lon="3.6425">
        <ele>161.388626</ele>
        <time>2012-05-24 17:35:09Z</time>
      </trkpt>
      <trkpt lat="43.83393" lon="3.64253">
        <ele>156.281769</ele>
        <time>2012-05-24 17:35:13Z</time>
      </trkpt>
      <trkpt lat="43.83393" lon="3.64256">
        <ele>158.518997</ele>
        <time>2012-05-24 17:35:17Z</time>
      </trkpt>
      <trkpt lat="43.8339" lon="3.64265">
        <ele>162.246429</ele>
        <time>2012-05-24 17:35:21Z</time>
      </trkpt>
      <trkpt lat="43.83388" lon="3.64271">
        <ele>161.663895</ele>
        <time>2012-05-24 17:35:25Z</time>
      </trkpt>
      <trkpt lat="43.83388" lon="3.64274">
        <ele>164.216461</ele>
        <time>2012-05-24 17:35:29Z</time>
      </trkpt>
      <trkpt lat="43.83388" lon="3.64277">
        <ele>160.43396</ele>
        <time>2012-05-24 17:35:33Z</time>
      </trkpt>
      <trkpt lat="43.83386" lon="3.64279">
        <ele>158.998459</ele>
        <time>2012-05-24 17:35:37Z</time>
      </trkpt>
      <trkpt lat="43.83385" lon="3.64282">
        <ele>154.988205</ele>
        <time>2012-05-24 17:35:41Z</time>
      </trkpt>
      <trkpt lat="43.83384" lon="3.64286">
        <ele>161.721085</ele>
        <time>2012-05-24 17:35:45Z</time>
      </trkpt>
      <trkpt lat="43.83383" lon="3.64287">
        <ele>162.276367</ele>
        <time>2012-05-24 17:35:49Z</time>
      </trkpt>
      <trkpt lat="43.83382" lon="3.6429">
        <ele>161.137787</ele>
        <time>2012-05-24 17:35:53Z</time>
      </trkpt>
      <trkpt lat="43.83382" lon="3.64292">
        <ele>164.578506</ele>
        <time>2012-05-24 17:35:57Z</time>
      </trkpt>
      <trkpt lat="43.83381" lon="3.64294">
        <ele>169.499741</ele>
        <time>2012-05-24 17:36:01Z</time>
      </trkpt>
      <trkpt lat="43.83378" lon="3.64298">
        <ele>170.133209</ele>
        <time>2012-05-24 17:36:05Z</time>
      </trkpt>
      <trkpt lat="43.83374" lon="3.64301">
        <ele>172.203537</ele>
        <time>2012-05-24 17:36:09Z</time>
      </trkpt>
      <trkpt lat="43.83371" lon="3.64307">
        <ele>163.998032</ele>
        <time>2012-05-24 17:36:13Z</time>
      </trkpt>
      <trkpt lat="43.83368" lon="3.64311">
        <ele>162.526306</ele>
        <time>2012-05-24 17:36:17Z</time>
      </trkpt>
      <trkpt lat="43.83362" lon="3.64313">
        <ele>164.143784</ele>
        <time>2012-05-24 17:36:21Z</time>
      </trkpt>
      <trkpt lat="43.8336" lon="3.64316">
        <ele>168.057938</ele>
        <time>2012-05-24 17:36:25Z</time>
      </trkpt>
      <trkpt lat="43.83354" lon="3.64319">
        <ele>165.364334</ele>
        <time>2012-05-24 17:36:29Z</time>
      </trkpt>
      <trkpt lat="43.8335" lon="3.64323">
        <ele>158.697891</ele>
        <time>2012-05-24 17:36:33Z</time>
      </trkpt>
      <trkpt lat="43.83345" lon="3.64326">
        <ele>164.716156</ele>
        <time>2012-05-24 17:36:37Z</time>
      </trkpt>
      <trkpt lat="43.83344" lon="3.64333">
        <ele>163.195328</ele>
        <time>2012-05-24 17:36:41Z</time>
      </trkpt>
      <trkpt lat="43.83348" lon="3.64344">
        <ele>162.952484</ele>
        <time>2012-05-24 17:36:45Z</time>
      </trkpt>
      <trkpt lat="43.8335" lon="3.64351">
        <ele>158.52356</ele>
        <time>2012-05-24 17:36:49Z</time>
      </trkpt>
      <trkpt lat="43.83354" lon="3.64358">
        <ele>156.689636</ele>
        <time>2012-05-24 17:36:53Z</time>
      </trkpt>
      <trkpt lat="43.83355" lon="3.64362">
        <ele>156.96489</ele>
        <time>2012-05-24 17:36:57Z</time>
      </trkpt>
      <trkpt lat="43.83355" lon="3.64365">
        <ele>165.241974</ele>
        <time>2012-05-24 17:37:01Z</time>
      </trkpt>
      <trkpt lat="43.83357" lon="3.64372">
        <ele>157.009445</ele>
        <time>2012-05-24 17:37:05Z</time>
      </trkpt>
      <trkpt lat="43.83359" lon="3.64378">
        <ele>160.461029</ele>
        <time>2012-05-24 17:37:09Z</time>
      </trkpt>
      <trkpt lat="43.83359" lon="3.64382">
        <ele>162.326416</ele>
        <time>2012-05-24 17:37:13Z</time>
      </trkpt>
      <trkpt lat="43.83361" lon="3.64386">
        <ele>165.911911</ele>
        <time>2012-05-24 17:37:17Z</time>
      </trkpt>
      <trkpt lat="43.83363" lon="3.64392">
        <ele>162.766495</ele>
        <time>2012-05-24 17:37:21Z</time>
      </trkpt>
      <trkpt lat="43.83365" lon="3.64395">
        <ele>166.60553</ele>
        <time>2012-05-24 17:37:25Z</time>
      </trkpt>
      <trkpt lat="43.83369" lon="3.64402">
        <ele>163.924896</ele>
        <time>2012-05-24 17:37:29Z</time>
      </trkpt>
      <trkpt lat="43.83374" lon="3.64406">
        <ele>159.593567</ele>
        <time>2012-05-24 17:37:33Z</time>
      </trkpt>
      <trkpt lat="43.83375" lon="3.64407">
        <ele>167.217926</ele>
        <time>2012-05-24 17:37:37Z</time>
      </trkpt>
      <trkpt lat="43.83376" lon="3.64409">
        <ele>163.458313</ele>
        <time>2012-05-24 17:37:41Z</time>
      </trkpt>
      <trkpt lat="43.8338" lon="3.6441">
        <ele>168.844604</ele>
        <time>2012-05-24 17:37:45Z</time>
      </trkpt>
      <trkpt lat="43.83383" lon="3.64412">
        <ele>170.987305</ele>
        <time>2012-05-24 17:37:49Z</time>
      </trkpt>
      <trkpt lat="43.83386" lon="3.64412">
        <ele>166.613251</ele>
        <time>2012-05-24 17:37:53Z</time>
      </trkpt>
      <trkpt lat="43.83388" lon="3.64411">
        <ele>174.753922</ele>
        <time>2012-05-24 17:37:57Z</time>
      </trkpt>
      <trkpt lat="43.83388" lon="3.64411">
        <ele>171.144974</ele>
        <time>2012-05-24 17:38:01Z</time>
      </trkpt>
      <trkpt lat="43.83388" lon="3.64411">
        <ele>172.739899</ele>
        <time>2012-05-24 17:38:05Z</time>
      </trkpt>
      <trkpt lat="43.83388" lon="3.64411">
        <ele>173.307648</ele>
        <time>2012-05-24 17:38:09Z</time>
      </trkpt>
      <trkpt lat="43.83388" lon="3.64412">
        <ele>170.55983</ele>
        <time>2012-05-24 17:38:13Z</time>
      </trkpt>
      <trkpt lat="43.83388" lon="3.64412">
        <ele>169.010269</ele>
        <time>2012-05-24 17:38:17Z</time>
      </trkpt>
      <trkpt lat="43.83388" lon="3.64413">
        <ele>167.183075</ele>
        <time>2012-05-24 17:38:21Z</time>
      </trkpt>
      <trkpt lat="43.83388" lon="3.64414">
        <ele>162.155197</ele>
        <time>2012-05-24 17:38:25Z</time>
      </trkpt>
      <trkpt lat="43.83389" lon="3.64416">
        <ele>163.556717</ele>
        <time>2012-05-24 17:38:29Z</time>
      </trkpt>
      <trkpt lat="43.83392" lon="3.6442">
        <ele>167.96698</ele>
        <time>2012-05-24 17:38:33Z</time>
      </trkpt>
      <trkpt lat="43.83394" lon="3.64425">
        <ele>166.309525</ele>
        <time>2012-05-24 17:38:37Z</time>
      </trkpt>
      <trkpt lat="43.83397" lon="3.64428">
        <ele>167.87616</ele>
        <time>2012-05-24 17:38:41Z</time>
      </trkpt>
      <trkpt lat="43.834" lon="3.64432">
        <ele>166.750717</ele>
        <time>2012-05-24 17:38:45Z</time>
      </trkpt>
      <trkpt lat="43.83404" lon="3.64437">
        <ele>165.680847</ele>
        <time>2012-05-24 17:38:49Z</time>
      </trkpt>
      <trkpt lat="43.83408" lon="3.64441">
        <ele>164.377853</ele>
        <time>2012-05-24 17:38:53Z</time>
      </trkpt>
      <trkpt lat="43.83412" lon="3.64443">
        <ele>166.736115</ele>
        <time>2012-05-24 17:38:57Z</time>
      </trkpt>
      <trkpt lat="43.83415" lon="3.64444">
        <ele>166.995895</ele>
        <time>2012-05-24 17:39:01Z</time>
      </trkpt>
      <trkpt lat="43.83418" lon="3.64446">
        <ele>168.649689</ele>
        <time>2012-05-24 17:39:05Z</time>
      </trkpt>
      <trkpt lat="43.8342" lon="3.64451">
        <ele>167.842697</ele>
        <time>2012-05-24 17:39:09Z</time>
      </trkpt>
      <trkpt lat="43.83421" lon="3.64457">
        <ele>170.235397</ele>
        <time>2012-05-24 17:39:13Z</time>
      </trkpt>
      <trkpt lat="43.83421" lon="3.64463">
        <ele>170.221939</ele>
        <time>2012-05-24 17:39:17Z</time>
      </trkpt>
      <trkpt lat="43.83421" lon="3.64467">
        <ele>168.015839</ele>
        <time>2012-05-24 17:39:21Z</time>
      </trkpt>
      <trkpt lat="43.83421" lon="3.64472">
        <ele>173.130341</ele>
        <time>2012-05-24 17:39:25Z</time>
      </trkpt>
      <trkpt lat="43.83423" lon="3.64476">
        <ele>171.075378</ele>
        <time>2012-05-24 17:39:29Z</time>
      </trkpt>
      <trkpt lat="43.83427" lon="3.64483">
        <ele>171.014435</ele>
        <time>2012-05-24 17:39:33Z</time>
      </trkpt>
      <trkpt lat="43.83427" lon="3.64488">
        <ele>172.386032</ele>
        <time>2012-05-24 17:39:37Z</time>
      </trkpt>
      <trkpt lat="43.83426" lon="3.64493">
        <ele>170.209</ele>
        <time>2012-05-24 17:39:41Z</time>
      </trkpt>
      <trkpt lat="43.83427" lon="3.64498">
        <ele>168.629089</ele>
        <time>2012-05-24 17:39:45Z</time>
      </trkpt>
      <trkpt lat="43.83427" lon="3.64503">
        <ele>173.696075</ele>
        <time>2012-05-24 17:39:49Z</time>
      </trkpt>
      <trkpt lat="43.83428" lon="3.64508">
        <ele>173.481216</ele>
        <time>2012-05-24 17:39:53Z</time>
      </trkpt>
      <trkpt lat="43.83427" lon="3.64512">
        <ele>171.819717</ele>
        <time>2012-05-24 17:39:57Z</time>
      </trkpt>
      <trkpt lat="43.83426" lon="3.64516">
        <ele>172.819214</ele>
        <time>2012-05-24 17:40:01Z</time>
      </trkpt>
      <trkpt lat="43.83426" lon="3.64521">
        <ele>167.597214</ele>
        <time>2012-05-24 17:40:05Z</time>
      </trkpt>
      <trkpt lat="43.83426" lon="3.64526">
        <ele>167.629333</ele>
        <time>2012-05-24 17:40:09Z</time>
      </trkpt>
      <trkpt lat="43.83424" lon="3.64531">
        <ele>168.384827</ele>
        <time>2012-05-24 17:40:13Z</time>
      </trkpt>
      <trkpt lat="43.83423" lon="3.64535">
        <ele>166.135971</ele>
        <time>2012-05-24 17:40:17Z</time>
      </trkpt>
      <trkpt lat="43.8342" lon="3.64538">
        <ele>169.459381</ele>
        <time>2012-05-24 17:40:21Z</time>
      </trkpt>
      <trkpt lat="43.83419" lon="3.64542">
        <ele>170.811066</ele>
        <time>2012-05-24 17:40:25Z</time>
      </trkpt>
      <trkpt lat="43.83418" lon="3.64547">
        <ele>171.909012</ele>
        <time>2012-05-24 17:40:29Z</time>
      </trkpt>
      <trkpt lat="43.83416" lon="3.64552">
        <ele>175.889603</ele>
        <time>2012-05-24 17:40:33Z</time>
      </trkpt>
      <trkpt lat="43.83415" lon="3.64558">
        <ele>177.199051</ele>
        <time>2012-05-24 17:40:37Z</time>
      </trkpt>
      <trkpt lat="43.83414" lon="3.64564">
        <ele>174.941299</ele>
        <time>2012-05-24 17:40:41Z</time>
      </trkpt>
      <trkpt lat="43.83413" lon="3.64569">
        <ele>177.95993</ele>
        <time>2012-05-24 17:40:45Z</time>
      </trkpt>
      <trkpt lat="43.83413" lon="3.64573">
        <ele>179.715424</ele>
        <time>2012-05-24 17:40:49Z</time>
      </trkpt>
      <trkpt lat="43.83411" lon="3.64579">
        <ele>178.078461</ele>
        <time>2012-05-24 17:40:53Z</time>
      </trkpt>
      <trkpt lat="43.83411" lon="3.64585">
        <ele>173.338684</ele>
        <time>2012-05-24 17:40:57Z</time>
      </trkpt>
      <trkpt lat="43.83411" lon="3.6459">
        <ele>175.756729</ele>
        <time>2012-05-24 17:41:01Z</time>
      </trkpt>
      <trkpt lat="43.8341" lon="3.64591">
        <ele>177.557251</ele>
        <time>2012-05-24 17:41:05Z</time>
      </trkpt>
      <trkpt lat="43.8341" lon="3.64591">
        <ele>181.062057</ele>
        <time>2012-05-24 17:41:09Z</time>
      </trkpt>
      <trkpt lat="43.8341" lon="3.64593">
        <ele>178.737671</ele>
        <time>2012-05-24 17:41:13Z</time>
      </trkpt>
      <trkpt lat="43.8341" lon="3.64593">
        <ele>183.647903</ele>
        <time>2012-05-24 17:41:17Z</time>
      </trkpt>
      <trkpt lat="43.83405" lon="3.64568">
        <ele>178.614136</ele>
        <time>2012-05-24 17:42:09Z</time>
      </trkpt>
      <trkpt lat="43.83405" lon="3.64574">
        <ele>179.642059</ele>
        <time>2012-05-24 17:42:13Z</time>
      </trkpt>
      <trkpt lat="43.83407" lon="3.6458">
        <ele>176.830154</ele>
        <time>2012-05-24 17:42:17Z</time>
      </trkpt>
      <trkpt lat="43.83409" lon="3.64583">
        <ele>180.298157</ele>
        <time>2012-05-24 17:42:21Z</time>
      </trkpt>
      <trkpt lat="43.83412" lon="3.64591">
        <ele>179.864334</ele>
        <time>2012-05-24 17:42:25Z</time>
      </trkpt>
      <trkpt lat="43.83412" lon="3.64597">
        <ele>178.704102</ele>
        <time>2012-05-24 17:42:29Z</time>
      </trkpt>
      <trkpt lat="43.83413" lon="3.64603">
        <ele>176.612808</ele>
        <time>2012-05-24 17:42:33Z</time>
      </trkpt>
      <trkpt lat="43.83414" lon="3.64609">
        <ele>177.827881</ele>
        <time>2012-05-24 17:42:37Z</time>
      </trkpt>
      <trkpt lat="43.83414" lon="3.64614">
        <ele>178.573227</ele>
        <time>2012-05-24 17:42:41Z</time>
      </trkpt>
      <trkpt lat="43.83416" lon="3.64621">
        <ele>178.865814</ele>
        <time>2012-05-24 17:42:45Z</time>
      </trkpt>
      <trkpt lat="43.83419" lon="3.64627">
        <ele>181.233429</ele>
        <time>2012-05-24 17:42:49Z</time>
      </trkpt>
      <trkpt lat="43.8342" lon="3.64633">
        <ele>179.419998</ele>
        <time>2012-05-24 17:42:53Z</time>
      </trkpt>
      <trkpt lat="43.83419" lon="3.64639">
        <ele>177.938339</ele>
        <time>2012-05-24 17:42:57Z</time>
      </trkpt>
      <trkpt lat="43.83418" lon="3.64643">
        <ele>178.004196</ele>
        <time>2012-05-24 17:43:01Z</time>
      </trkpt>
      <trkpt lat="43.83418" lon="3.64647">
        <ele>177.088486</ele>
        <time>2012-05-24 17:43:05Z</time>
      </trkpt>
      <trkpt lat="43.83416" lon="3.64653">
        <ele>173.896347</ele>
        <time>2012-05-24 17:43:09Z</time>
      </trkpt>
      <trkpt lat="43.83415" lon="3.64659">
        <ele>171.826019</ele>
        <time>2012-05-24 17:43:13Z</time>
      </trkpt>
      <trkpt lat="43.83415" lon="3.64665">
        <ele>176.494263</ele>
        <time>2012-05-24 17:43:17Z</time>
      </trkpt>
      <trkpt lat="43.83414" lon="3.6467">
        <ele>176.06842</ele>
        <time>2012-05-24 17:43:21Z</time>
      </trkpt>
      <trkpt lat="43.83414" lon="3.6468">
        <ele>177.642517</ele>
        <time>2012-05-24 17:43:25Z</time>
      </trkpt>
      <trkpt lat="43.83413" lon="3.64686">
        <ele>179.386108</ele>
        <time>2012-05-24 17:43:29Z</time>
      </trkpt>
      <trkpt lat="43.83413" lon="3.64694">
        <ele>178.498077</ele>
        <time>2012-05-24 17:43:33Z</time>
      </trkpt>
      <trkpt lat="43.83413" lon="3.64697">
        <ele>179.459793</ele>
        <time>2012-05-24 17:43:37Z</time>
      </trkpt>
      <trkpt lat="43.83413" lon="3.64702">
        <ele>181.490036</ele>
        <time>2012-05-24 17:43:41Z</time>
      </trkpt>
      <trkpt lat="43.83412" lon="3.64707">
        <ele>179.023926</ele>
        <time>2012-05-24 17:43:45Z</time>
      </trkpt>
      <trkpt lat="43.83413" lon="3.64713">
        <ele>183.953262</ele>
        <time>2012-05-24 17:43:49Z</time>
      </trkpt>
      <trkpt lat="43.83413" lon="3.64719">
        <ele>180.287384</ele>
        <time>2012-05-24 17:43:53Z</time>
      </trkpt>
      <trkpt lat="43.8341" lon="3.64725">
        <ele>180.566788</ele>
        <time>2012-05-24 17:43:57Z</time>
      </trkpt>
      <trkpt lat="43.83409" lon="3.64731">
        <ele>183.098602</ele>
        <time>2012-05-24 17:44:01Z</time>
      </trkpt>
      <trkpt lat="43.83408" lon="3.64737">
        <ele>178.103149</ele>
        <time>2012-05-24 17:44:05Z</time>
      </trkpt>
      <trkpt lat="43.83408" lon="3.64743">
        <ele>179.169327</ele>
        <time>2012-05-24 17:44:09Z</time>
      </trkpt>
      <trkpt lat="43.83408" lon="3.64751">
        <ele>179.515778</ele>
        <time>2012-05-24 17:44:13Z</time>
      </trkpt>
      <trkpt lat="43.83408" lon="3.64758">
        <ele>178.498108</ele>
        <time>2012-05-24 17:44:17Z</time>
      </trkpt>
      <trkpt lat="43.83408" lon="3.64765">
        <ele>177.327789</ele>
        <time>2012-05-24 17:44:21Z</time>
      </trkpt>
      <trkpt lat="43.83409" lon="3.6477">
        <ele>180.029785</ele>
        <time>2012-05-24 17:44:25Z</time>
      </trkpt>
      <trkpt lat="43.83409" lon="3.6478">
        <ele>175.968521</ele>
        <time>2012-05-24 17:44:29Z</time>
      </trkpt>
      <trkpt lat="43.83407" lon="3.64789">
        <ele>174.254868</ele>
        <time>2012-05-24 17:44:33Z</time>
      </trkpt>
      <trkpt lat="43.83406" lon="3.64796">
        <ele>174.73761</ele>
        <time>2012-05-24 17:44:37Z</time>
      </trkpt>
      <trkpt lat="43.83403" lon="3.64801">
        <ele>179.035919</ele>
        <time>2012-05-24 17:44:41Z</time>
      </trkpt>
      <trkpt lat="43.83402" lon="3.64806">
        <ele>176.655289</ele>
        <time>2012-05-24 17:44:45Z</time>
      </trkpt>
      <trkpt lat="43.83403" lon="3.64814">
        <ele>177.087814</ele>
        <time>2012-05-24 17:44:49Z</time>
      </trkpt>
      <trkpt lat="43.83401" lon="3.64819">
        <ele>181.970093</ele>
        <time>2012-05-24 17:44:53Z</time>
      </trkpt>
      <trkpt lat="43.83399" lon="3.64825">
        <ele>180.534744</ele>
        <time>2012-05-24 17:44:57Z</time>
      </trkpt>
      <trkpt lat="43.83396" lon="3.64829">
        <ele>181.262085</ele>
        <time>2012-05-24 17:45:01Z</time>
      </trkpt>
      <trkpt lat="43.83396" lon="3.64837">
        <ele>181.960144</ele>
        <time>2012-05-24 17:45:05Z</time>
      </trkpt>
      <trkpt lat="43.83394" lon="3.64842">
        <ele>183.645859</ele>
        <time>2012-05-24 17:45:09Z</time>
      </trkpt>
      <trkpt lat="43.83394" lon="3.6485">
        <ele>182.355148</ele>
        <time>2012-05-24 17:45:13Z</time>
      </trkpt>
      <trkpt lat="43.83394" lon="3.64856">
        <ele>182.436661</ele>
        <time>2012-05-24 17:45:17Z</time>
      </trkpt>
      <trkpt lat="43.83393" lon="3.64862">
        <ele>181.776566</ele>
        <time>2012-05-24 17:45:21Z</time>
      </trkpt>
      <trkpt lat="43.83393" lon="3.64867">
        <ele>180.332413</ele>
        <time>2012-05-24 17:45:25Z</time>
      </trkpt>
      <trkpt lat="43.83392" lon="3.64878">
        <ele>176.162186</ele>
        <time>2012-05-24 17:45:29Z</time>
      </trkpt>
      <trkpt lat="43.83396" lon="3.6489">
        <ele>175.402237</ele>
        <time>2012-05-24 17:45:33Z</time>
      </trkpt>
      <trkpt lat="43.83398" lon="3.64895">
        <ele>175.03183</ele>
        <time>2012-05-24 17:45:37Z</time>
      </trkpt>
      <trkpt lat="43.834" lon="3.64902">
        <ele>178.492508</ele>
        <time>2012-05-24 17:45:41Z</time>
      </trkpt>
      <trkpt lat="43.834" lon="3.64907">
        <ele>175.581848</ele>
        <time>2012-05-24 17:45:45Z</time>
      </trkpt>
      <trkpt lat="43.83401" lon="3.64913">
        <ele>177.240997</ele>
        <time>2012-05-24 17:45:49Z</time>
      </trkpt>
      <trkpt lat="43.83402" lon="3.64918">
        <ele>176.190659</ele>
        <time>2012-05-24 17:45:53Z</time>
      </trkpt>
      <trkpt lat="43.83403" lon="3.64923">
        <ele>173.450806</ele>
        <time>2012-05-24 17:45:57Z</time>
      </trkpt>
      <trkpt lat="43.83404" lon="3.64928">
        <ele>172.847122</ele>
        <time>2012-05-24 17:46:01Z</time>
      </trkpt>
      <trkpt lat="43.83407" lon="3.64935">
        <ele>174.847946</ele>
        <time>2012-05-24 17:46:05Z</time>
      </trkpt>
      <trkpt lat="43.83409" lon="3.64943">
        <ele>171.768311</ele>
        <time>2012-05-24 17:46:09Z</time>
      </trkpt>
      <trkpt lat="43.83413" lon="3.64949">
        <ele>175.475235</ele>
        <time>2012-05-24 17:46:13Z</time>
      </trkpt>
      <trkpt lat="43.83416" lon="3.64955">
        <ele>176.260986</ele>
        <time>2012-05-24 17:46:17Z</time>
      </trkpt>
      <trkpt lat="43.83418" lon="3.64962">
        <ele>175.963943</ele>
        <time>2012-05-24 17:46:21Z</time>
      </trkpt>
      <trkpt lat="43.83418" lon="3.64969">
        <ele>175.746719</ele>
        <time>2012-05-24 17:46:25Z</time>
      </trkpt>
      <trkpt lat="43.83418" lon="3.64972">
        <ele>174.529648</ele>
        <time>2012-05-24 17:46:29Z</time>
      </trkpt>
      <trkpt lat="43.83417" lon="3.64978">
        <ele>168.471893</ele>
        <time>2012-05-24 17:46:33Z</time>
      </trkpt>
      <trkpt lat="43.83414" lon="3.64981">
        <ele>171.60289</ele>
        <time>2012-05-24 17:46:37Z</time>
      </trkpt>
      <trkpt lat="43.83413" lon="3.64988">
        <ele>169.868668</ele>
        <time>2012-05-24 17:46:41Z</time>
      </trkpt>
      <trkpt lat="43.83412" lon="3.64993">
        <ele>172.106995</ele>
        <time>2012-05-24 17:46:45Z</time>
      </trkpt>
      <trkpt lat="43.8341" lon="3.64998">
        <ele>172.106262</ele>
        <time>2012-05-24 17:46:49Z</time>
      </trkpt>
      <trkpt lat="43.8341" lon="3.65005">
        <ele>172.773941</ele>
        <time>2012-05-24 17:46:53Z</time>
      </trkpt>
      <trkpt lat="43.83408" lon="3.65009">
        <ele>175.938843</ele>
        <time>2012-05-24 17:46:57Z</time>
      </trkpt>
      <trkpt lat="43.83407" lon="3.65014">
        <ele>172.027435</ele>
        <time>2012-05-24 17:47:01Z</time>
      </trkpt>
      <trkpt lat="43.83407" lon="3.65021">
        <ele>169.649811</ele>
        <time>2012-05-24 17:47:05Z</time>
      </trkpt>
      <trkpt lat="43.83408" lon="3.65027">
        <ele>166.091049</ele>
        <time>2012-05-24 17:47:09Z</time>
      </trkpt>
      <trkpt lat="43.83408" lon="3.65032">
        <ele>168.407913</ele>
        <time>2012-05-24 17:47:13Z</time>
      </trkpt>
      <trkpt lat="43.83407" lon="3.65038">
        <ele>167.597717</ele>
        <time>2012-05-24 17:47:17Z</time>
      </trkpt>
      <trkpt lat="43.83408" lon="3.65045">
        <ele>163.182281</ele>
        <time>2012-05-24 17:47:21Z</time>
      </trkpt>
      <trkpt lat="43.8341" lon="3.65055">
        <ele>165.750992</ele>
        <time>2012-05-24 17:47:25Z</time>
      </trkpt>
      <trkpt lat="43.83411" lon="3.65067">
        <ele>169.462936</ele>
        <time>2012-05-24 17:47:29Z</time>
      </trkpt>
      <trkpt lat="43.83411" lon="3.65075">
        <ele>171.64566</ele>
        <time>2012-05-24 17:47:33Z</time>
      </trkpt>
      <trkpt lat="43.83414" lon="3.65081">
        <ele>171.902603</ele>
        <time>2012-05-24 17:47:37Z</time>
      </trkpt>
      <trkpt lat="43.83416" lon="3.65088">
        <ele>171.7724</ele>
        <time>2012-05-24 17:47:41Z</time>
      </trkpt>
      <trkpt lat="43.83418" lon="3.65095">
        <ele>171.882904</ele>
        <time>2012-05-24 17:47:45Z</time>
      </trkpt>
      <trkpt lat="43.83421" lon="3.65102">
        <ele>172.529907</ele>
        <time>2012-05-24 17:47:49Z</time>
      </trkpt>
      <trkpt lat="43.83421" lon="3.65108">
        <ele>176.7771</ele>
        <time>2012-05-24 17:47:53Z</time>
      </trkpt>
      <trkpt lat="43.83422" lon="3.65113">
        <ele>175.407761</ele>
        <time>2012-05-24 17:47:57Z</time>
      </trkpt>
      <trkpt lat="43.83424" lon="3.6512">
        <ele>175.214966</ele>
        <time>2012-05-24 17:48:01Z</time>
      </trkpt>
      <trkpt lat="43.83428" lon="3.65126">
        <ele>173.835434</ele>
        <time>2012-05-24 17:48:05Z</time>
      </trkpt>
      <trkpt lat="43.83432" lon="3.65133">
        <ele>173.774948</ele>
        <time>2012-05-24 17:48:09Z</time>
      </trkpt>
      <trkpt lat="43.83433" lon="3.6514">
        <ele>176.046738</ele>
        <time>2012-05-24 17:48:13Z</time>
      </trkpt>
      <trkpt lat="43.83436" lon="3.65147">
        <ele>170.224258</ele>
        <time>2012-05-24 17:48:17Z</time>
      </trkpt>
      <trkpt lat="43.83438" lon="3.65154">
        <ele>171.717682</ele>
        <time>2012-05-24 17:48:21Z</time>
      </trkpt>
      <trkpt lat="43.8344" lon="3.65159">
        <ele>174.40126</ele>
        <time>2012-05-24 17:48:25Z</time>
      </trkpt>
      <trkpt lat="43.83445" lon="3.65165">
        <ele>173.359833</ele>
        <time>2012-05-24 17:48:29Z</time>
      </trkpt>
      <trkpt lat="43.8345" lon="3.65172">
        <ele>178.060196</ele>
        <time>2012-05-24 17:48:33Z</time>
      </trkpt>
      <trkpt lat="43.83453" lon="3.65175">
        <ele>176.543991</ele>
        <time>2012-05-24 17:48:37Z</time>
      </trkpt>
      <trkpt lat="43.83458" lon="3.65179">
        <ele>177.834579</ele>
        <time>2012-05-24 17:48:41Z</time>
      </trkpt>
      <trkpt lat="43.83463" lon="3.65183">
        <ele>180.728729</ele>
        <time>2012-05-24 17:48:45Z</time>
      </trkpt>
      <trkpt lat="43.83468" lon="3.65186">
        <ele>177.474701</ele>
        <time>2012-05-24 17:48:49Z</time>
      </trkpt>
      <trkpt lat="43.83471" lon="3.65189">
        <ele>178.889297</ele>
        <time>2012-05-24 17:48:53Z</time>
      </trkpt>
      <trkpt lat="43.83475" lon="3.65191">
        <ele>178.153854</ele>
        <time>2012-05-24 17:48:57Z</time>
      </trkpt>
      <trkpt lat="43.8348" lon="3.65191">
        <ele>181.983047</ele>
        <time>2012-05-24 17:49:01Z</time>
      </trkpt>
      <trkpt lat="43.83482" lon="3.65192">
        <ele>177.15303</ele>
        <time>2012-05-24 17:49:05Z</time>
      </trkpt>
      <trkpt lat="43.83482" lon="3.65192">
        <ele>175.586823</ele>
        <time>2012-05-24 17:49:09Z</time>
      </trkpt>
      <trkpt lat="43.83485" lon="3.65191">
        <ele>176.984726</ele>
        <time>2012-05-24 17:49:13Z</time>
      </trkpt>
      <trkpt lat="43.83493" lon="3.65189">
        <ele>172.963226</ele>
        <time>2012-05-24 17:49:17Z</time>
      </trkpt>
      <trkpt lat="43.83497" lon="3.65188">
        <ele>179.761658</ele>
        <time>2012-05-24 17:49:21Z</time>
      </trkpt>
      <trkpt lat="43.83503" lon="3.65187">
        <ele>173.866714</ele>
        <time>2012-05-24 17:49:25Z</time>
      </trkpt>
      <trkpt lat="43.83505" lon="3.65188">
        <ele>175.821335</ele>
        <time>2012-05-24 17:49:29Z</time>
      </trkpt>
      <trkpt lat="43.83506" lon="3.65186">
        <ele>177.392227</ele>
        <time>2012-05-24 17:49:33Z</time>
      </trkpt>
      <trkpt lat="43.8351" lon="3.65189">
        <ele>173.878922</ele>
        <time>2012-05-24 17:49:37Z</time>
      </trkpt>
      <trkpt lat="43.83516" lon="3.65189">
        <ele>170.80394</ele>
        <time>2012-05-24 17:49:41Z</time>
      </trkpt>
      <trkpt lat="43.83525" lon="3.65187">
        <ele>175.639938</ele>
        <time>2012-05-24 17:49:45Z</time>
      </trkpt>
      <trkpt lat="43.83527" lon="3.65187">
        <ele>175.816254</ele>
        <time>2012-05-24 17:49:49Z</time>
      </trkpt>
      <trkpt lat="43.83534" lon="3.65187">
        <ele>170.00177</ele>
        <time>2012-05-24 17:49:53Z</time>
      </trkpt>
      <trkpt lat="43.83539" lon="3.65187">
        <ele>164.99379</ele>
        <time>2012-05-24 17:49:57Z</time>
      </trkpt>
      <trkpt lat="43.83544" lon="3.65189">
        <ele>163.784149</ele>
        <time>2012-05-24 17:50:01Z</time>
      </trkpt>
      <trkpt lat="43.83547" lon="3.6519">
        <ele>167.696854</ele>
        <time>2012-05-24 17:50:05Z</time>
      </trkpt>
      <trkpt lat="43.83551" lon="3.65191">
        <ele>167.228836</ele>
        <time>2012-05-24 17:50:09Z</time>
      </trkpt>
      <trkpt lat="43.83554" lon="3.65191">
        <ele>173.416855</ele>
        <time>2012-05-24 17:50:13Z</time>
      </trkpt>
      <trkpt lat="43.83559" lon="3.65193">
        <ele>172.697052</ele>
        <time>2012-05-24 17:50:17Z</time>
      </trkpt>
      <trkpt lat="43.83563" lon="3.65193">
        <ele>172.801346</ele>
        <time>2012-05-24 17:50:21Z</time>
      </trkpt>
      <trkpt lat="43.83569" lon="3.65195">
        <ele>163.836868</ele>
        <time>2012-05-24 17:50:25Z</time>
      </trkpt>
      <trkpt lat="43.83574" lon="3.65197">
        <ele>158.333725</ele>
        <time>2012-05-24 17:50:29Z</time>
      </trkpt>
      <trkpt lat="43.83578" lon="3.652">
        <ele>164.521881</ele>
        <time>2012-05-24 17:50:33Z</time>
      </trkpt>
      <trkpt lat="43.83584" lon="3.65203">
        <ele>163.786499</ele>
        <time>2012-05-24 17:50:37Z</time>
      </trkpt>
      <trkpt lat="43.83586" lon="3.65203">
        <ele>163.597748</ele>
        <time>2012-05-24 17:50:41Z</time>
      </trkpt>
      <trkpt lat="43.83586" lon="3.65203">
        <ele>169.086227</ele>
        <time>2012-05-24 17:50:45Z</time>
      </trkpt>
      <trkpt lat="43.83586" lon="3.65203">
        <ele>165.408249</ele>
        <time>2012-05-24 17:50:49Z</time>
      </trkpt>
      <trkpt lat="43.83593" lon="3.65203">
        <ele>164.030075</ele>
        <time>2012-05-24 17:50:53Z</time>
      </trkpt>
      <trkpt lat="43.83597" lon="3.65201">
        <ele>163.590973</ele>
        <time>2012-05-24 17:50:57Z</time>
      </trkpt>
      <trkpt lat="43.83602" lon="3.65199">
        <ele>157.753296</ele>
        <time>2012-05-24 17:51:01Z</time>
      </trkpt>
      <trkpt lat="43.83609" lon="3.65198">
        <ele>162.019714</ele>
        <time>2012-05-24 17:51:05Z</time>
      </trkpt>
      <trkpt lat="43.8362" lon="3.65199">
        <ele>160.557526</ele>
        <time>2012-05-24 17:51:09Z</time>
      </trkpt>
      <trkpt lat="43.83627" lon="3.65201">
        <ele>155.071823</ele>
        <time>2012-05-24 17:51:13Z</time>
      </trkpt>
      <trkpt lat="43.83627" lon="3.65201">
        <ele>156.538574</ele>
        <time>2012-05-24 17:51:17Z</time>
      </trkpt>
      <trkpt lat="43.83635" lon="3.65199">
        <ele>158.933365</ele>
        <time>2012-05-24 17:51:21Z</time>
      </trkpt>
      <trkpt lat="43.83635" lon="3.65199">
        <ele>159.293472</ele>
        <time>2012-05-24 17:51:25Z</time>
      </trkpt>
      <trkpt lat="43.83635" lon="3.65199">
        <ele>155.962799</ele>
        <time>2012-05-24 17:51:29Z</time>
      </trkpt>
      <trkpt lat="43.83661" lon="3.65205">
        <ele>154.701843</ele>
        <time>2012-05-24 17:51:33Z</time>
      </trkpt>
      <trkpt lat="43.83671" lon="3.65211">
        <ele>157.851105</ele>
        <time>2012-05-24 17:51:37Z</time>
      </trkpt>
      <trkpt lat="43.83675" lon="3.65215">
        <ele>157.233429</ele>
        <time>2012-05-24 17:51:41Z</time>
      </trkpt>
      <trkpt lat="43.83675" lon="3.65217">
        <ele>154.26976</ele>
        <time>2012-05-24 17:51:45Z</time>
      </trkpt>
      <trkpt lat="43.83678" lon="3.65219">
        <ele>148.508972</ele>
        <time>2012-05-24 17:51:49Z</time>
      </trkpt>
      <trkpt lat="43.83682" lon="3.6522">
        <ele>153.191422</ele>
        <time>2012-05-24 17:51:53Z</time>
      </trkpt>
      <trkpt lat="43.83699" lon="3.6522">
        <ele>157.378067</ele>
        <time>2012-05-24 17:51:57Z</time>
      </trkpt>
      <trkpt lat="43.83711" lon="3.65225">
        <ele>156.904404</ele>
        <time>2012-05-24 17:52:01Z</time>
      </trkpt>
      <trkpt lat="43.83713" lon="3.65225">
        <ele>155.050217</ele>
        <time>2012-05-24 17:52:05Z</time>
      </trkpt>
      <trkpt lat="43.83713" lon="3.65225">
        <ele>155.235992</ele>
        <time>2012-05-24 17:52:09Z</time>
      </trkpt>
      <trkpt lat="43.83717" lon="3.65226">
        <ele>157.279755</ele>
        <time>2012-05-24 17:52:13Z</time>
      </trkpt>
      <trkpt lat="43.83717" lon="3.65226">
        <ele>158.336411</ele>
        <time>2012-05-24 17:52:17Z</time>
      </trkpt>
      <trkpt lat="43.83728" lon="3.65228">
        <ele>154.082458</ele>
        <time>2012-05-24 17:52:21Z</time>
      </trkpt>
      <trkpt lat="43.8374" lon="3.65233">
        <ele>157.586411</ele>
        <time>2012-05-24 17:52:25Z</time>
      </trkpt>
      <trkpt lat="43.83746" lon="3.65236">
        <ele>150.020126</ele>
        <time>2012-05-24 17:52:29Z</time>
      </trkpt>
      <trkpt lat="43.83751" lon="3.65238">
        <ele>146.922897</ele>
        <time>2012-05-24 17:52:33Z</time>
      </trkpt>
      <trkpt lat="43.83756" lon="3.65239">
        <ele>145.58699</ele>
        <time>2012-05-24 17:52:37Z</time>
      </trkpt>
      <trkpt lat="43.83759" lon="3.65243">
        <ele>145.6922</ele>
        <time>2012-05-24 17:52:41Z</time>
      </trkpt>
      <trkpt lat="43.83763" lon="3.65243">
        <ele>144.257355</ele>
        <time>2012-05-24 17:52:45Z</time>
      </trkpt>
      <trkpt lat="43.83767" lon="3.65243">
        <ele>146.088547</ele>
        <time>2012-05-24 17:52:49Z</time>
      </trkpt>
      <trkpt lat="43.83772" lon="3.65244">
        <ele>146.657608</ele>
        <time>2012-05-24 17:52:53Z</time>
      </trkpt>
      <trkpt lat="43.83779" lon="3.65246">
        <ele>141.523727</ele>
        <time>2012-05-24 17:52:57Z</time>
      </trkpt>
      <trkpt lat="43.83784" lon="3.65249">
        <ele>142.073608</ele>
        <time>2012-05-24 17:53:01Z</time>
      </trkpt>
      <trkpt lat="43.83789" lon="3.65251">
        <ele>136.664627</ele>
        <time>2012-05-24 17:53:05Z</time>
      </trkpt>
      <trkpt lat="43.83794" lon="3.65254">
        <ele>139.862885</ele>
        <time>2012-05-24 17:53:09Z</time>
      </trkpt>
      <trkpt lat="43.83797" lon="3.65256">
        <ele>138.139786</ele>
        <time>2012-05-24 17:53:13Z</time>
      </trkpt>
      <trkpt lat="43.838" lon="3.65259">
        <ele>137.936462</ele>
        <time>2012-05-24 17:53:17Z</time>
      </trkpt>
      <trkpt lat="43.83804" lon="3.65261">
        <ele>143.330551</ele>
        <time>2012-05-24 17:53:21Z</time>
      </trkpt>
      <trkpt lat="43.83808" lon="3.65264">
        <ele>142.690109</ele>
        <time>2012-05-24 17:53:25Z</time>
      </trkpt>
      <trkpt lat="43.83811" lon="3.65266">
        <ele>136.814514</ele>
        <time>2012-05-24 17:53:29Z</time>
      </trkpt>
      <trkpt lat="43.83815" lon="3.65269">
        <ele>138.467926</ele>
        <time>2012-05-24 17:53:33Z</time>
      </trkpt>
      <trkpt lat="43.83817" lon="3.6527">
        <ele>130.746719</ele>
        <time>2012-05-24 17:53:37Z</time>
      </trkpt>
      <trkpt lat="43.83821" lon="3.65273">
        <ele>132.052307</ele>
        <time>2012-05-24 17:53:41Z</time>
      </trkpt>
      <trkpt lat="43.83826" lon="3.65275">
        <ele>131.43869</ele>
        <time>2012-05-24 17:53:45Z</time>
      </trkpt>
      <trkpt lat="43.83831" lon="3.65277">
        <ele>131.497757</ele>
        <time>2012-05-24 17:53:49Z</time>
      </trkpt>
      <trkpt lat="43.83834" lon="3.65283">
        <ele>132.637009</ele>
        <time>2012-05-24 17:53:53Z</time>
      </trkpt>
      <trkpt lat="43.83835" lon="3.6529">
        <ele>127.806595</ele>
        <time>2012-05-24 17:53:57Z</time>
      </trkpt>
      <trkpt lat="43.83836" lon="3.65296">
        <ele>133.199112</ele>
        <time>2012-05-24 17:54:01Z</time>
      </trkpt>
      <trkpt lat="43.83838" lon="3.65303">
        <ele>127.604126</ele>
        <time>2012-05-24 17:54:05Z</time>
      </trkpt>
      <trkpt lat="43.83839" lon="3.65309">
        <ele>126.753067</ele>
        <time>2012-05-24 17:54:09Z</time>
      </trkpt>
      <trkpt lat="43.83839" lon="3.65314">
        <ele>128.668747</ele>
        <time>2012-05-24 17:54:13Z</time>
      </trkpt>
      <trkpt lat="43.83836" lon="3.65317">
        <ele>128.801834</ele>
        <time>2012-05-24 17:54:17Z</time>
      </trkpt>
      <trkpt lat="43.83833" lon="3.65322">
        <ele>131.702682</ele>
        <time>2012-05-24 17:54:21Z</time>
      </trkpt>
      <trkpt lat="43.83829" lon="3.65324">
        <ele>129.717453</ele>
        <time>2012-05-24 17:54:25Z</time>
      </trkpt>
      <trkpt lat="43.83828" lon="3.65325">
        <ele>128.232361</ele>
        <time>2012-05-24 17:54:29Z</time>
      </trkpt>
      <trkpt lat="43.83821" lon="3.65342">
        <ele>142.959732</ele>
        <time>2012-05-24 17:59:25Z</time>
      </trkpt>
      <trkpt lat="43.83821" lon="3.65342">
        <ele>142.959732</ele>
        <time>2012-05-24 17:59:29Z</time>
      </trkpt>
      <trkpt lat="43.83822" lon="3.65346">
        <ele>139.3116</ele>
        <time>2012-05-24 17:59:33Z</time>
      </trkpt>
      <trkpt lat="43.83821" lon="3.6535">
        <ele>132.716187</ele>
        <time>2012-05-24 17:59:37Z</time>
      </trkpt>
      <trkpt lat="43.8382" lon="3.65353">
        <ele>132.871536</ele>
        <time>2012-05-24 17:59:41Z</time>
      </trkpt>
      <trkpt lat="43.83815" lon="3.65355">
        <ele>138.4505</ele>
        <time>2012-05-24 17:59:45Z</time>
      </trkpt>
      <trkpt lat="43.83813" lon="3.65357">
        <ele>131.347168</ele>
        <time>2012-05-24 17:59:49Z</time>
      </trkpt>
      <trkpt lat="43.8381" lon="3.65359">
        <ele>126.824707</ele>
        <time>2012-05-24 17:59:53Z</time>
      </trkpt>
      <trkpt lat="43.8381" lon="3.65359">
        <ele>134.744873</ele>
        <time>2012-05-24 17:59:57Z</time>
      </trkpt>
      <trkpt lat="43.83807" lon="3.65357">
        <ele>125.096329</ele>
        <time>2012-05-24 18:00:01Z</time>
      </trkpt>
      <trkpt lat="43.83804" lon="3.65361">
        <ele>130.676193</ele>
        <time>2012-05-24 18:00:05Z</time>
      </trkpt>
      <trkpt lat="43.838" lon="3.65368">
        <ele>129.652557</ele>
        <time>2012-05-24 18:00:09Z</time>
      </trkpt>
      <trkpt lat="43.83795" lon="3.6537">
        <ele>130.292542</ele>
        <time>2012-05-24 18:00:13Z</time>
      </trkpt>
      <trkpt lat="43.83789" lon="3.65369">
        <ele>131.197205</ele>
        <time>2012-05-24 18:00:17Z</time>
      </trkpt>
      <trkpt lat="43.83785" lon="3.65365">
        <ele>125.897873</ele>
        <time>2012-05-24 18:00:21Z</time>
      </trkpt>
      <trkpt lat="43.83783" lon="3.65359">
        <ele>127.871445</ele>
        <time>2012-05-24 18:00:25Z</time>
      </trkpt>
      <trkpt lat="43.83781" lon="3.65355">
        <ele>129.35199</ele>
        <time>2012-05-24 18:00:29Z</time>
      </trkpt>
      <trkpt lat="43.83777" lon="3.65352">
        <ele>122.958664</ele>
        <time>2012-05-24 18:00:33Z</time>
      </trkpt>
      <trkpt lat="43.83774" lon="3.65351">
        <ele>123.742981</ele>
        <time>2012-05-24 18:00:37Z</time>
      </trkpt>
      <trkpt lat="43.8377" lon="3.65349">
        <ele>128.534134</ele>
        <time>2012-05-24 18:00:41Z</time>
      </trkpt>
      <trkpt lat="43.83768" lon="3.65347">
        <ele>124.750244</ele>
        <time>2012-05-24 18:00:45Z</time>
      </trkpt>
      <trkpt lat="43.83762" lon="3.65344">
        <ele>122.114426</ele>
        <time>2012-05-24 18:00:49Z</time>
      </trkpt>
      <trkpt lat="43.83758" lon="3.65344">
        <ele>129.754745</ele>
        <time>2012-05-24 18:00:53Z</time>
      </trkpt>
      <trkpt lat="43.83753" lon="3.65343">
        <ele>124.619949</ele>
        <time>2012-05-24 18:00:57Z</time>
      </trkpt>
      <trkpt lat="43.83749" lon="3.65341">
        <ele>123.027115</ele>
        <time>2012-05-24 18:01:01Z</time>
      </trkpt>
      <trkpt lat="43.83743" lon="3.65341">
        <ele>124.964844</ele>
        <time>2012-05-24 18:01:05Z</time>
      </trkpt>
      <trkpt lat="43.83738" lon="3.65341">
        <ele>125.257416</ele>
        <time>2012-05-24 18:01:09Z</time>
      </trkpt>
      <trkpt lat="43.83735" lon="3.6534">
        <ele>123.11969</ele>
        <time>2012-05-24 18:01:13Z</time>
      </trkpt>
      <trkpt lat="43.83729" lon="3.6534">
        <ele>122.682755</ele>
        <time>2012-05-24 18:01:17Z</time>
      </trkpt>
      <trkpt lat="43.83725" lon="3.65339">
        <ele>123.57901</ele>
        <time>2012-05-24 18:01:21Z</time>
      </trkpt>
      <trkpt lat="43.8372" lon="3.65337">
        <ele>121.335861</ele>
        <time>2012-05-24 18:01:25Z</time>
      </trkpt>
      <trkpt lat="43.83715" lon="3.65335">
        <ele>122.375092</ele>
        <time>2012-05-24 18:01:29Z</time>
      </trkpt>
      <trkpt lat="43.8371" lon="3.65334">
        <ele>122.657944</ele>
        <time>2012-05-24 18:01:33Z</time>
      </trkpt>
      <trkpt lat="43.83705" lon="3.65334">
        <ele>121.625061</ele>
        <time>2012-05-24 18:01:37Z</time>
      </trkpt>
      <trkpt lat="43.83699" lon="3.65333">
        <ele>122.871521</ele>
        <time>2012-05-24 18:01:41Z</time>
      </trkpt>
      <trkpt lat="43.83695" lon="3.65332">
        <ele>125.145477</ele>
        <time>2012-05-24 18:01:45Z</time>
      </trkpt>
      <trkpt lat="43.8369" lon="3.65331">
        <ele>124.354233</ele>
        <time>2012-05-24 18:01:49Z</time>
      </trkpt>
      <trkpt lat="43.83684" lon="3.6533">
        <ele>130.955292</ele>
        <time>2012-05-24 18:01:53Z</time>
      </trkpt>
      <trkpt lat="43.8368" lon="3.65328">
        <ele>127.638153</ele>
        <time>2012-05-24 18:01:57Z</time>
      </trkpt>
      <trkpt lat="43.83675" lon="3.65326">
        <ele>120.804321</ele>
        <time>2012-05-24 18:02:01Z</time>
      </trkpt>
      <trkpt lat="43.83671" lon="3.65324">
        <ele>118.902145</ele>
        <time>2012-05-24 18:02:05Z</time>
      </trkpt>
      <trkpt lat="43.83663" lon="3.65321">
        <ele>129.751923</ele>
        <time>2012-05-24 18:02:09Z</time>
      </trkpt>
      <trkpt lat="43.83657" lon="3.65322">
        <ele>127.274506</ele>
        <time>2012-05-24 18:02:13Z</time>
      </trkpt>
      <trkpt lat="43.83651" lon="3.65322">
        <ele>127.846191</ele>
        <time>2012-05-24 18:02:17Z</time>
      </trkpt>
      <trkpt lat="43.83647" lon="3.65319">
        <ele>130.899277</ele>
        <time>2012-05-24 18:02:21Z</time>
      </trkpt>
      <trkpt lat="43.83642" lon="3.65318">
        <ele>132.421722</ele>
        <time>2012-05-24 18:02:25Z</time>
      </trkpt>
      <trkpt lat="43.83638" lon="3.65317">
        <ele>134.235611</ele>
        <time>2012-05-24 18:02:29Z</time>
      </trkpt>
      <trkpt lat="43.83634" lon="3.65315">
        <ele>133.658707</ele>
        <time>2012-05-24 18:02:33Z</time>
      </trkpt>
      <trkpt lat="43.8363" lon="3.65314">
        <ele>131.775925</ele>
        <time>2012-05-24 18:02:37Z</time>
      </trkpt>
      <trkpt lat="43.83626" lon="3.65313">
        <ele>128.389923</ele>
        <time>2012-05-24 18:02:41Z</time>
      </trkpt>
      <trkpt lat="43.83621" lon="3.65312">
        <ele>132.478485</ele>
        <time>2012-05-24 18:02:45Z</time>
      </trkpt>
      <trkpt lat="43.83617" lon="3.65311">
        <ele>133.872971</ele>
        <time>2012-05-24 18:02:49Z</time>
      </trkpt>
      <trkpt lat="43.83612" lon="3.65309">
        <ele>128.416946</ele>
        <time>2012-05-24 18:02:53Z</time>
      </trkpt>
      <trkpt lat="43.83609" lon="3.65308">
        <ele>131.043945</ele>
        <time>2012-05-24 18:02:57Z</time>
      </trkpt>
      <trkpt lat="43.83604" lon="3.65307">
        <ele>131.641891</ele>
        <time>2012-05-24 18:03:01Z</time>
      </trkpt>
      <trkpt lat="43.83598" lon="3.65306">
        <ele>130.620102</ele>
        <time>2012-05-24 18:03:05Z</time>
      </trkpt>
      <trkpt lat="43.83593" lon="3.65305">
        <ele>132.732376</ele>
        <time>2012-05-24 18:03:09Z</time>
      </trkpt>
      <trkpt lat="43.83589" lon="3.65304">
        <ele>136.440445</ele>
        <time>2012-05-24 18:03:13Z</time>
      </trkpt>
      <trkpt lat="43.83584" lon="3.65302">
        <ele>130.489502</ele>
        <time>2012-05-24 18:03:17Z</time>
      </trkpt>
      <trkpt lat="43.83581" lon="3.65302">
        <ele>128.25444</ele>
        <time>2012-05-24 18:03:21Z</time>
      </trkpt>
      <trkpt lat="43.83579" lon="3.65301">
        <ele>125.77449</ele>
        <time>2012-05-24 18:03:25Z</time>
      </trkpt>
      <trkpt lat="43.83575" lon="3.653">
        <ele>121.765701</ele>
        <time>2012-05-24 18:03:29Z</time>
      </trkpt>
      <trkpt lat="43.83571" lon="3.653">
        <ele>122.060684</ele>
        <time>2012-05-24 18:03:33Z</time>
      </trkpt>
      <trkpt lat="43.83568" lon="3.65298">
        <ele>122.895462</ele>
        <time>2012-05-24 18:03:37Z</time>
      </trkpt>
      <trkpt lat="43.83564" lon="3.65298">
        <ele>116.931808</ele>
        <time>2012-05-24 18:03:41Z</time>
      </trkpt>
      <trkpt lat="43.8356" lon="3.65297">
        <ele>115.51741</ele>
        <time>2012-05-24 18:03:45Z</time>
      </trkpt>
      <trkpt lat="43.83556" lon="3.65296">
        <ele>126.951279</ele>
        <time>2012-05-24 18:03:49Z</time>
      </trkpt>
      <trkpt lat="43.83553" lon="3.65296">
        <ele>124.915146</ele>
        <time>2012-05-24 18:03:53Z</time>
      </trkpt>
      <trkpt lat="43.83549" lon="3.65298">
        <ele>125.572495</ele>
        <time>2012-05-24 18:03:57Z</time>
      </trkpt>
      <trkpt lat="43.83542" lon="3.65298">
        <ele>120.089859</ele>
        <time>2012-05-24 18:04:01Z</time>
      </trkpt>
      <trkpt lat="43.83538" lon="3.65298">
        <ele>116.816849</ele>
        <time>2012-05-24 18:04:05Z</time>
      </trkpt>
      <trkpt lat="43.83534" lon="3.65296">
        <ele>111.842987</ele>
        <time>2012-05-24 18:04:09Z</time>
      </trkpt>
      <trkpt lat="43.83529" lon="3.65295">
        <ele>112.294815</ele>
        <time>2012-05-24 18:04:13Z</time>
      </trkpt>
      <trkpt lat="43.83526" lon="3.65296">
        <ele>103.369995</ele>
        <time>2012-05-24 18:04:17Z</time>
      </trkpt>
      <trkpt lat="43.83521" lon="3.65298">
        <ele>103.037308</ele>
        <time>2012-05-24 18:04:21Z</time>
      </trkpt>
      <trkpt lat="43.83518" lon="3.65299">
        <ele>104.047592</ele>
        <time>2012-05-24 18:04:25Z</time>
      </trkpt>
      <trkpt lat="43.83513" lon="3.65299">
        <ele>101.748764</ele>
        <time>2012-05-24 18:04:29Z</time>
      </trkpt>
      <trkpt lat="43.83509" lon="3.653">
        <ele>99.170883</ele>
        <time>2012-05-24 18:04:33Z</time>
      </trkpt>
      <trkpt lat="43.83505" lon="3.65301">
        <ele>101.288193</ele>
        <time>2012-05-24 18:04:37Z</time>
      </trkpt>
      <trkpt lat="43.83499" lon="3.65304">
        <ele>99.009567</ele>
        <time>2012-05-24 18:04:41Z</time>
      </trkpt>
      <trkpt lat="43.83496" lon="3.65305">
        <ele>89.170898</ele>
        <time>2012-05-24 18:04:45Z</time>
      </trkpt>
      <trkpt lat="43.83488" lon="3.65308">
        <ele>89.239746</ele>
        <time>2012-05-24 18:04:49Z</time>
      </trkpt>
      <trkpt lat="43.83481" lon="3.65311">
        <ele>90.046265</ele>
        <time>2012-05-24 18:04:53Z</time>
      </trkpt>
      <trkpt lat="43.83476" lon="3.65314">
        <ele>93.831772</ele>
        <time>2012-05-24 18:04:57Z</time>
      </trkpt>
      <trkpt lat="43.83471" lon="3.65316">
        <ele>97.009537</ele>
        <time>2012-05-24 18:05:01Z</time>
      </trkpt>
      <trkpt lat="43.83469" lon="3.65315">
        <ele>93.339294</ele>
        <time>2012-05-24 18:05:05Z</time>
      </trkpt>
      <trkpt lat="43.83463" lon="3.65317">
        <ele>98.307251</ele>
        <time>2012-05-24 18:05:09Z</time>
      </trkpt>
      <trkpt lat="43.83459" lon="3.65318">
        <ele>101.277649</ele>
        <time>2012-05-24 18:05:13Z</time>
      </trkpt>
      <trkpt lat="43.83454" lon="3.65318">
        <ele>98.781601</ele>
        <time>2012-05-24 18:05:17Z</time>
      </trkpt>
      <trkpt lat="43.83451" lon="3.65318">
        <ele>100.473831</ele>
        <time>2012-05-24 18:05:21Z</time>
      </trkpt>
      <trkpt lat="43.83447" lon="3.65321">
        <ele>95.294464</ele>
        <time>2012-05-24 18:05:25Z</time>
      </trkpt>
      <trkpt lat="43.83442" lon="3.65326">
        <ele>105.975143</ele>
        <time>2012-05-24 18:05:29Z</time>
      </trkpt>
      <trkpt lat="43.83437" lon="3.6533">
        <ele>105.914215</ele>
        <time>2012-05-24 18:05:33Z</time>
      </trkpt>
      <trkpt lat="43.83433" lon="3.65335">
        <ele>108.546448</ele>
        <time>2012-05-24 18:05:37Z</time>
      </trkpt>
      <trkpt lat="43.83427" lon="3.65343">
        <ele>112.615601</ele>
        <time>2012-05-24 18:05:41Z</time>
      </trkpt>
      <trkpt lat="43.83424" lon="3.65346">
        <ele>111.794586</ele>
        <time>2012-05-24 18:05:45Z</time>
      </trkpt>
      <trkpt lat="43.83418" lon="3.65349">
        <ele>117.664795</ele>
        <time>2012-05-24 18:05:49Z</time>
      </trkpt>
      <trkpt lat="43.83414" lon="3.65353">
        <ele>115.608887</ele>
        <time>2012-05-24 18:05:53Z</time>
      </trkpt>
      <trkpt lat="43.83408" lon="3.65358">
        <ele>116.573669</ele>
        <time>2012-05-24 18:05:57Z</time>
      </trkpt>
      <trkpt lat="43.83402" lon="3.65359">
        <ele>120.385345</ele>
        <time>2012-05-24 18:06:01Z</time>
      </trkpt>
      <trkpt lat="43.83396" lon="3.65361">
        <ele>122.292435</ele>
        <time>2012-05-24 18:06:05Z</time>
      </trkpt>
      <trkpt lat="43.83393" lon="3.65364">
        <ele>128.753723</ele>
        <time>2012-05-24 18:06:09Z</time>
      </trkpt>
      <trkpt lat="43.83389" lon="3.65369">
        <ele>128.677353</ele>
        <time>2012-05-24 18:06:13Z</time>
      </trkpt>
      <trkpt lat="43.83386" lon="3.65372">
        <ele>128.015182</ele>
        <time>2012-05-24 18:06:17Z</time>
      </trkpt>
      <trkpt lat="43.83382" lon="3.65377">
        <ele>128.505051</ele>
        <time>2012-05-24 18:06:21Z</time>
      </trkpt>
      <trkpt lat="43.83377" lon="3.6538">
        <ele>125.964447</ele>
        <time>2012-05-24 18:06:25Z</time>
      </trkpt>
      <trkpt lat="43.8337" lon="3.65383">
        <ele>127.753616</ele>
        <time>2012-05-24 18:06:29Z</time>
      </trkpt>
      <trkpt lat="43.83367" lon="3.65384">
        <ele>126.338196</ele>
        <time>2012-05-24 18:06:33Z</time>
      </trkpt>
      <trkpt lat="43.83363" lon="3.65383">
        <ele>123.260132</ele>
        <time>2012-05-24 18:06:37Z</time>
      </trkpt>
      <trkpt lat="43.8336" lon="3.65384">
        <ele>122.211624</ele>
        <time>2012-05-24 18:06:41Z</time>
      </trkpt>
      <trkpt lat="43.83357" lon="3.65385">
        <ele>121.707687</ele>
        <time>2012-05-24 18:06:45Z</time>
      </trkpt>
      <trkpt lat="43.83353" lon="3.65385">
        <ele>122.403015</ele>
        <time>2012-05-24 18:06:49Z</time>
      </trkpt>
      <trkpt lat="43.83346" lon="3.65387">
        <ele>122.899612</ele>
        <time>2012-05-24 18:06:53Z</time>
      </trkpt>
      <trkpt lat="43.8334" lon="3.65388">
        <ele>121.128006</ele>
        <time>2012-05-24 18:06:57Z</time>
      </trkpt>
      <trkpt lat="43.83336" lon="3.65388">
        <ele>114.191818</ele>
        <time>2012-05-24 18:07:01Z</time>
      </trkpt>
      <trkpt lat="43.8333" lon="3.65388">
        <ele>106.835251</ele>
        <time>2012-05-24 18:07:05Z</time>
      </trkpt>
      <trkpt lat="43.83326" lon="3.65386">
        <ele>109.773056</ele>
        <time>2012-05-24 18:07:09Z</time>
      </trkpt>
      <trkpt lat="43.83322" lon="3.65384">
        <ele>113.544495</ele>
        <time>2012-05-24 18:07:13Z</time>
      </trkpt>
      <trkpt lat="43.83317" lon="3.6538">
        <ele>113.802414</ele>
        <time>2012-05-24 18:07:17Z</time>
      </trkpt>
      <trkpt lat="43.83313" lon="3.65376">
        <ele>119.169586</ele>
        <time>2012-05-24 18:07:21Z</time>
      </trkpt>
      <trkpt lat="43.83311" lon="3.65372">
        <ele>109.685898</ele>
        <time>2012-05-24 18:07:25Z</time>
      </trkpt>
      <trkpt lat="43.83307" lon="3.65367">
        <ele>117.27121</ele>
        <time>2012-05-24 18:07:29Z</time>
      </trkpt>
      <trkpt lat="43.83305" lon="3.65362">
        <ele>115.456894</ele>
        <time>2012-05-24 18:07:33Z</time>
      </trkpt>
      <trkpt lat="43.83304" lon="3.6536">
        <ele>118.348328</ele>
        <time>2012-05-24 18:07:37Z</time>
      </trkpt>
      <trkpt lat="43.83299" lon="3.65353">
        <ele>123.715164</ele>
        <time>2012-05-24 18:07:41Z</time>
      </trkpt>
      <trkpt lat="43.83296" lon="3.65348">
        <ele>127.814377</ele>
        <time>2012-05-24 18:07:45Z</time>
      </trkpt>
      <trkpt lat="43.83297" lon="3.65344">
        <ele>128.014999</ele>
        <time>2012-05-24 18:07:49Z</time>
      </trkpt>
      <trkpt lat="43.83298" lon="3.65341">
        <ele>124.445374</ele>
        <time>2012-05-24 18:07:53Z</time>
      </trkpt>
      <trkpt lat="43.83298" lon="3.65329">
        <ele>117.531784</ele>
        <time>2012-05-24 18:07:57Z</time>
      </trkpt>
      <trkpt lat="43.83297" lon="3.65324">
        <ele>124.524338</ele>
        <time>2012-05-24 18:08:01Z</time>
      </trkpt>
      <trkpt lat="43.83296" lon="3.65318">
        <ele>129.606674</ele>
        <time>2012-05-24 18:08:05Z</time>
      </trkpt>
      <trkpt lat="43.83299" lon="3.6531">
        <ele>122.596893</ele>
        <time>2012-05-24 18:08:09Z</time>
      </trkpt>
      <trkpt lat="43.83297" lon="3.65301">
        <ele>120.010406</ele>
        <time>2012-05-24 18:08:13Z</time>
      </trkpt>
      <trkpt lat="43.83297" lon="3.65294">
        <ele>122.791519</ele>
        <time>2012-05-24 18:08:17Z</time>
      </trkpt>
      <trkpt lat="43.83292" lon="3.65285">
        <ele>127.83316</ele>
        <time>2012-05-24 18:08:21Z</time>
      </trkpt>
      <trkpt lat="43.83291" lon="3.6528">
        <ele>132.756638</ele>
        <time>2012-05-24 18:08:25Z</time>
      </trkpt>
      <trkpt lat="43.83291" lon="3.65274">
        <ele>125.288834</ele>
        <time>2012-05-24 18:08:29Z</time>
      </trkpt>
      <trkpt lat="43.83295" lon="3.65269">
        <ele>126.756668</ele>
        <time>2012-05-24 18:08:33Z</time>
      </trkpt>
      <trkpt lat="43.83297" lon="3.65261">
        <ele>130.749252</ele>
        <time>2012-05-24 18:08:37Z</time>
      </trkpt>
      <trkpt lat="43.83295" lon="3.65252">
        <ele>129.250336</ele>
        <time>2012-05-24 18:08:41Z</time>
      </trkpt>
      <trkpt lat="43.83296" lon="3.65246">
        <ele>133.183197</ele>
        <time>2012-05-24 18:08:45Z</time>
      </trkpt>
      <trkpt lat="43.83297" lon="3.65239">
        <ele>135.58046</ele>
        <time>2012-05-24 18:08:49Z</time>
      </trkpt>
      <trkpt lat="43.83299" lon="3.65228">
        <ele>133.656509</ele>
        <time>2012-05-24 18:08:53Z</time>
      </trkpt>
      <trkpt lat="43.83299" lon="3.65217">
        <ele>133.569305</ele>
        <time>2012-05-24 18:08:57Z</time>
      </trkpt>
      <trkpt lat="43.83299" lon="3.65211">
        <ele>132.091873</ele>
        <time>2012-05-24 18:09:01Z</time>
      </trkpt>
      <trkpt lat="43.833" lon="3.65206">
        <ele>135.202606</ele>
        <time>2012-05-24 18:09:05Z</time>
      </trkpt>
      <trkpt lat="43.83297" lon="3.65196">
        <ele>131.834335</ele>
        <time>2012-05-24 18:09:09Z</time>
      </trkpt>
      <trkpt lat="43.83296" lon="3.65189">
        <ele>129.779678</ele>
        <time>2012-05-24 18:09:13Z</time>
      </trkpt>
      <trkpt lat="43.83295" lon="3.65183">
        <ele>130.038391</ele>
        <time>2012-05-24 18:09:17Z</time>
      </trkpt>
      <trkpt lat="43.83296" lon="3.65175">
        <ele>129.95752</ele>
        <time>2012-05-24 18:09:21Z</time>
      </trkpt>
      <trkpt lat="43.83297" lon="3.65169">
        <ele>128.329605</ele>
        <time>2012-05-24 18:09:25Z</time>
      </trkpt>
      <trkpt lat="43.83299" lon="3.65169">
        <ele>131.715057</ele>
        <time>2012-05-24 18:09:29Z</time>
      </trkpt>
      <trkpt lat="43.83299" lon="3.65169">
        <ele>136.494385</ele>
        <time>2012-05-24 18:09:33Z</time>
      </trkpt>
      <trkpt lat="43.83299" lon="3.65169">
        <ele>134.228577</ele>
        <time>2012-05-24 18:09:37Z</time>
      </trkpt>
      <trkpt lat="43.83299" lon="3.65169">
        <ele>134.820145</ele>
        <time>2012-05-24 18:09:41Z</time>
      </trkpt>
      <trkpt lat="43.83304" lon="3.65172">
        <ele>139.496674</ele>
        <time>2012-05-24 18:09:45Z</time>
      </trkpt>
      <trkpt lat="43.83304" lon="3.65172">
        <ele>139.979233</ele>
        <time>2012-05-24 18:09:49Z</time>
      </trkpt>
      <trkpt lat="43.83304" lon="3.65172">
        <ele>138.719864</ele>
        <time>2012-05-24 18:09:53Z</time>
      </trkpt>
      <trkpt lat="43.83306" lon="3.65167">
        <ele>132.281738</ele>
        <time>2012-05-24 18:09:57Z</time>
      </trkpt>
      <trkpt lat="43.83307" lon="3.6517">
        <ele>127.34584</ele>
        <time>2012-05-24 18:10:01Z</time>
      </trkpt>
      <trkpt lat="43.83308" lon="3.65171">
        <ele>128.39299</ele>
        <time>2012-05-24 18:10:05Z</time>
      </trkpt>
      <trkpt lat="43.83308" lon="3.65171">
        <ele>136.961777</ele>
        <time>2012-05-24 18:10:09Z</time>
      </trkpt>
      <trkpt lat="43.83308" lon="3.65171">
        <ele>136.376877</ele>
        <time>2012-05-24 18:10:14Z</time>
      </trkpt>
      <trkpt lat="43.83308" lon="3.65171">
        <ele>132.894699</ele>
        <time>2012-05-24 18:10:17Z</time>
      </trkpt>
      <trkpt lat="43.8331" lon="3.65171">
        <ele>130.727722</ele>
        <time>2012-05-24 18:10:21Z</time>
      </trkpt>
      <trkpt lat="43.83308" lon="3.65169">
        <ele>123.282318</ele>
        <time>2012-05-24 18:10:25Z</time>
      </trkpt>
      <trkpt lat="43.83304" lon="3.65167">
        <ele>126.93103</ele>
        <time>2012-05-24 18:10:29Z</time>
      </trkpt>
      <trkpt lat="43.83302" lon="3.65164">
        <ele>132.36351</ele>
        <time>2012-05-24 18:10:33Z</time>
      </trkpt>
      <trkpt lat="43.83299" lon="3.6516">
        <ele>134.730377</ele>
        <time>2012-05-24 18:10:37Z</time>
      </trkpt>
      <trkpt lat="43.83296" lon="3.65163">
        <ele>136.721359</ele>
        <time>2012-05-24 18:11:05Z</time>
      </trkpt>
      <trkpt lat="43.83296" lon="3.65165">
        <ele>138.531723</ele>
        <time>2012-05-24 18:11:09Z</time>
      </trkpt>
      <trkpt lat="43.83298" lon="3.6516">
        <ele>132.111176</ele>
        <time>2012-05-24 18:11:13Z</time>
      </trkpt>
      <trkpt lat="43.83299" lon="3.65157">
        <ele>138.152664</ele>
        <time>2012-05-24 18:11:17Z</time>
      </trkpt>
      <trkpt lat="43.83298" lon="3.65157">
        <ele>131.644638</ele>
        <time>2012-05-24 18:11:21Z</time>
      </trkpt>
      <trkpt lat="43.83297" lon="3.65153">
        <ele>134.15358</ele>
        <time>2012-05-24 18:11:25Z</time>
      </trkpt>
      <trkpt lat="43.83296" lon="3.65147">
        <ele>137.338806</ele>
        <time>2012-05-24 18:11:29Z</time>
      </trkpt>
      <trkpt lat="43.83294" lon="3.65139">
        <ele>138.552429</ele>
        <time>2012-05-24 18:11:33Z</time>
      </trkpt>
      <trkpt lat="43.83294" lon="3.65132">
        <ele>138.76535</ele>
        <time>2012-05-24 18:11:37Z</time>
      </trkpt>
      <trkpt lat="43.83294" lon="3.65132">
        <ele>134.267029</ele>
        <time>2012-05-24 18:11:41Z</time>
      </trkpt>
      <trkpt lat="43.83296" lon="3.65127">
        <ele>136.63533</ele>
        <time>2012-05-24 18:11:45Z</time>
      </trkpt>
      <trkpt lat="43.83295" lon="3.65124">
        <ele>132.451401</ele>
        <time>2012-05-24 18:11:49Z</time>
      </trkpt>
      <trkpt lat="43.83292" lon="3.65121">
        <ele>135.888596</ele>
        <time>2012-05-24 18:11:53Z</time>
      </trkpt>
      <trkpt lat="43.83288" lon="3.65115">
        <ele>131.12027</ele>
        <time>2012-05-24 18:11:57Z</time>
      </trkpt>
      <trkpt lat="43.83287" lon="3.6511">
        <ele>136.968262</ele>
        <time>2012-05-24 18:12:01Z</time>
      </trkpt>
      <trkpt lat="43.83286" lon="3.65104">
        <ele>131.152725</ele>
        <time>2012-05-24 18:12:05Z</time>
      </trkpt>
      <trkpt lat="43.83286" lon="3.65101">
        <ele>130.647766</ele>
        <time>2012-05-24 18:12:09Z</time>
      </trkpt>
      <trkpt lat="43.83286" lon="3.65094">
        <ele>127.928772</ele>
        <time>2012-05-24 18:12:13Z</time>
      </trkpt>
      <trkpt lat="43.83286" lon="3.65089">
        <ele>125.576904</ele>
        <time>2012-05-24 18:12:17Z</time>
      </trkpt>
      <trkpt lat="43.83284" lon="3.6508">
        <ele>121.979736</ele>
        <time>2012-05-24 18:12:21Z</time>
      </trkpt>
      <trkpt lat="43.83282" lon="3.65074">
        <ele>116.116776</ele>
        <time>2012-05-24 18:12:25Z</time>
      </trkpt>
      <trkpt lat="43.83281" lon="3.65069">
        <ele>117.7043</ele>
        <time>2012-05-24 18:12:29Z</time>
      </trkpt>
      <trkpt lat="43.8328" lon="3.65065">
        <ele>121.679733</ele>
        <time>2012-05-24 18:12:33Z</time>
      </trkpt>
      <trkpt lat="43.83278" lon="3.65059">
        <ele>113.601242</ele>
        <time>2012-05-24 18:12:37Z</time>
      </trkpt>
      <trkpt lat="43.83275" lon="3.65052">
        <ele>119.802948</ele>
        <time>2012-05-24 18:12:41Z</time>
      </trkpt>
      <trkpt lat="43.83271" lon="3.65046">
        <ele>128.21608</ele>
        <time>2012-05-24 18:12:45Z</time>
      </trkpt>
      <trkpt lat="43.83265" lon="3.6504">
        <ele>125.472885</ele>
        <time>2012-05-24 18:12:49Z</time>
      </trkpt>
      <trkpt lat="43.83264" lon="3.65034">
        <ele>114.938782</ele>
        <time>2012-05-24 18:12:53Z</time>
      </trkpt>
      <trkpt lat="43.83264" lon="3.65034">
        <ele>117.006332</ele>
        <time>2012-05-24 18:12:57Z</time>
      </trkpt>
      <trkpt lat="43.83262" lon="3.65027">
        <ele>110.876526</ele>
        <time>2012-05-24 18:13:01Z</time>
      </trkpt>
      <trkpt lat="43.83264" lon="3.65022">
        <ele>117.905716</ele>
        <time>2012-05-24 18:13:05Z</time>
      </trkpt>
      <trkpt lat="43.83264" lon="3.65022">
        <ele>117.389938</ele>
        <time>2012-05-24 18:13:09Z</time>
      </trkpt>
      <trkpt lat="43.83263" lon="3.65015">
        <ele>116.727066</ele>
        <time>2012-05-24 18:13:13Z</time>
      </trkpt>
      <trkpt lat="43.8326" lon="3.65012">
        <ele>125.218262</ele>
        <time>2012-05-24 18:13:17Z</time>
      </trkpt>
      <trkpt lat="43.83258" lon="3.65002">
        <ele>128.464111</ele>
        <time>2012-05-24 18:13:21Z</time>
      </trkpt>
      <trkpt lat="43.83259" lon="3.64996">
        <ele>135.106049</ele>
        <time>2012-05-24 18:13:25Z</time>
      </trkpt>
      <trkpt lat="43.8326" lon="3.64989">
        <ele>134.029938</ele>
        <time>2012-05-24 18:13:29Z</time>
      </trkpt>
      <trkpt lat="43.83258" lon="3.64983">
        <ele>134.774796</ele>
        <time>2012-05-24 18:13:33Z</time>
      </trkpt>
      <trkpt lat="43.83261" lon="3.64974">
        <ele>131.772522</ele>
        <time>2012-05-24 18:13:37Z</time>
      </trkpt>
      <trkpt lat="43.8326" lon="3.64964">
        <ele>134.155762</ele>
        <time>2012-05-24 18:13:41Z</time>
      </trkpt>
      <trkpt lat="43.83258" lon="3.64956">
        <ele>135.261337</ele>
        <time>2012-05-24 18:13:45Z</time>
      </trkpt>
      <trkpt lat="43.83256" lon="3.64949">
        <ele>132.101288</ele>
        <time>2012-05-24 18:13:49Z</time>
      </trkpt>
      <trkpt lat="43.83256" lon="3.64943">
        <ele>138.241638</ele>
        <time>2012-05-24 18:13:53Z</time>
      </trkpt>
      <trkpt lat="43.83255" lon="3.64936">
        <ele>135.325836</ele>
        <time>2012-05-24 18:13:57Z</time>
      </trkpt>
      <trkpt lat="43.83255" lon="3.64932">
        <ele>135.679596</ele>
        <time>2012-05-24 18:14:01Z</time>
      </trkpt>
      <trkpt lat="43.83258" lon="3.64922">
        <ele>132.678482</ele>
        <time>2012-05-24 18:14:05Z</time>
      </trkpt>
      <trkpt lat="43.83262" lon="3.64917">
        <ele>127.765793</ele>
        <time>2012-05-24 18:14:09Z</time>
      </trkpt>
      <trkpt lat="43.83262" lon="3.64915">
        <ele>131.63623</ele>
        <time>2012-05-24 18:14:13Z</time>
      </trkpt>
      <trkpt lat="43.83261" lon="3.64903">
        <ele>130.545624</ele>
        <time>2012-05-24 18:14:17Z</time>
      </trkpt>
      <trkpt lat="43.83261" lon="3.64903">
        <ele>130.777878</ele>
        <time>2012-05-24 18:14:21Z</time>
      </trkpt>
      <trkpt lat="43.83266" lon="3.6489">
        <ele>130.991714</ele>
        <time>2012-05-24 18:14:25Z</time>
      </trkpt>
      <trkpt lat="43.83271" lon="3.64885">
        <ele>130.204453</ele>
        <time>2012-05-24 18:14:29Z</time>
      </trkpt>
      <trkpt lat="43.83274" lon="3.6488">
        <ele>137.188248</ele>
        <time>2012-05-24 18:14:33Z</time>
      </trkpt>
      <trkpt lat="43.83275" lon="3.64873">
        <ele>133.927139</ele>
        <time>2012-05-24 18:14:37Z</time>
      </trkpt>
      <trkpt lat="43.83275" lon="3.64872">
        <ele>133.294968</ele>
        <time>2012-05-24 18:14:41Z</time>
      </trkpt>
      <trkpt lat="43.83275" lon="3.64872">
        <ele>135.038956</ele>
        <time>2012-05-24 18:14:45Z</time>
      </trkpt>
      <trkpt lat="43.83276" lon="3.6487">
        <ele>130.558441</ele>
        <time>2012-05-24 18:14:49Z</time>
      </trkpt>
      <trkpt lat="43.83276" lon="3.6487">
        <ele>137.385864</ele>
        <time>2012-05-24 18:14:53Z</time>
      </trkpt>
      <trkpt lat="43.83276" lon="3.6487">
        <ele>148.059418</ele>
        <time>2012-05-24 18:14:57Z</time>
      </trkpt>
      <trkpt lat="43.83278" lon="3.64869">
        <ele>155.976242</ele>
        <time>2012-05-24 18:15:01Z</time>
      </trkpt>
      <trkpt lat="43.83278" lon="3.64869">
        <ele>146.473862</ele>
        <time>2012-05-24 18:15:05Z</time>
      </trkpt>
      <trkpt lat="43.83278" lon="3.64869">
        <ele>145.749451</ele>
        <time>2012-05-24 18:15:09Z</time>
      </trkpt>
      <trkpt lat="43.83278" lon="3.64869">
        <ele>141.631439</ele>
        <time>2012-05-24 18:15:13Z</time>
      </trkpt>
      <trkpt lat="43.83278" lon="3.64869">
        <ele>140.228867</ele>
        <time>2012-05-24 18:15:17Z</time>
      </trkpt>
      <trkpt lat="43.83277" lon="3.6487">
        <ele>142.686768</ele>
        <time>2012-05-24 18:15:21Z</time>
      </trkpt>
      <trkpt lat="43.83276" lon="3.64871">
        <ele>142.304153</ele>
        <time>2012-05-24 18:15:25Z</time>
      </trkpt>
      <trkpt lat="43.83274" lon="3.64872">
        <ele>138.626846</ele>
        <time>2012-05-24 18:15:29Z</time>
      </trkpt>
      <trkpt lat="43.83272" lon="3.64871">
        <ele>139.728821</ele>
        <time>2012-05-24 18:15:33Z</time>
      </trkpt>
      <trkpt lat="43.83269" lon="3.64872">
        <ele>134.777481</ele>
        <time>2012-05-24 18:15:37Z</time>
      </trkpt>
      <trkpt lat="43.83268" lon="3.64865">
        <ele>137.188065</ele>
        <time>2012-05-24 18:15:41Z</time>
      </trkpt>
      <trkpt lat="43.8327" lon="3.64858">
        <ele>131.610947</ele>
        <time>2012-05-24 18:15:45Z</time>
      </trkpt>
      <trkpt lat="43.83273" lon="3.64855">
        <ele>131.092178</ele>
        <time>2012-05-24 18:15:49Z</time>
      </trkpt>
      <trkpt lat="43.83276" lon="3.64848">
        <ele>127.48941</ele>
        <time>2012-05-24 18:15:53Z</time>
      </trkpt>
      <trkpt lat="43.83278" lon="3.64843">
        <ele>131.672592</ele>
        <time>2012-05-24 18:15:57Z</time>
      </trkpt>
      <trkpt lat="43.83282" lon="3.64838">
        <ele>132.964874</ele>
        <time>2012-05-24 18:16:01Z</time>
      </trkpt>
      <trkpt lat="43.83284" lon="3.64835">
        <ele>132.388153</ele>
        <time>2012-05-24 18:16:05Z</time>
      </trkpt>
      <trkpt lat="43.83286" lon="3.64828">
        <ele>128.663086</ele>
        <time>2012-05-24 18:16:09Z</time>
      </trkpt>
      <trkpt lat="43.83288" lon="3.64821">
        <ele>132.295013</ele>
        <time>2012-05-24 18:16:13Z</time>
      </trkpt>
      <trkpt lat="43.8329" lon="3.64814">
        <ele>137.309448</ele>
        <time>2012-05-24 18:16:17Z</time>
      </trkpt>
      <trkpt lat="43.8329" lon="3.6481">
        <ele>136.773987</ele>
        <time>2012-05-24 18:16:21Z</time>
      </trkpt>
      <trkpt lat="43.83292" lon="3.64806">
        <ele>145.992676</ele>
        <time>2012-05-24 18:16:25Z</time>
      </trkpt>
      <trkpt lat="43.83295" lon="3.64798">
        <ele>135.981567</ele>
        <time>2012-05-24 18:16:29Z</time>
      </trkpt>
      <trkpt lat="43.83299" lon="3.64793">
        <ele>141.114334</ele>
        <time>2012-05-24 18:16:33Z</time>
      </trkpt>
      <trkpt lat="43.83302" lon="3.64786">
        <ele>139.343216</ele>
        <time>2012-05-24 18:16:37Z</time>
      </trkpt>
      <trkpt lat="43.83305" lon="3.6478">
        <ele>134.870789</ele>
        <time>2012-05-24 18:16:41Z</time>
      </trkpt>
      <trkpt lat="43.83304" lon="3.64774">
        <ele>135.097198</ele>
        <time>2012-05-24 18:16:45Z</time>
      </trkpt>
      <trkpt lat="43.83305" lon="3.64766">
        <ele>139.049698</ele>
        <time>2012-05-24 18:16:49Z</time>
      </trkpt>
      <trkpt lat="43.83307" lon="3.64758">
        <ele>130.032471</ele>
        <time>2012-05-24 18:16:53Z</time>
      </trkpt>
      <trkpt lat="43.83308" lon="3.64752">
        <ele>134.015015</ele>
        <time>2012-05-24 18:16:57Z</time>
      </trkpt>
      <trkpt lat="43.8331" lon="3.64741">
        <ele>135.239975</ele>
        <time>2012-05-24 18:17:01Z</time>
      </trkpt>
      <trkpt lat="43.8331" lon="3.64734">
        <ele>132.073151</ele>
        <time>2012-05-24 18:17:05Z</time>
      </trkpt>
      <trkpt lat="43.83308" lon="3.64728">
        <ele>135.661469</ele>
        <time>2012-05-24 18:17:09Z</time>
      </trkpt>
      <trkpt lat="43.83304" lon="3.64719">
        <ele>131.541794</ele>
        <time>2012-05-24 18:17:13Z</time>
      </trkpt>
      <trkpt lat="43.83304" lon="3.64712">
        <ele>134.78688</ele>
        <time>2012-05-24 18:17:17Z</time>
      </trkpt>
      <trkpt lat="43.83304" lon="3.64706">
        <ele>143.179962</ele>
        <time>2012-05-24 18:17:21Z</time>
      </trkpt>
      <trkpt lat="43.83305" lon="3.64701">
        <ele>142.487106</ele>
        <time>2012-05-24 18:17:25Z</time>
      </trkpt>
      <trkpt lat="43.83305" lon="3.64701">
        <ele>138.12529</ele>
        <time>2012-05-24 18:17:29Z</time>
      </trkpt>
      <trkpt lat="43.83302" lon="3.64687">
        <ele>140.609741</ele>
        <time>2012-05-24 18:17:33Z</time>
      </trkpt>
      <trkpt lat="43.83301" lon="3.64681">
        <ele>144.61058</ele>
        <time>2012-05-24 18:17:37Z</time>
      </trkpt>
      <trkpt lat="43.833" lon="3.64676">
        <ele>142.935379</ele>
        <time>2012-05-24 18:17:41Z</time>
      </trkpt>
      <trkpt lat="43.83297" lon="3.64669">
        <ele>135.998825</ele>
        <time>2012-05-24 18:17:45Z</time>
      </trkpt>
      <trkpt lat="43.83295" lon="3.64665">
        <ele>133.123718</ele>
        <time>2012-05-24 18:17:49Z</time>
      </trkpt>
      <trkpt lat="43.83294" lon="3.6466">
        <ele>134.293182</ele>
        <time>2012-05-24 18:17:53Z</time>
      </trkpt>
      <trkpt lat="43.83291" lon="3.64656">
        <ele>136.778259</ele>
        <time>2012-05-24 18:17:57Z</time>
      </trkpt>
      <trkpt lat="43.83285" lon="3.64648">
        <ele>135.090179</ele>
        <time>2012-05-24 18:18:01Z</time>
      </trkpt>
      <trkpt lat="43.83285" lon="3.64648">
        <ele>136.889908</ele>
        <time>2012-05-24 18:18:05Z</time>
      </trkpt>
      <trkpt lat="43.83281" lon="3.64642">
        <ele>137.149307</ele>
        <time>2012-05-24 18:18:09Z</time>
      </trkpt>
      <trkpt lat="43.83278" lon="3.64638">
        <ele>141.235825</ele>
        <time>2012-05-24 18:18:13Z</time>
      </trkpt>
      <trkpt lat="43.83276" lon="3.64631">
        <ele>138.417191</ele>
        <time>2012-05-24 18:18:17Z</time>
      </trkpt>
      <trkpt lat="43.83275" lon="3.64625">
        <ele>141.809998</ele>
        <time>2012-05-24 18:18:21Z</time>
      </trkpt>
      <trkpt lat="43.83274" lon="3.6462">
        <ele>143.540283</ele>
        <time>2012-05-24 18:18:25Z</time>
      </trkpt>
      <trkpt lat="43.83273" lon="3.64613">
        <ele>139.178818</ele>
        <time>2012-05-24 18:18:29Z</time>
      </trkpt>
      <trkpt lat="43.83273" lon="3.64604">
        <ele>138.039215</ele>
        <time>2012-05-24 18:18:33Z</time>
      </trkpt>
      <trkpt lat="43.83274" lon="3.64595">
        <ele>137.990631</ele>
        <time>2012-05-24 18:18:37Z</time>
      </trkpt>
      <trkpt lat="43.83274" lon="3.64588">
        <ele>141.415634</ele>
        <time>2012-05-24 18:18:41Z</time>
      </trkpt>
      <trkpt lat="43.83276" lon="3.64584">
        <ele>140.176086</ele>
        <time>2012-05-24 18:18:45Z</time>
      </trkpt>
      <trkpt lat="43.83279" lon="3.64579">
        <ele>141.002182</ele>
        <time>2012-05-24 18:18:49Z</time>
      </trkpt>
      <trkpt lat="43.83279" lon="3.64573">
        <ele>137.345047</ele>
        <time>2012-05-24 18:18:53Z</time>
      </trkpt>
      <trkpt lat="43.83278" lon="3.64568">
        <ele>141.603027</ele>
        <time>2012-05-24 18:18:57Z</time>
      </trkpt>
      <trkpt lat="43.83278" lon="3.64562">
        <ele>139.878967</ele>
        <time>2012-05-24 18:19:01Z</time>
      </trkpt>
      <trkpt lat="43.83278" lon="3.64552">
        <ele>145.822769</ele>
        <time>2012-05-24 18:19:05Z</time>
      </trkpt>
      <trkpt lat="43.8328" lon="3.64545">
        <ele>143.468689</ele>
        <time>2012-05-24 18:19:09Z</time>
      </trkpt>
      <trkpt lat="43.83281" lon="3.64539">
        <ele>142.196869</ele>
        <time>2012-05-24 18:19:13Z</time>
      </trkpt>
      <trkpt lat="43.83285" lon="3.64532">
        <ele>146.170792</ele>
        <time>2012-05-24 18:19:17Z</time>
      </trkpt>
      <trkpt lat="43.83289" lon="3.64525">
        <ele>140.359573</ele>
        <time>2012-05-24 18:19:21Z</time>
      </trkpt>
      <trkpt lat="43.83291" lon="3.64517">
        <ele>137.929413</ele>
        <time>2012-05-24 18:19:25Z</time>
      </trkpt>
      <trkpt lat="43.83292" lon="3.64511">
        <ele>138.924103</ele>
        <time>2012-05-24 18:19:29Z</time>
      </trkpt>
      <trkpt lat="43.83293" lon="3.64503">
        <ele>137.416901</ele>
        <time>2012-05-24 18:19:33Z</time>
      </trkpt>
      <trkpt lat="43.83292" lon="3.64496">
        <ele>140.682831</ele>
        <time>2012-05-24 18:19:37Z</time>
      </trkpt>
      <trkpt lat="43.83289" lon="3.6449">
        <ele>140.971848</ele>
        <time>2012-05-24 18:19:41Z</time>
      </trkpt>
      <trkpt lat="43.83288" lon="3.64484">
        <ele>141.567886</ele>
        <time>2012-05-24 18:19:45Z</time>
      </trkpt>
      <trkpt lat="43.83287" lon="3.64477">
        <ele>140.801239</ele>
        <time>2012-05-24 18:19:49Z</time>
      </trkpt>
      <trkpt lat="43.83286" lon="3.6447">
        <ele>141.125015</ele>
        <time>2012-05-24 18:19:53Z</time>
      </trkpt>
      <trkpt lat="43.83284" lon="3.64465">
        <ele>140.911346</ele>
        <time>2012-05-24 18:19:57Z</time>
      </trkpt>
      <trkpt lat="43.83286" lon="3.64459">
        <ele>136.881241</ele>
        <time>2012-05-24 18:20:01Z</time>
      </trkpt>
      <trkpt lat="43.83284" lon="3.64452">
        <ele>141.423798</ele>
        <time>2012-05-24 18:20:05Z</time>
      </trkpt>
      <trkpt lat="43.83289" lon="3.64442">
        <ele>139.546158</ele>
        <time>2012-05-24 18:20:09Z</time>
      </trkpt>
      <trkpt lat="43.83287" lon="3.64433">
        <ele>135.414978</ele>
        <time>2012-05-24 18:20:13Z</time>
      </trkpt>
      <trkpt lat="43.83286" lon="3.64427">
        <ele>130.089935</ele>
        <time>2012-05-24 18:20:17Z</time>
      </trkpt>
      <trkpt lat="43.83284" lon="3.64418">
        <ele>133.11113</ele>
        <time>2012-05-24 18:20:21Z</time>
      </trkpt>
      <trkpt lat="43.83284" lon="3.64414">
        <ele>135.716736</ele>
        <time>2012-05-24 18:20:25Z</time>
      </trkpt>
      <trkpt lat="43.83283" lon="3.64411">
        <ele>134.645538</ele>
        <time>2012-05-24 18:20:29Z</time>
      </trkpt>
      <trkpt lat="43.83282" lon="3.64407">
        <ele>135.361633</ele>
        <time>2012-05-24 18:20:33Z</time>
      </trkpt>
      <trkpt lat="43.83278" lon="3.64399">
        <ele>139.263519</ele>
        <time>2012-05-24 18:20:37Z</time>
      </trkpt>
      <trkpt lat="43.83277" lon="3.64394">
        <ele>142.286621</ele>
        <time>2012-05-24 18:20:41Z</time>
      </trkpt>
      <trkpt lat="43.83275" lon="3.64387">
        <ele>138.274963</ele>
        <time>2012-05-24 18:20:45Z</time>
      </trkpt>
      <trkpt lat="43.83273" lon="3.6438">
        <ele>143.034668</ele>
        <time>2012-05-24 18:20:49Z</time>
      </trkpt>
      <trkpt lat="43.83274" lon="3.64377">
        <ele>137.942291</ele>
        <time>2012-05-24 18:20:53Z</time>
      </trkpt>
      <trkpt lat="43.83273" lon="3.64371">
        <ele>143.139816</ele>
        <time>2012-05-24 18:20:57Z</time>
      </trkpt>
      <trkpt lat="43.83273" lon="3.64371">
        <ele>138.888947</ele>
        <time>2012-05-24 18:21:01Z</time>
      </trkpt>
      <trkpt lat="43.83274" lon="3.64372">
        <ele>142.981461</ele>
        <time>2012-05-24 18:21:05Z</time>
      </trkpt>
      <trkpt lat="43.83274" lon="3.64372">
        <ele>141.749573</ele>
        <time>2012-05-24 18:21:09Z</time>
      </trkpt>
      <trkpt lat="43.83272" lon="3.64367">
        <ele>140.926086</ele>
        <time>2012-05-24 18:21:14Z</time>
      </trkpt>
      <trkpt lat="43.83272" lon="3.64367">
        <ele>144.768433</ele>
        <time>2012-05-24 18:21:17Z</time>
      </trkpt>
      <trkpt lat="43.83271" lon="3.64364">
        <ele>146.256134</ele>
        <time>2012-05-24 18:21:21Z</time>
      </trkpt>
      <trkpt lat="43.83271" lon="3.64364">
        <ele>141.926468</ele>
        <time>2012-05-24 18:21:25Z</time>
      </trkpt>
      <trkpt lat="43.83271" lon="3.64364">
        <ele>142.7444</ele>
        <time>2012-05-24 18:21:29Z</time>
      </trkpt>
      <trkpt lat="43.83271" lon="3.64364">
        <ele>135.804535</ele>
        <time>2012-05-24 18:21:33Z</time>
      </trkpt>
      <trkpt lat="43.83271" lon="3.64364">
        <ele>136.71904</ele>
        <time>2012-05-24 18:21:37Z</time>
      </trkpt>
      <trkpt lat="43.83271" lon="3.64364">
        <ele>135.092651</ele>
        <time>2012-05-24 18:21:41Z</time>
      </trkpt>
      <trkpt lat="43.83271" lon="3.64364">
        <ele>134.006027</ele>
        <time>2012-05-24 18:21:45Z</time>
      </trkpt>
      <trkpt lat="43.83269" lon="3.64358">
        <ele>140.847977</ele>
        <time>2012-05-24 18:21:49Z</time>
      </trkpt>
      <trkpt lat="43.83267" lon="3.64351">
        <ele>142.735718</ele>
        <time>2012-05-24 18:21:53Z</time>
      </trkpt>
      <trkpt lat="43.83268" lon="3.6435">
        <ele>141.906174</ele>
        <time>2012-05-24 18:21:57Z</time>
      </trkpt>
      <trkpt lat="43.83265" lon="3.6434">
        <ele>131.50679</ele>
        <time>2012-05-24 18:22:01Z</time>
      </trkpt>
      <trkpt lat="43.83266" lon="3.64333">
        <ele>138.224991</ele>
        <time>2012-05-24 18:22:05Z</time>
      </trkpt>
      <trkpt lat="43.83268" lon="3.64325">
        <ele>141.075073</ele>
        <time>2012-05-24 18:22:09Z</time>
      </trkpt>
      <trkpt lat="43.83268" lon="3.64315">
        <ele>141.369888</ele>
        <time>2012-05-24 18:22:13Z</time>
      </trkpt>
      <trkpt lat="43.8327" lon="3.64311">
        <ele>138.789429</ele>
        <time>2012-05-24 18:22:17Z</time>
      </trkpt>
      <trkpt lat="43.83272" lon="3.64306">
        <ele>138.815155</ele>
        <time>2012-05-24 18:22:21Z</time>
      </trkpt>
      <trkpt lat="43.83274" lon="3.64301">
        <ele>144.64505</ele>
        <time>2012-05-24 18:22:25Z</time>
      </trkpt>
      <trkpt lat="43.83276" lon="3.64293">
        <ele>139.118134</ele>
        <time>2012-05-24 18:22:29Z</time>
      </trkpt>
      <trkpt lat="43.83278" lon="3.64286">
        <ele>143.242859</ele>
        <time>2012-05-24 18:22:33Z</time>
      </trkpt>
      <trkpt lat="43.83279" lon="3.64277">
        <ele>141.390152</ele>
        <time>2012-05-24 18:22:37Z</time>
      </trkpt>
      <trkpt lat="43.8328" lon="3.64271">
        <ele>144.032318</ele>
        <time>2012-05-24 18:22:41Z</time>
      </trkpt>
      <trkpt lat="43.83283" lon="3.64265">
        <ele>140.728943</ele>
        <time>2012-05-24 18:22:45Z</time>
      </trkpt>
      <trkpt lat="43.83283" lon="3.64264">
        <ele>144.73999</ele>
        <time>2012-05-24 18:22:49Z</time>
      </trkpt>
      <trkpt lat="43.83283" lon="3.64264">
        <ele>155.173874</ele>
        <time>2012-05-24 18:22:53Z</time>
      </trkpt>
      <trkpt lat="43.83283" lon="3.64264">
        <ele>141.226013</ele>
        <time>2012-05-24 18:22:57Z</time>
      </trkpt>
      <trkpt lat="43.83283" lon="3.64262">
        <ele>136.245239</ele>
        <time>2012-05-24 18:23:01Z</time>
      </trkpt>
      <trkpt lat="43.83283" lon="3.64261">
        <ele>134.459579</ele>
        <time>2012-05-24 18:23:05Z</time>
      </trkpt>
      <trkpt lat="43.83283" lon="3.64261">
        <ele>143.140579</ele>
        <time>2012-05-24 18:23:09Z</time>
      </trkpt>
      <trkpt lat="43.83283" lon="3.64262">
        <ele>139.809433</ele>
        <time>2012-05-24 18:23:13Z</time>
      </trkpt>
      <trkpt lat="43.83283" lon="3.64262">
        <ele>147.188705</ele>
        <time>2012-05-24 18:23:17Z</time>
      </trkpt>
      <trkpt lat="43.83283" lon="3.64262">
        <ele>145.54538</ele>
        <time>2012-05-24 18:23:21Z</time>
      </trkpt>
      <trkpt lat="43.83283" lon="3.64262">
        <ele>150.012009</ele>
        <time>2012-05-24 18:23:25Z</time>
      </trkpt>
      <trkpt lat="43.83283" lon="3.64262">
        <ele>143.845612</ele>
        <time>2012-05-24 18:23:29Z</time>
      </trkpt>
      <trkpt lat="43.83283" lon="3.64262">
        <ele>146.031387</ele>
        <time>2012-05-24 18:23:33Z</time>
      </trkpt>
      <trkpt lat="43.83283" lon="3.64262">
        <ele>142.704575</ele>
        <time>2012-05-24 18:23:37Z</time>
      </trkpt>
      <trkpt lat="43.83283" lon="3.64262">
        <ele>138.807526</ele>
        <time>2012-05-24 18:23:41Z</time>
      </trkpt>
      <trkpt lat="43.83283" lon="3.64262">
        <ele>137.190628</ele>
        <time>2012-05-24 18:23:45Z</time>
      </trkpt>
      <trkpt lat="43.83282" lon="3.64262">
        <ele>138.805466</ele>
        <time>2012-05-24 18:23:49Z</time>
      </trkpt>
      <trkpt lat="43.83281" lon="3.6426">
        <ele>142.408401</ele>
        <time>2012-05-24 18:23:53Z</time>
      </trkpt>
      <trkpt lat="43.8328" lon="3.64257">
        <ele>147.180237</ele>
        <time>2012-05-24 18:23:57Z</time>
      </trkpt>
      <trkpt lat="43.83282" lon="3.64251">
        <ele>148.315002</ele>
        <time>2012-05-24 18:24:01Z</time>
      </trkpt>
      <trkpt lat="43.83285" lon="3.64244">
        <ele>142.051407</ele>
        <time>2012-05-24 18:24:05Z</time>
      </trkpt>
      <trkpt lat="43.83286" lon="3.64239">
        <ele>147.701294</ele>
        <time>2012-05-24 18:24:09Z</time>
      </trkpt>
      <trkpt lat="43.83287" lon="3.64232">
        <ele>146.026031</ele>
        <time>2012-05-24 18:24:13Z</time>
      </trkpt>
      <trkpt lat="43.83288" lon="3.64224">
        <ele>150.025589</ele>
        <time>2012-05-24 18:24:17Z</time>
      </trkpt>
      <trkpt lat="43.83293" lon="3.64217">
        <ele>148.852661</ele>
        <time>2012-05-24 18:24:21Z</time>
      </trkpt>
      <trkpt lat="43.83298" lon="3.64213">
        <ele>150.58226</ele>
        <time>2012-05-24 18:24:25Z</time>
      </trkpt>
      <trkpt lat="43.833" lon="3.64208">
        <ele>151.684692</ele>
        <time>2012-05-24 18:24:29Z</time>
      </trkpt>
      <trkpt lat="43.83302" lon="3.64202">
        <ele>145.67067</ele>
        <time>2012-05-24 18:24:33Z</time>
      </trkpt>
      <trkpt lat="43.83304" lon="3.64195">
        <ele>149.72757</ele>
        <time>2012-05-24 18:24:37Z</time>
      </trkpt>
      <trkpt lat="43.83304" lon="3.64191">
        <ele>148.025269</ele>
        <time>2012-05-24 18:24:41Z</time>
      </trkpt>
      <trkpt lat="43.83304" lon="3.64183">
        <ele>155.152725</ele>
        <time>2012-05-24 18:24:45Z</time>
      </trkpt>
      <trkpt lat="43.83302" lon="3.64176">
        <ele>146.206177</ele>
        <time>2012-05-24 18:24:49Z</time>
      </trkpt>
      <trkpt lat="43.83302" lon="3.64169">
        <ele>142.723618</ele>
        <time>2012-05-24 18:24:53Z</time>
      </trkpt>
      <trkpt lat="43.83302" lon="3.64164">
        <ele>143.533401</ele>
        <time>2012-05-24 18:24:57Z</time>
      </trkpt>
      <trkpt lat="43.83301" lon="3.64157">
        <ele>144.417099</ele>
        <time>2012-05-24 18:25:01Z</time>
      </trkpt>
      <trkpt lat="43.83302" lon="3.6415">
        <ele>142.655716</ele>
        <time>2012-05-24 18:25:05Z</time>
      </trkpt>
      <trkpt lat="43.83303" lon="3.64143">
        <ele>139.942429</ele>
        <time>2012-05-24 18:25:09Z</time>
      </trkpt>
      <trkpt lat="43.83305" lon="3.64136">
        <ele>136.359634</ele>
        <time>2012-05-24 18:25:13Z</time>
      </trkpt>
      <trkpt lat="43.83307" lon="3.64131">
        <ele>137.196854</ele>
        <time>2012-05-24 18:25:17Z</time>
      </trkpt>
      <trkpt lat="43.83307" lon="3.64125">
        <ele>140.262924</ele>
        <time>2012-05-24 18:25:21Z</time>
      </trkpt>
      <trkpt lat="43.83309" lon="3.64119">
        <ele>140.743118</ele>
        <time>2012-05-24 18:25:25Z</time>
      </trkpt>
      <trkpt lat="43.83312" lon="3.64113">
        <ele>141.003601</ele>
        <time>2012-05-24 18:25:29Z</time>
      </trkpt>
      <trkpt lat="43.83313" lon="3.6411">
        <ele>142.579117</ele>
        <time>2012-05-24 18:25:33Z</time>
      </trkpt>
      <trkpt lat="43.83314" lon="3.64104">
        <ele>140.920761</ele>
        <time>2012-05-24 18:25:37Z</time>
      </trkpt>
      <trkpt lat="43.83316" lon="3.64096">
        <ele>140.723572</ele>
        <time>2012-05-24 18:25:41Z</time>
      </trkpt>
      <trkpt lat="43.8332" lon="3.64092">
        <ele>139.038269</ele>
        <time>2012-05-24 18:25:45Z</time>
      </trkpt>
      <trkpt lat="43.83322" lon="3.64086">
        <ele>140.003281</ele>
        <time>2012-05-24 18:25:49Z</time>
      </trkpt>
      <trkpt lat="43.83322" lon="3.64086">
        <ele>129.667389</ele>
        <time>2012-05-24 18:25:53Z</time>
      </trkpt>
      <trkpt lat="43.8332" lon="3.64081">
        <ele>126.992294</ele>
        <time>2012-05-24 18:25:57Z</time>
      </trkpt>
      <trkpt lat="43.83319" lon="3.64074">
        <ele>126.404373</ele>
        <time>2012-05-24 18:26:01Z</time>
      </trkpt>
      <trkpt lat="43.83316" lon="3.64064">
        <ele>131.748062</ele>
        <time>2012-05-24 18:26:05Z</time>
      </trkpt>
      <trkpt lat="43.83315" lon="3.64056">
        <ele>136.247696</ele>
        <time>2012-05-24 18:26:09Z</time>
      </trkpt>
      <trkpt lat="43.83313" lon="3.64048">
        <ele>129.411453</ele>
        <time>2012-05-24 18:26:13Z</time>
      </trkpt>
      <trkpt lat="43.83314" lon="3.64038">
        <ele>133.624054</ele>
        <time>2012-05-24 18:26:17Z</time>
      </trkpt>
      <trkpt lat="43.83313" lon="3.64031">
        <ele>135.904327</ele>
        <time>2012-05-24 18:26:21Z</time>
      </trkpt>
      <trkpt lat="43.83313" lon="3.64025">
        <ele>134.178238</ele>
        <time>2012-05-24 18:26:25Z</time>
      </trkpt>
      <trkpt lat="43.83313" lon="3.64019">
        <ele>132.671204</ele>
        <time>2012-05-24 18:26:29Z</time>
      </trkpt>
      <trkpt lat="43.8331" lon="3.64014">
        <ele>134.250641</ele>
        <time>2012-05-24 18:26:33Z</time>
      </trkpt>
      <trkpt lat="43.83311" lon="3.64011">
        <ele>140.225388</ele>
        <time>2012-05-24 18:26:37Z</time>
      </trkpt>
      <trkpt lat="43.8331" lon="3.64006">
        <ele>140.179184</ele>
        <time>2012-05-24 18:26:41Z</time>
      </trkpt>
      <trkpt lat="43.83309" lon="3.64">
        <ele>140.533798</ele>
        <time>2012-05-24 18:26:45Z</time>
      </trkpt>
      <trkpt lat="43.83309" lon="3.63993">
        <ele>131.95607</ele>
        <time>2012-05-24 18:26:49Z</time>
      </trkpt>
      <trkpt lat="43.8331" lon="3.63986">
        <ele>137.868362</ele>
        <time>2012-05-24 18:26:53Z</time>
      </trkpt>
      <trkpt lat="43.8331" lon="3.63979">
        <ele>139.750244</ele>
        <time>2012-05-24 18:26:57Z</time>
      </trkpt>
      <trkpt lat="43.8331" lon="3.63973">
        <ele>135.424149</ele>
        <time>2012-05-24 18:27:01Z</time>
      </trkpt>
      <trkpt lat="43.8331" lon="3.63967">
        <ele>134.362808</ele>
        <time>2012-05-24 18:27:05Z</time>
      </trkpt>
      <trkpt lat="43.8331" lon="3.63959">
        <ele>135.420807</ele>
        <time>2012-05-24 18:27:09Z</time>
      </trkpt>
      <trkpt lat="43.83311" lon="3.63954">
        <ele>130.963516</ele>
        <time>2012-05-24 18:27:13Z</time>
      </trkpt>
      <trkpt lat="43.8331" lon="3.63944">
        <ele>135.270676</ele>
        <time>2012-05-24 18:27:17Z</time>
      </trkpt>
      <trkpt lat="43.83308" lon="3.63936">
        <ele>139.413956</ele>
        <time>2012-05-24 18:27:21Z</time>
      </trkpt>
      <trkpt lat="43.83307" lon="3.63929">
        <ele>143.393982</ele>
        <time>2012-05-24 18:27:25Z</time>
      </trkpt>
      <trkpt lat="43.83306" lon="3.63922">
        <ele>142.109528</ele>
        <time>2012-05-24 18:27:29Z</time>
      </trkpt>
      <trkpt lat="43.83305" lon="3.63912">
        <ele>138.474182</ele>
        <time>2012-05-24 18:27:33Z</time>
      </trkpt>
      <trkpt lat="43.83305" lon="3.63908">
        <ele>136.542969</ele>
        <time>2012-05-24 18:27:37Z</time>
      </trkpt>
      <trkpt lat="43.83305" lon="3.63899">
        <ele>131.776672</ele>
        <time>2012-05-24 18:27:41Z</time>
      </trkpt>
      <trkpt lat="43.83305" lon="3.63893">
        <ele>133.060638</ele>
        <time>2012-05-24 18:27:45Z</time>
      </trkpt>
      <trkpt lat="43.83305" lon="3.63888">
        <ele>138.706375</ele>
        <time>2012-05-24 18:27:49Z</time>
      </trkpt>
      <trkpt lat="43.83303" lon="3.63881">
        <ele>135.750519</ele>
        <time>2012-05-24 18:27:53Z</time>
      </trkpt>
      <trkpt lat="43.83302" lon="3.63875">
        <ele>138.532944</ele>
        <time>2012-05-24 18:27:57Z</time>
      </trkpt>
      <trkpt lat="43.83301" lon="3.63867">
        <ele>144.462692</ele>
        <time>2012-05-24 18:28:01Z</time>
      </trkpt>
      <trkpt lat="43.83302" lon="3.6386">
        <ele>143.137024</ele>
        <time>2012-05-24 18:28:05Z</time>
      </trkpt>
      <trkpt lat="43.83302" lon="3.63854">
        <ele>143.172531</ele>
        <time>2012-05-24 18:28:09Z</time>
      </trkpt>
      <trkpt lat="43.833" lon="3.63849">
        <ele>141.166885</ele>
        <time>2012-05-24 18:28:13Z</time>
      </trkpt>
      <trkpt lat="43.83297" lon="3.63844">
        <ele>136.512146</ele>
        <time>2012-05-24 18:28:17Z</time>
      </trkpt>
      <trkpt lat="43.83294" lon="3.63838">
        <ele>138.265228</ele>
        <time>2012-05-24 18:28:21Z</time>
      </trkpt>
      <trkpt lat="43.83292" lon="3.63837">
        <ele>140.68425</ele>
        <time>2012-05-24 18:28:25Z</time>
      </trkpt>
      <trkpt lat="43.83287" lon="3.63829">
        <ele>142.678787</ele>
        <time>2012-05-24 18:28:29Z</time>
      </trkpt>
      <trkpt lat="43.83284" lon="3.63826">
        <ele>146.884384</ele>
        <time>2012-05-24 18:28:33Z</time>
      </trkpt>
      <trkpt lat="43.83281" lon="3.6382">
        <ele>142.929932</ele>
        <time>2012-05-24 18:28:37Z</time>
      </trkpt>
      <trkpt lat="43.83277" lon="3.63817">
        <ele>145.149139</ele>
        <time>2012-05-24 18:28:41Z</time>
      </trkpt>
      <trkpt lat="43.83274" lon="3.63814">
        <ele>143.69455</ele>
        <time>2012-05-24 18:28:45Z</time>
      </trkpt>
      <trkpt lat="43.83271" lon="3.63813">
        <ele>141.537537</ele>
        <time>2012-05-24 18:28:49Z</time>
      </trkpt>
      <trkpt lat="43.83268" lon="3.63813">
        <ele>138.689758</ele>
        <time>2012-05-24 18:28:53Z</time>
      </trkpt>
      <trkpt lat="43.83265" lon="3.63809">
        <ele>133.935974</ele>
        <time>2012-05-24 18:28:57Z</time>
      </trkpt>
      <trkpt lat="43.83263" lon="3.63802">
        <ele>132.347565</ele>
        <time>2012-05-24 18:29:01Z</time>
      </trkpt>
      <trkpt lat="43.83259" lon="3.63798">
        <ele>139.444565</ele>
        <time>2012-05-24 18:29:05Z</time>
      </trkpt>
      <trkpt lat="43.83256" lon="3.63793">
        <ele>145.124298</ele>
        <time>2012-05-24 18:29:09Z</time>
      </trkpt>
      <trkpt lat="43.83251" lon="3.63792">
        <ele>142.943787</ele>
        <time>2012-05-24 18:29:13Z</time>
      </trkpt>
      <trkpt lat="43.83247" lon="3.63791">
        <ele>143.019241</ele>
        <time>2012-05-24 18:29:17Z</time>
      </trkpt>
      <trkpt lat="43.8324" lon="3.63788">
        <ele>144.810486</ele>
        <time>2012-05-24 18:29:21Z</time>
      </trkpt>
      <trkpt lat="43.83235" lon="3.63786">
        <ele>144.954025</ele>
        <time>2012-05-24 18:29:25Z</time>
      </trkpt>
      <trkpt lat="43.83229" lon="3.63784">
        <ele>133.595078</ele>
        <time>2012-05-24 18:29:29Z</time>
      </trkpt>
      <trkpt lat="43.83226" lon="3.63783">
        <ele>140.292465</ele>
        <time>2012-05-24 18:29:33Z</time>
      </trkpt>
      <trkpt lat="43.83221" lon="3.63782">
        <ele>144.208282</ele>
        <time>2012-05-24 18:29:37Z</time>
      </trkpt>
      <trkpt lat="43.83216" lon="3.63781">
        <ele>139.880096</ele>
        <time>2012-05-24 18:29:41Z</time>
      </trkpt>
      <trkpt lat="43.83211" lon="3.63781">
        <ele>144.757278</ele>
        <time>2012-05-24 18:29:45Z</time>
      </trkpt>
      <trkpt lat="43.83206" lon="3.63781">
        <ele>141.534058</ele>
        <time>2012-05-24 18:29:49Z</time>
      </trkpt>
      <trkpt lat="43.83201" lon="3.63782">
        <ele>141.404266</ele>
        <time>2012-05-24 18:29:53Z</time>
      </trkpt>
      <trkpt lat="43.83196" lon="3.63781">
        <ele>135.50267</ele>
        <time>2012-05-24 18:29:57Z</time>
      </trkpt>
      <trkpt lat="43.83191" lon="3.63781">
        <ele>135.271606</ele>
        <time>2012-05-24 18:30:01Z</time>
      </trkpt>
      <trkpt lat="43.83186" lon="3.6378">
        <ele>136.117828</ele>
        <time>2012-05-24 18:30:05Z</time>
      </trkpt>
      <trkpt lat="43.83182" lon="3.63778">
        <ele>137.51178</ele>
        <time>2012-05-24 18:30:09Z</time>
      </trkpt>
      <trkpt lat="43.83179" lon="3.63776">
        <ele>133.496719</ele>
        <time>2012-05-24 18:30:13Z</time>
      </trkpt>
      <trkpt lat="43.83175" lon="3.63773">
        <ele>139.240372</ele>
        <time>2012-05-24 18:30:17Z</time>
      </trkpt>
      <trkpt lat="43.83171" lon="3.6377">
        <ele>135.589279</ele>
        <time>2012-05-24 18:30:21Z</time>
      </trkpt>
      <trkpt lat="43.83167" lon="3.63768">
        <ele>141.235016</ele>
        <time>2012-05-24 18:30:25Z</time>
      </trkpt>
      <trkpt lat="43.83162" lon="3.63766">
        <ele>142.262131</ele>
        <time>2012-05-24 18:30:29Z</time>
      </trkpt>
      <trkpt lat="43.8316" lon="3.63767">
        <ele>143.687881</ele>
        <time>2012-05-24 18:30:33Z</time>
      </trkpt>
      <trkpt lat="43.83157" lon="3.63763">
        <ele>138.123032</ele>
        <time>2012-05-24 18:30:37Z</time>
      </trkpt>
      <trkpt lat="43.83152" lon="3.63756">
        <ele>136.724106</ele>
        <time>2012-05-24 18:30:41Z</time>
      </trkpt>
      <trkpt lat="43.83147" lon="3.63751">
        <ele>143.039169</ele>
        <time>2012-05-24 18:30:45Z</time>
      </trkpt>
      <trkpt lat="43.83144" lon="3.63746">
        <ele>141.504013</ele>
        <time>2012-05-24 18:30:49Z</time>
      </trkpt>
      <trkpt lat="43.83141" lon="3.63743">
        <ele>141.022415</ele>
        <time>2012-05-24 18:30:53Z</time>
      </trkpt>
      <trkpt lat="43.83139" lon="3.63739">
        <ele>142.314514</ele>
        <time>2012-05-24 18:30:57Z</time>
      </trkpt>
      <trkpt lat="43.83136" lon="3.63735">
        <ele>138.556137</ele>
        <time>2012-05-24 18:31:01Z</time>
      </trkpt>
      <trkpt lat="43.83134" lon="3.6373">
        <ele>143.641861</ele>
        <time>2012-05-24 18:31:05Z</time>
      </trkpt>
      <trkpt lat="43.83131" lon="3.63725">
        <ele>143.494904</ele>
        <time>2012-05-24 18:31:09Z</time>
      </trkpt>
      <trkpt lat="43.83128" lon="3.6372">
        <ele>144.427124</ele>
        <time>2012-05-24 18:31:13Z</time>
      </trkpt>
      <trkpt lat="43.83127" lon="3.63715">
        <ele>147.916061</ele>
        <time>2012-05-24 18:31:17Z</time>
      </trkpt>
      <trkpt lat="43.83125" lon="3.63714">
        <ele>149.666321</ele>
        <time>2012-05-24 18:31:21Z</time>
      </trkpt>
      <trkpt lat="43.83123" lon="3.63709">
        <ele>147.163712</ele>
        <time>2012-05-24 18:31:25Z</time>
      </trkpt>
      <trkpt lat="43.8312" lon="3.63705">
        <ele>144.33638</ele>
        <time>2012-05-24 18:31:29Z</time>
      </trkpt>
      <trkpt lat="43.83117" lon="3.63702">
        <ele>139.775909</ele>
        <time>2012-05-24 18:31:33Z</time>
      </trkpt>
      <trkpt lat="43.83111" lon="3.63701">
        <ele>140.985275</ele>
        <time>2012-05-24 18:31:37Z</time>
      </trkpt>
      <trkpt lat="43.83106" lon="3.63695">
        <ele>144.634201</ele>
        <time>2012-05-24 18:31:41Z</time>
      </trkpt>
      <trkpt lat="43.83106" lon="3.63694">
        <ele>133.179825</ele>
        <time>2012-05-24 18:31:45Z</time>
      </trkpt>
      <trkpt lat="43.83103" lon="3.63689">
        <ele>133.575409</ele>
        <time>2012-05-24 18:31:49Z</time>
      </trkpt>
      <trkpt lat="43.83099" lon="3.63684">
        <ele>137.372787</ele>
        <time>2012-05-24 18:31:53Z</time>
      </trkpt>
      <trkpt lat="43.83096" lon="3.63674">
        <ele>139.913681</ele>
        <time>2012-05-24 18:31:57Z</time>
      </trkpt>
      <trkpt lat="43.83093" lon="3.63671">
        <ele>145.968079</ele>
        <time>2012-05-24 18:32:01Z</time>
      </trkpt>
      <trkpt lat="43.83091" lon="3.63669">
        <ele>136.691193</ele>
        <time>2012-05-24 18:32:05Z</time>
      </trkpt>
      <trkpt lat="43.83086" lon="3.63666">
        <ele>135.578171</ele>
        <time>2012-05-24 18:32:09Z</time>
      </trkpt>
      <trkpt lat="43.83085" lon="3.63663">
        <ele>142.237625</ele>
        <time>2012-05-24 18:32:13Z</time>
      </trkpt>
      <trkpt lat="43.83081" lon="3.63658">
        <ele>146.669266</ele>
        <time>2012-05-24 18:32:17Z</time>
      </trkpt>
      <trkpt lat="43.83078" lon="3.63652">
        <ele>147.019058</ele>
        <time>2012-05-24 18:32:21Z</time>
      </trkpt>
      <trkpt lat="43.83077" lon="3.63652">
        <ele>145.098267</ele>
        <time>2012-05-24 18:32:25Z</time>
      </trkpt>
      <trkpt lat="43.83074" lon="3.6365">
        <ele>145.162216</ele>
        <time>2012-05-24 18:32:29Z</time>
      </trkpt>
      <trkpt lat="43.83073" lon="3.63641">
        <ele>144.737396</ele>
        <time>2012-05-24 18:32:33Z</time>
      </trkpt>
      <trkpt lat="43.83072" lon="3.63636">
        <ele>136.305496</ele>
        <time>2012-05-24 18:32:37Z</time>
      </trkpt>
      <trkpt lat="43.83064" lon="3.63627">
        <ele>140.787338</ele>
        <time>2012-05-24 18:32:41Z</time>
      </trkpt>
      <trkpt lat="43.83062" lon="3.63621">
        <ele>146.085144</ele>
        <time>2012-05-24 18:32:45Z</time>
      </trkpt>
      <trkpt lat="43.83062" lon="3.63615">
        <ele>146.352127</ele>
        <time>2012-05-24 18:32:49Z</time>
      </trkpt>
      <trkpt lat="43.83062" lon="3.63615">
        <ele>148.45459</ele>
        <time>2012-05-24 18:32:53Z</time>
      </trkpt>
      <trkpt lat="43.83061" lon="3.63611">
        <ele>149.466461</ele>
        <time>2012-05-24 18:32:57Z</time>
      </trkpt>
      <trkpt lat="43.83061" lon="3.63611">
        <ele>149.982422</ele>
        <time>2012-05-24 18:33:01Z</time>
      </trkpt>
      <trkpt lat="43.83061" lon="3.63601">
        <ele>147.810654</ele>
        <time>2012-05-24 18:33:05Z</time>
      </trkpt>
      <trkpt lat="43.83062" lon="3.63594">
        <ele>156.191452</ele>
        <time>2012-05-24 18:33:09Z</time>
      </trkpt>
      <trkpt lat="43.83063" lon="3.63588">
        <ele>156.099167</ele>
        <time>2012-05-24 18:33:13Z</time>
      </trkpt>
      <trkpt lat="43.83065" lon="3.63578">
        <ele>148.580887</ele>
        <time>2012-05-24 18:33:17Z</time>
      </trkpt>
      <trkpt lat="43.83067" lon="3.6357">
        <ele>153.708557</ele>
        <time>2012-05-24 18:33:21Z</time>
      </trkpt>
      <trkpt lat="43.83069" lon="3.63563">
        <ele>151.531265</ele>
        <time>2012-05-24 18:33:25Z</time>
      </trkpt>
      <trkpt lat="43.8307" lon="3.63561">
        <ele>153.963425</ele>
        <time>2012-05-24 18:33:29Z</time>
      </trkpt>
      <trkpt lat="43.83073" lon="3.6356">
        <ele>162.787781</ele>
        <time>2012-05-24 18:33:33Z</time>
      </trkpt>
      <trkpt lat="43.83076" lon="3.63553">
        <ele>158.861084</ele>
        <time>2012-05-24 18:33:37Z</time>
      </trkpt>
      <trkpt lat="43.83078" lon="3.63549">
        <ele>152.655106</ele>
        <time>2012-05-24 18:33:41Z</time>
      </trkpt>
      <trkpt lat="43.83078" lon="3.63549">
        <ele>152.612625</ele>
        <time>2012-05-24 18:33:45Z</time>
      </trkpt>
      <trkpt lat="43.83081" lon="3.63546">
        <ele>148.676605</ele>
        <time>2012-05-24 18:33:49Z</time>
      </trkpt>
      <trkpt lat="43.83081" lon="3.63547">
        <ele>157.608368</ele>
        <time>2012-05-24 18:33:53Z</time>
      </trkpt>
      <trkpt lat="43.83084" lon="3.63546">
        <ele>152.182236</ele>
        <time>2012-05-24 18:33:57Z</time>
      </trkpt>
      <trkpt lat="43.83086" lon="3.63546">
        <ele>152.777832</ele>
        <time>2012-05-24 18:34:01Z</time>
      </trkpt>
      <trkpt lat="43.83086" lon="3.63546">
        <ele>146.659103</ele>
        <time>2012-05-24 18:34:05Z</time>
      </trkpt>
      <trkpt lat="43.83086" lon="3.63543">
        <ele>141.832031</ele>
        <time>2012-05-24 18:34:09Z</time>
      </trkpt>
      <trkpt lat="43.83086" lon="3.63543">
        <ele>133.166245</ele>
        <time>2012-05-24 18:34:13Z</time>
      </trkpt>
      <trkpt lat="43.83086" lon="3.63543">
        <ele>133.476578</ele>
        <time>2012-05-24 18:34:17Z</time>
      </trkpt>
      <trkpt lat="43.83087" lon="3.63542">
        <ele>132.233521</ele>
        <time>2012-05-24 18:34:21Z</time>
      </trkpt>
      <trkpt lat="43.83089" lon="3.63537">
        <ele>124.835236</ele>
        <time>2012-05-24 18:34:25Z</time>
      </trkpt>
      <trkpt lat="43.83088" lon="3.63535">
        <ele>126.577972</ele>
        <time>2012-05-24 18:34:29Z</time>
      </trkpt>
      <trkpt lat="43.83089" lon="3.63533">
        <ele>130.57077</ele>
        <time>2012-05-24 18:34:33Z</time>
      </trkpt>
      <trkpt lat="43.83089" lon="3.63529">
        <ele>139.271347</ele>
        <time>2012-05-24 18:34:37Z</time>
      </trkpt>
      <trkpt lat="43.83092" lon="3.63525">
        <ele>139.733795</ele>
        <time>2012-05-24 18:34:41Z</time>
      </trkpt>
      <trkpt lat="43.83094" lon="3.63522">
        <ele>138.271378</ele>
        <time>2012-05-24 18:34:45Z</time>
      </trkpt>
      <trkpt lat="43.83099" lon="3.63519">
        <ele>143.643478</ele>
        <time>2012-05-24 18:34:49Z</time>
      </trkpt>
      <trkpt lat="43.83099" lon="3.63519">
        <ele>144.169998</ele>
        <time>2012-05-24 18:34:53Z</time>
      </trkpt>
      <trkpt lat="43.831" lon="3.63508">
        <ele>145.067505</ele>
        <time>2012-05-24 18:34:57Z</time>
      </trkpt>
      <trkpt lat="43.83099" lon="3.63499">
        <ele>151.106308</ele>
        <time>2012-05-24 18:35:01Z</time>
      </trkpt>
      <trkpt lat="43.83102" lon="3.63494">
        <ele>155.164093</ele>
        <time>2012-05-24 18:35:05Z</time>
      </trkpt>
      <trkpt lat="43.83107" lon="3.6349">
        <ele>154.693619</ele>
        <time>2012-05-24 18:35:09Z</time>
      </trkpt>
      <trkpt lat="43.83108" lon="3.63483">
        <ele>155.457199</ele>
        <time>2012-05-24 18:35:13Z</time>
      </trkpt>
      <trkpt lat="43.83109" lon="3.63474">
        <ele>153.843674</ele>
        <time>2012-05-24 18:35:17Z</time>
      </trkpt>
      <trkpt lat="43.8311" lon="3.63466">
        <ele>162.981766</ele>
        <time>2012-05-24 18:35:21Z</time>
      </trkpt>
      <trkpt lat="43.83111" lon="3.63458">
        <ele>162.214722</ele>
        <time>2012-05-24 18:35:25Z</time>
      </trkpt>
      <trkpt lat="43.83113" lon="3.63451">
        <ele>159.178497</ele>
        <time>2012-05-24 18:35:29Z</time>
      </trkpt>
      <trkpt lat="43.83115" lon="3.63449">
        <ele>163.173569</ele>
        <time>2012-05-24 18:35:33Z</time>
      </trkpt>
      <trkpt lat="43.83116" lon="3.63441">
        <ele>157.712952</ele>
        <time>2012-05-24 18:35:37Z</time>
      </trkpt>
      <trkpt lat="43.83117" lon="3.63432">
        <ele>151.641006</ele>
        <time>2012-05-24 18:35:41Z</time>
      </trkpt>
      <trkpt lat="43.83118" lon="3.63424">
        <ele>154.051254</ele>
        <time>2012-05-24 18:35:45Z</time>
      </trkpt>
      <trkpt lat="43.83119" lon="3.63419">
        <ele>151.016464</ele>
        <time>2012-05-24 18:35:49Z</time>
      </trkpt>
      <trkpt lat="43.83117" lon="3.63413">
        <ele>151.663589</ele>
        <time>2012-05-24 18:35:53Z</time>
      </trkpt>
      <trkpt lat="43.83115" lon="3.63404">
        <ele>149.126404</ele>
        <time>2012-05-24 18:35:57Z</time>
      </trkpt>
      <trkpt lat="43.83112" lon="3.634">
        <ele>154.50206</ele>
        <time>2012-05-24 18:36:01Z</time>
      </trkpt>
      <trkpt lat="43.83112" lon="3.63397">
        <ele>149.970871</ele>
        <time>2012-05-24 18:36:05Z</time>
      </trkpt>
      <trkpt lat="43.83111" lon="3.63392">
        <ele>156.55545</ele>
        <time>2012-05-24 18:36:09Z</time>
      </trkpt>
      <trkpt lat="43.83108" lon="3.63385">
        <ele>157.199249</ele>
        <time>2012-05-24 18:36:13Z</time>
      </trkpt>
      <trkpt lat="43.83106" lon="3.63383">
        <ele>152.579269</ele>
        <time>2012-05-24 18:36:17Z</time>
      </trkpt>
      <trkpt lat="43.83101" lon="3.63374">
        <ele>145.916061</ele>
        <time>2012-05-24 18:36:21Z</time>
      </trkpt>
      <trkpt lat="43.83099" lon="3.63371">
        <ele>148.970703</ele>
        <time>2012-05-24 18:36:25Z</time>
      </trkpt>
      <trkpt lat="43.83098" lon="3.63365">
        <ele>144.385956</ele>
        <time>2012-05-24 18:36:29Z</time>
      </trkpt>
      <trkpt lat="43.83094" lon="3.6336">
        <ele>142.394424</ele>
        <time>2012-05-24 18:36:33Z</time>
      </trkpt>
      <trkpt lat="43.83093" lon="3.63357">
        <ele>148.456055</ele>
        <time>2012-05-24 18:36:37Z</time>
      </trkpt>
      <trkpt lat="43.83092" lon="3.6335">
        <ele>149.985947</ele>
        <time>2012-05-24 18:36:41Z</time>
      </trkpt>
      <trkpt lat="43.83091" lon="3.63345">
        <ele>145.18924</ele>
        <time>2012-05-24 18:36:45Z</time>
      </trkpt>
      <trkpt lat="43.83089" lon="3.63339">
        <ele>144.092346</ele>
        <time>2012-05-24 18:36:49Z</time>
      </trkpt>
      <trkpt lat="43.83088" lon="3.63337">
        <ele>145.244781</ele>
        <time>2012-05-24 18:36:53Z</time>
      </trkpt>
      <trkpt lat="43.83083" lon="3.63326">
        <ele>147.678116</ele>
        <time>2012-05-24 18:36:57Z</time>
      </trkpt>
      <trkpt lat="43.83077" lon="3.63319">
        <ele>146.849091</ele>
        <time>2012-05-24 18:37:01Z</time>
      </trkpt>
      <trkpt lat="43.83075" lon="3.63316">
        <ele>144.393784</ele>
        <time>2012-05-24 18:37:05Z</time>
      </trkpt>
      <trkpt lat="43.8307" lon="3.63312">
        <ele>138.707413</ele>
        <time>2012-05-24 18:37:09Z</time>
      </trkpt>
      <trkpt lat="43.83067" lon="3.63306">
        <ele>145.11351</ele>
        <time>2012-05-24 18:37:13Z</time>
      </trkpt>
      <trkpt lat="43.83065" lon="3.63301">
        <ele>143.443909</ele>
        <time>2012-05-24 18:37:17Z</time>
      </trkpt>
      <trkpt lat="43.83065" lon="3.63295">
        <ele>137.689804</ele>
        <time>2012-05-24 18:37:21Z</time>
      </trkpt>
      <trkpt lat="43.83065" lon="3.6329">
        <ele>138.887497</ele>
        <time>2012-05-24 18:37:25Z</time>
      </trkpt>
      <trkpt lat="43.83063" lon="3.63278">
        <ele>137.353561</ele>
        <time>2012-05-24 18:37:29Z</time>
      </trkpt>
      <trkpt lat="43.8306" lon="3.6327">
        <ele>137.94809</ele>
        <time>2012-05-24 18:37:33Z</time>
      </trkpt>
      <trkpt lat="43.83057" lon="3.63266">
        <ele>139.127289</ele>
        <time>2012-05-24 18:37:37Z</time>
      </trkpt>
      <trkpt lat="43.83057" lon="3.63263">
        <ele>139.341583</ele>
        <time>2012-05-24 18:37:41Z</time>
      </trkpt>
      <trkpt lat="43.83054" lon="3.6326">
        <ele>141.397705</ele>
        <time>2012-05-24 18:37:45Z</time>
      </trkpt>
      <trkpt lat="43.83051" lon="3.6326">
        <ele>142.979996</ele>
        <time>2012-05-24 18:37:49Z</time>
      </trkpt>
      <trkpt lat="43.83049" lon="3.63254">
        <ele>145.61348</ele>
        <time>2012-05-24 18:37:53Z</time>
      </trkpt>
      <trkpt lat="43.83047" lon="3.63248">
        <ele>140.078781</ele>
        <time>2012-05-24 18:37:57Z</time>
      </trkpt>
      <trkpt lat="43.83044" lon="3.6324">
        <ele>137.35112</ele>
        <time>2012-05-24 18:38:01Z</time>
      </trkpt>
      <trkpt lat="43.83042" lon="3.63231">
        <ele>139.03595</ele>
        <time>2012-05-24 18:38:05Z</time>
      </trkpt>
      <trkpt lat="43.83042" lon="3.6323">
        <ele>138.663483</ele>
        <time>2012-05-24 18:38:09Z</time>
      </trkpt>
      <trkpt lat="43.8304" lon="3.63215">
        <ele>143.891144</ele>
        <time>2012-05-24 18:38:13Z</time>
      </trkpt>
      <trkpt lat="43.83038" lon="3.6321">
        <ele>147.537384</ele>
        <time>2012-05-24 18:38:17Z</time>
      </trkpt>
      <trkpt lat="43.83036" lon="3.63204">
        <ele>147.898392</ele>
        <time>2012-05-24 18:38:21Z</time>
      </trkpt>
      <trkpt lat="43.83035" lon="3.63199">
        <ele>153.319351</ele>
        <time>2012-05-24 18:38:25Z</time>
      </trkpt>
      <trkpt lat="43.83035" lon="3.63187">
        <ele>159.854889</ele>
        <time>2012-05-24 18:38:29Z</time>
      </trkpt>
      <trkpt lat="43.83036" lon="3.63183">
        <ele>158.814316</ele>
        <time>2012-05-24 18:38:33Z</time>
      </trkpt>
      <trkpt lat="43.83037" lon="3.63179">
        <ele>155.650146</ele>
        <time>2012-05-24 18:38:37Z</time>
      </trkpt>
      <trkpt lat="43.83033" lon="3.63171">
        <ele>152.966293</ele>
        <time>2012-05-24 18:38:41Z</time>
      </trkpt>
      <trkpt lat="43.83031" lon="3.63158">
        <ele>151.657928</ele>
        <time>2012-05-24 18:38:45Z</time>
      </trkpt>
      <trkpt lat="43.83031" lon="3.6315">
        <ele>153.623184</ele>
        <time>2012-05-24 18:38:49Z</time>
      </trkpt>
      <trkpt lat="43.83032" lon="3.63144">
        <ele>156.784882</ele>
        <time>2012-05-24 18:38:53Z</time>
      </trkpt>
      <trkpt lat="43.83032" lon="3.63138">
        <ele>156.077637</ele>
        <time>2012-05-24 18:38:57Z</time>
      </trkpt>
      <trkpt lat="43.83035" lon="3.63131">
        <ele>156.636337</ele>
        <time>2012-05-24 18:39:01Z</time>
      </trkpt>
      <trkpt lat="43.83035" lon="3.63125">
        <ele>149.655807</ele>
        <time>2012-05-24 18:39:05Z</time>
      </trkpt>
      <trkpt lat="43.83036" lon="3.63118">
        <ele>151.363113</ele>
        <time>2012-05-24 18:39:09Z</time>
      </trkpt>
      <trkpt lat="43.83035" lon="3.63111">
        <ele>152.165894</ele>
        <time>2012-05-24 18:39:13Z</time>
      </trkpt>
      <trkpt lat="43.83033" lon="3.631">
        <ele>151.377991</ele>
        <time>2012-05-24 18:39:17Z</time>
      </trkpt>
      <trkpt lat="43.83034" lon="3.63094">
        <ele>150.476654</ele>
        <time>2012-05-24 18:39:21Z</time>
      </trkpt>
      <trkpt lat="43.83034" lon="3.6309">
        <ele>149.512665</ele>
        <time>2012-05-24 18:39:25Z</time>
      </trkpt>
      <trkpt lat="43.83032" lon="3.63085">
        <ele>154.513748</ele>
        <time>2012-05-24 18:39:29Z</time>
      </trkpt>
      <trkpt lat="43.83031" lon="3.63078">
        <ele>151.592163</ele>
        <time>2012-05-24 18:39:33Z</time>
      </trkpt>
      <trkpt lat="43.83029" lon="3.6307">
        <ele>148.558945</ele>
        <time>2012-05-24 18:39:37Z</time>
      </trkpt>
      <trkpt lat="43.83027" lon="3.63062">
        <ele>157.250214</ele>
        <time>2012-05-24 18:39:41Z</time>
      </trkpt>
      <trkpt lat="43.83026" lon="3.63056">
        <ele>159.682312</ele>
        <time>2012-05-24 18:39:45Z</time>
      </trkpt>
      <trkpt lat="43.83026" lon="3.63052">
        <ele>160.773209</ele>
        <time>2012-05-24 18:39:49Z</time>
      </trkpt>
      <trkpt lat="43.83024" lon="3.63043">
        <ele>159.496216</ele>
        <time>2012-05-24 18:39:53Z</time>
      </trkpt>
      <trkpt lat="43.83023" lon="3.63034">
        <ele>162.182281</ele>
        <time>2012-05-24 18:39:57Z</time>
      </trkpt>
      <trkpt lat="43.83022" lon="3.63025">
        <ele>163.688416</ele>
        <time>2012-05-24 18:40:01Z</time>
      </trkpt>
      <trkpt lat="43.8302" lon="3.63018">
        <ele>159.610474</ele>
        <time>2012-05-24 18:40:05Z</time>
      </trkpt>
      <trkpt lat="43.83018" lon="3.63011">
        <ele>156.56131</ele>
        <time>2012-05-24 18:40:09Z</time>
      </trkpt>
      <trkpt lat="43.83016" lon="3.63004">
        <ele>157.771667</ele>
        <time>2012-05-24 18:40:13Z</time>
      </trkpt>
      <trkpt lat="43.83014" lon="3.62995">
        <ele>157.679672</ele>
        <time>2012-05-24 18:40:17Z</time>
      </trkpt>
      <trkpt lat="43.83011" lon="3.6299">
        <ele>153.368073</ele>
        <time>2012-05-24 18:40:21Z</time>
      </trkpt>
      <trkpt lat="43.8301" lon="3.62984">
        <ele>151.454865</ele>
        <time>2012-05-24 18:40:25Z</time>
      </trkpt>
      <trkpt lat="43.83009" lon="3.62979">
        <ele>150.758377</ele>
        <time>2012-05-24 18:40:29Z</time>
      </trkpt>
      <trkpt lat="43.83006" lon="3.62974">
        <ele>155.718765</ele>
        <time>2012-05-24 18:40:33Z</time>
      </trkpt>
      <trkpt lat="43.83007" lon="3.62974">
        <ele>157.73822</ele>
        <time>2012-05-24 18:40:37Z</time>
      </trkpt>
      <trkpt lat="43.83009" lon="3.62974">
        <ele>151.938339</ele>
        <time>2012-05-24 18:40:41Z</time>
      </trkpt>
      <trkpt lat="43.83013" lon="3.62973">
        <ele>166.158081</ele>
        <time>2012-05-24 18:40:45Z</time>
      </trkpt>
      <trkpt lat="43.83015" lon="3.62937">
        <ele>185.413757</ele>
        <time>2012-05-24 18:46:53Z</time>
      </trkpt>
      <trkpt lat="43.8302" lon="3.62948">
        <ele>138.65097</ele>
        <time>2012-05-24 18:46:57Z</time>
      </trkpt>
      <trkpt lat="43.83034" lon="3.62947">
        <ele>154.747437</ele>
        <time>2012-05-24 18:47:01Z</time>
      </trkpt>
      <trkpt lat="43.83034" lon="3.62947">
        <ele>154.747437</ele>
        <time>2012-05-24 18:47:05Z</time>
      </trkpt>
      <trkpt lat="43.83034" lon="3.62951">
        <ele>151.531189</ele>
        <time>2012-05-24 18:47:09Z</time>
      </trkpt>
      <trkpt lat="43.83033" lon="3.62946">
        <ele>151.456879</ele>
        <time>2012-05-24 18:47:13Z</time>
      </trkpt>
      <trkpt lat="43.83033" lon="3.62943">
        <ele>152.996796</ele>
        <time>2012-05-24 18:47:17Z</time>
      </trkpt>
      <trkpt lat="43.83035" lon="3.62934">
        <ele>151.489624</ele>
        <time>2012-05-24 18:47:21Z</time>
      </trkpt>
      <trkpt lat="43.83037" lon="3.6293">
        <ele>156.184052</ele>
        <time>2012-05-24 18:47:25Z</time>
      </trkpt>
      <trkpt lat="43.8304" lon="3.62925">
        <ele>156.054077</ele>
        <time>2012-05-24 18:47:29Z</time>
      </trkpt>
      <trkpt lat="43.83042" lon="3.62922">
        <ele>157.580048</ele>
        <time>2012-05-24 18:47:33Z</time>
      </trkpt>
      <trkpt lat="43.83045" lon="3.6292">
        <ele>157.56839</ele>
        <time>2012-05-24 18:47:37Z</time>
      </trkpt>
      <trkpt lat="43.83047" lon="3.62914">
        <ele>154.254791</ele>
        <time>2012-05-24 18:47:41Z</time>
      </trkpt>
      <trkpt lat="43.83046" lon="3.62909">
        <ele>151.111755</ele>
        <time>2012-05-24 18:47:45Z</time>
      </trkpt>
      <trkpt lat="43.83043" lon="3.62904">
        <ele>153.267029</ele>
        <time>2012-05-24 18:47:49Z</time>
      </trkpt>
      <trkpt lat="43.83041" lon="3.629">
        <ele>156.007538</ele>
        <time>2012-05-24 18:47:53Z</time>
      </trkpt>
      <trkpt lat="43.8304" lon="3.62899">
        <ele>153.584045</ele>
        <time>2012-05-24 18:47:57Z</time>
      </trkpt>
      <trkpt lat="43.83037" lon="3.62895">
        <ele>154.185699</ele>
        <time>2012-05-24 18:48:01Z</time>
      </trkpt>
      <trkpt lat="43.83034" lon="3.62893">
        <ele>152.64209</ele>
        <time>2012-05-24 18:48:05Z</time>
      </trkpt>
      <trkpt lat="43.83028" lon="3.6289">
        <ele>160.581879</ele>
        <time>2012-05-24 18:48:09Z</time>
      </trkpt>
      <trkpt lat="43.83026" lon="3.62888">
        <ele>156.620087</ele>
        <time>2012-05-24 18:48:13Z</time>
      </trkpt>
      <trkpt lat="43.83023" lon="3.62884">
        <ele>155.691223</ele>
        <time>2012-05-24 18:48:17Z</time>
      </trkpt>
      <trkpt lat="43.83021" lon="3.62881">
        <ele>158.096008</ele>
        <time>2012-05-24 18:48:21Z</time>
      </trkpt>
      <trkpt lat="43.83021" lon="3.62881">
        <ele>158.764465</ele>
        <time>2012-05-24 18:48:25Z</time>
      </trkpt>
      <trkpt lat="43.83019" lon="3.62879">
        <ele>158.24173</ele>
        <time>2012-05-24 18:48:29Z</time>
      </trkpt>
      <trkpt lat="43.83015" lon="3.62874">
        <ele>158.667053</ele>
        <time>2012-05-24 18:48:33Z</time>
      </trkpt>
      <trkpt lat="43.83014" lon="3.62873">
        <ele>152.796173</ele>
        <time>2012-05-24 18:48:37Z</time>
      </trkpt>
      <trkpt lat="43.83014" lon="3.62873">
        <ele>151.870911</ele>
        <time>2012-05-24 18:48:41Z</time>
      </trkpt>
      <trkpt lat="43.83012" lon="3.62868">
        <ele>152.558105</ele>
        <time>2012-05-24 18:48:45Z</time>
      </trkpt>
      <trkpt lat="43.8301" lon="3.62864">
        <ele>152.468445</ele>
        <time>2012-05-24 18:48:49Z</time>
      </trkpt>
      <trkpt lat="43.83007" lon="3.6286">
        <ele>151.71048</ele>
        <time>2012-05-24 18:48:53Z</time>
      </trkpt>
      <trkpt lat="43.83004" lon="3.62858">
        <ele>153.097748</ele>
        <time>2012-05-24 18:48:57Z</time>
      </trkpt>
      <trkpt lat="43.82999" lon="3.62857">
        <ele>159.015198</ele>
        <time>2012-05-24 18:49:01Z</time>
      </trkpt>
      <trkpt lat="43.82997" lon="3.62853">
        <ele>154.120117</ele>
        <time>2012-05-24 18:49:05Z</time>
      </trkpt>
      <trkpt lat="43.82994" lon="3.62847">
        <ele>150.228088</ele>
        <time>2012-05-24 18:49:09Z</time>
      </trkpt>
      <trkpt lat="43.82992" lon="3.62843">
        <ele>143.925507</ele>
        <time>2012-05-24 18:49:13Z</time>
      </trkpt>
      <trkpt lat="43.8299" lon="3.62838">
        <ele>149.257477</ele>
        <time>2012-05-24 18:49:17Z</time>
      </trkpt>
      <trkpt lat="43.82985" lon="3.62834">
        <ele>142.59848</ele>
        <time>2012-05-24 18:49:21Z</time>
      </trkpt>
      <trkpt lat="43.82982" lon="3.62829">
        <ele>140.274109</ele>
        <time>2012-05-24 18:49:25Z</time>
      </trkpt>
      <trkpt lat="43.82978" lon="3.62824">
        <ele>145.3013</ele>
        <time>2012-05-24 18:49:29Z</time>
      </trkpt>
      <trkpt lat="43.82974" lon="3.6282">
        <ele>144.946808</ele>
        <time>2012-05-24 18:49:33Z</time>
      </trkpt>
      <trkpt lat="43.8297" lon="3.62816">
        <ele>148.019012</ele>
        <time>2012-05-24 18:49:37Z</time>
      </trkpt>
      <trkpt lat="43.82968" lon="3.62812">
        <ele>149.340729</ele>
        <time>2012-05-24 18:49:41Z</time>
      </trkpt>
      <trkpt lat="43.82966" lon="3.62808">
        <ele>153.068939</ele>
        <time>2012-05-24 18:49:45Z</time>
      </trkpt>
      <trkpt lat="43.82963" lon="3.62804">
        <ele>148.139557</ele>
        <time>2012-05-24 18:49:49Z</time>
      </trkpt>
      <trkpt lat="43.8296" lon="3.62799">
        <ele>149.081879</ele>
        <time>2012-05-24 18:49:53Z</time>
      </trkpt>
      <trkpt lat="43.82958" lon="3.62795">
        <ele>148.405823</ele>
        <time>2012-05-24 18:49:57Z</time>
      </trkpt>
      <trkpt lat="43.82956" lon="3.62792">
        <ele>145.496185</ele>
        <time>2012-05-24 18:50:01Z</time>
      </trkpt>
      <trkpt lat="43.82951" lon="3.62787">
        <ele>154.548859</ele>
        <time>2012-05-24 18:50:05Z</time>
      </trkpt>
      <trkpt lat="43.82948" lon="3.62783">
        <ele>155.389221</ele>
        <time>2012-05-24 18:50:09Z</time>
      </trkpt>
      <trkpt lat="43.82946" lon="3.62782">
        <ele>157.385132</ele>
        <time>2012-05-24 18:50:13Z</time>
      </trkpt>
      <trkpt lat="43.82943" lon="3.62779">
        <ele>160.916412</ele>
        <time>2012-05-24 18:50:17Z</time>
      </trkpt>
      <trkpt lat="43.8294" lon="3.62775">
        <ele>150.75766</ele>
        <time>2012-05-24 18:50:21Z</time>
      </trkpt>
      <trkpt lat="43.82938" lon="3.6277">
        <ele>159.944305</ele>
        <time>2012-05-24 18:50:25Z</time>
      </trkpt>
      <trkpt lat="43.82934" lon="3.62765">
        <ele>156.850922</ele>
        <time>2012-05-24 18:50:29Z</time>
      </trkpt>
      <trkpt lat="43.8293" lon="3.62761">
        <ele>154.976562</ele>
        <time>2012-05-24 18:50:33Z</time>
      </trkpt>
      <trkpt lat="43.82925" lon="3.62755">
        <ele>157.585754</ele>
        <time>2012-05-24 18:50:37Z</time>
      </trkpt>
      <trkpt lat="43.82921" lon="3.6275">
        <ele>158.598083</ele>
        <time>2012-05-24 18:50:41Z</time>
      </trkpt>
      <trkpt lat="43.8292" lon="3.62745">
        <ele>158.068054</ele>
        <time>2012-05-24 18:50:45Z</time>
      </trkpt>
      <trkpt lat="43.82914" lon="3.62739">
        <ele>160.765106</ele>
        <time>2012-05-24 18:50:49Z</time>
      </trkpt>
      <trkpt lat="43.82909" lon="3.62735">
        <ele>161.640106</ele>
        <time>2012-05-24 18:50:53Z</time>
      </trkpt>
      <trkpt lat="43.82908" lon="3.62734">
        <ele>151.395172</ele>
        <time>2012-05-24 18:50:57Z</time>
      </trkpt>
      <trkpt lat="43.82907" lon="3.62731">
        <ele>149.010895</ele>
        <time>2012-05-24 18:51:01Z</time>
      </trkpt>
      <trkpt lat="43.82899" lon="3.62725">
        <ele>144.865875</ele>
        <time>2012-05-24 18:51:05Z</time>
      </trkpt>
      <trkpt lat="43.82894" lon="3.62717">
        <ele>141.43927</ele>
        <time>2012-05-24 18:51:09Z</time>
      </trkpt>
      <trkpt lat="43.82892" lon="3.62712">
        <ele>140.973907</ele>
        <time>2012-05-24 18:51:13Z</time>
      </trkpt>
      <trkpt lat="43.82889" lon="3.62705">
        <ele>137.442627</ele>
        <time>2012-05-24 18:51:17Z</time>
      </trkpt>
      <trkpt lat="43.82885" lon="3.62697">
        <ele>133.287018</ele>
        <time>2012-05-24 18:51:21Z</time>
      </trkpt>
      <trkpt lat="43.82882" lon="3.62691">
        <ele>129.100098</ele>
        <time>2012-05-24 18:51:25Z</time>
      </trkpt>
      <trkpt lat="43.8288" lon="3.62686">
        <ele>127.111549</ele>
        <time>2012-05-24 18:51:29Z</time>
      </trkpt>
      <trkpt lat="43.82879" lon="3.62682">
        <ele>126.908531</ele>
        <time>2012-05-24 18:51:33Z</time>
      </trkpt>
      <trkpt lat="43.82875" lon="3.62679">
        <ele>134.140564</ele>
        <time>2012-05-24 18:51:37Z</time>
      </trkpt>
      <trkpt lat="43.8287" lon="3.62677">
        <ele>137.273987</ele>
        <time>2012-05-24 18:51:41Z</time>
      </trkpt>
      <trkpt lat="43.82866" lon="3.62673">
        <ele>134.162445</ele>
        <time>2012-05-24 18:51:45Z</time>
      </trkpt>
      <trkpt lat="43.82865" lon="3.62667">
        <ele>138.95047</ele>
        <time>2012-05-24 18:51:49Z</time>
      </trkpt>
      <trkpt lat="43.82864" lon="3.62663">
        <ele>139.53302</ele>
        <time>2012-05-24 18:51:53Z</time>
      </trkpt>
      <trkpt lat="43.82862" lon="3.62658">
        <ele>135.151947</ele>
        <time>2012-05-24 18:51:57Z</time>
      </trkpt>
      <trkpt lat="43.82858" lon="3.62653">
        <ele>134.43158</ele>
        <time>2012-05-24 18:52:01Z</time>
      </trkpt>
      <trkpt lat="43.82854" lon="3.62649">
        <ele>132.875519</ele>
        <time>2012-05-24 18:52:05Z</time>
      </trkpt>
      <trkpt lat="43.82849" lon="3.62641">
        <ele>123.736885</ele>
        <time>2012-05-24 18:52:09Z</time>
      </trkpt>
      <trkpt lat="43.82843" lon="3.62634">
        <ele>124.294807</ele>
        <time>2012-05-24 18:52:13Z</time>
      </trkpt>
      <trkpt lat="43.8284" lon="3.6263">
        <ele>130.845184</ele>
        <time>2012-05-24 18:52:17Z</time>
      </trkpt>
      <trkpt lat="43.82835" lon="3.62623">
        <ele>135.577728</ele>
        <time>2012-05-24 18:52:21Z</time>
      </trkpt>
      <trkpt lat="43.82829" lon="3.62618">
        <ele>136.430389</ele>
        <time>2012-05-24 18:52:25Z</time>
      </trkpt>
      <trkpt lat="43.82825" lon="3.62615">
        <ele>136.290253</ele>
        <time>2012-05-24 18:52:29Z</time>
      </trkpt>
      <trkpt lat="43.82823" lon="3.62612">
        <ele>144.307037</ele>
        <time>2012-05-24 18:52:33Z</time>
      </trkpt>
      <trkpt lat="43.82819" lon="3.62608">
        <ele>135.079742</ele>
        <time>2012-05-24 18:52:37Z</time>
      </trkpt>
      <trkpt lat="43.82817" lon="3.62603">
        <ele>151.287201</ele>
        <time>2012-05-24 18:52:41Z</time>
      </trkpt>
      <trkpt lat="43.82812" lon="3.62598">
        <ele>147.686127</ele>
        <time>2012-05-24 18:52:45Z</time>
      </trkpt>
      <trkpt lat="43.82807" lon="3.62593">
        <ele>143.956665</ele>
        <time>2012-05-24 18:52:49Z</time>
      </trkpt>
      <trkpt lat="43.82805" lon="3.6259">
        <ele>144.631897</ele>
        <time>2012-05-24 18:52:53Z</time>
      </trkpt>
      <trkpt lat="43.828" lon="3.62587">
        <ele>144.903046</ele>
        <time>2012-05-24 18:52:57Z</time>
      </trkpt>
      <trkpt lat="43.82795" lon="3.62584">
        <ele>149.303619</ele>
        <time>2012-05-24 18:53:01Z</time>
      </trkpt>
      <trkpt lat="43.82792" lon="3.62582">
        <ele>148.067322</ele>
        <time>2012-05-24 18:53:05Z</time>
      </trkpt>
      <trkpt lat="43.82787" lon="3.62578">
        <ele>156.772552</ele>
        <time>2012-05-24 18:53:09Z</time>
      </trkpt>
      <trkpt lat="43.82782" lon="3.62575">
        <ele>151.290314</ele>
        <time>2012-05-24 18:53:13Z</time>
      </trkpt>
      <trkpt lat="43.82777" lon="3.62573">
        <ele>160.308197</ele>
        <time>2012-05-24 18:53:17Z</time>
      </trkpt>
      <trkpt lat="43.82771" lon="3.62571">
        <ele>161.931213</ele>
        <time>2012-05-24 18:53:21Z</time>
      </trkpt>
      <trkpt lat="43.82766" lon="3.6257">
        <ele>165.062958</ele>
        <time>2012-05-24 18:53:25Z</time>
      </trkpt>
      <trkpt lat="43.82762" lon="3.62565">
        <ele>167.125885</ele>
        <time>2012-05-24 18:53:29Z</time>
      </trkpt>
      <trkpt lat="43.8276" lon="3.62564">
        <ele>158.719055</ele>
        <time>2012-05-24 18:53:33Z</time>
      </trkpt>
      <trkpt lat="43.82758" lon="3.62563">
        <ele>162.21347</ele>
        <time>2012-05-24 18:53:37Z</time>
      </trkpt>
      <trkpt lat="43.82755" lon="3.62555">
        <ele>160.002136</ele>
        <time>2012-05-24 18:53:41Z</time>
      </trkpt>
      <trkpt lat="43.82752" lon="3.62553">
        <ele>158.973572</ele>
        <time>2012-05-24 18:53:45Z</time>
      </trkpt>
      <trkpt lat="43.8275" lon="3.62549">
        <ele>165.092163</ele>
        <time>2012-05-24 18:53:49Z</time>
      </trkpt>
      <trkpt lat="43.82747" lon="3.62543">
        <ele>169.09552</ele>
        <time>2012-05-24 18:53:53Z</time>
      </trkpt>
      <trkpt lat="43.82744" lon="3.62535">
        <ele>154.533783</ele>
        <time>2012-05-24 18:53:57Z</time>
      </trkpt>
      <trkpt lat="43.82742" lon="3.6253">
        <ele>155.131744</ele>
        <time>2012-05-24 18:54:01Z</time>
      </trkpt>
      <trkpt lat="43.8274" lon="3.62524">
        <ele>152.495209</ele>
        <time>2012-05-24 18:54:05Z</time>
      </trkpt>
      <trkpt lat="43.82737" lon="3.62514">
        <ele>160.003906</ele>
        <time>2012-05-24 18:54:09Z</time>
      </trkpt>
      <trkpt lat="43.82737" lon="3.62513">
        <ele>163.492401</ele>
        <time>2012-05-24 18:54:13Z</time>
      </trkpt>
      <trkpt lat="43.82737" lon="3.62513">
        <ele>164.498993</ele>
        <time>2012-05-24 18:54:17Z</time>
      </trkpt>
      <trkpt lat="43.82731" lon="3.62502">
        <ele>162.135925</ele>
        <time>2012-05-24 18:54:21Z</time>
      </trkpt>
      <trkpt lat="43.82729" lon="3.62502">
        <ele>166.701691</ele>
        <time>2012-05-24 18:54:25Z</time>
      </trkpt>
      <trkpt lat="43.82729" lon="3.62502">
        <ele>155.678986</ele>
        <time>2012-05-24 18:54:30Z</time>
      </trkpt>
      <trkpt lat="43.82729" lon="3.62502">
        <ele>155.468048</ele>
        <time>2012-05-24 18:54:33Z</time>
      </trkpt>
      <trkpt lat="43.82729" lon="3.62502">
        <ele>150.866669</ele>
        <time>2012-05-24 18:54:37Z</time>
      </trkpt>
      <trkpt lat="43.82729" lon="3.62502">
        <ele>155.460815</ele>
        <time>2012-05-24 18:54:42Z</time>
      </trkpt>
      <trkpt lat="43.82729" lon="3.62497">
        <ele>161.191498</ele>
        <time>2012-05-24 18:54:45Z</time>
      </trkpt>
      <trkpt lat="43.82727" lon="3.6249">
        <ele>161.625519</ele>
        <time>2012-05-24 18:54:49Z</time>
      </trkpt>
      <trkpt lat="43.82725" lon="3.62487">
        <ele>162.33374</ele>
        <time>2012-05-24 18:54:53Z</time>
      </trkpt>
      <trkpt lat="43.82724" lon="3.62482">
        <ele>160.951904</ele>
        <time>2012-05-24 18:54:57Z</time>
      </trkpt>
      <trkpt lat="43.82724" lon="3.62477">
        <ele>159.818756</ele>
        <time>2012-05-24 18:55:01Z</time>
      </trkpt>
      <trkpt lat="43.82725" lon="3.62471">
        <ele>157.180267</ele>
        <time>2012-05-24 18:55:05Z</time>
      </trkpt>
      <trkpt lat="43.82726" lon="3.62464">
        <ele>156.322388</ele>
        <time>2012-05-24 18:55:09Z</time>
      </trkpt>
      <trkpt lat="43.82729" lon="3.62459">
        <ele>150.521851</ele>
        <time>2012-05-24 18:55:13Z</time>
      </trkpt>
      <trkpt lat="43.82732" lon="3.62455">
        <ele>150.423615</ele>
        <time>2012-05-24 18:55:17Z</time>
      </trkpt>
      <trkpt lat="43.82737" lon="3.62449">
        <ele>150.188782</ele>
        <time>2012-05-24 18:55:21Z</time>
      </trkpt>
      <trkpt lat="43.82742" lon="3.62447">
        <ele>154.867462</ele>
        <time>2012-05-24 18:55:25Z</time>
      </trkpt>
      <trkpt lat="43.82745" lon="3.62445">
        <ele>153.182159</ele>
        <time>2012-05-24 18:55:29Z</time>
      </trkpt>
      <trkpt lat="43.82748" lon="3.62442">
        <ele>156.846436</ele>
        <time>2012-05-24 18:55:33Z</time>
      </trkpt>
      <trkpt lat="43.8275" lon="3.62438">
        <ele>163.570068</ele>
        <time>2012-05-24 18:55:37Z</time>
      </trkpt>
      <trkpt lat="43.82755" lon="3.62431">
        <ele>157.973846</ele>
        <time>2012-05-24 18:55:41Z</time>
      </trkpt>
      <trkpt lat="43.82758" lon="3.62425">
        <ele>157.774078</ele>
        <time>2012-05-24 18:55:45Z</time>
      </trkpt>
      <trkpt lat="43.82763" lon="3.62418">
        <ele>152.963043</ele>
        <time>2012-05-24 18:55:49Z</time>
      </trkpt>
      <trkpt lat="43.82768" lon="3.62414">
        <ele>162.473328</ele>
        <time>2012-05-24 18:55:53Z</time>
      </trkpt>
      <trkpt lat="43.82772" lon="3.62405">
        <ele>163.011017</ele>
        <time>2012-05-24 18:55:57Z</time>
      </trkpt>
      <trkpt lat="43.82776" lon="3.62398">
        <ele>164.887787</ele>
        <time>2012-05-24 18:56:01Z</time>
      </trkpt>
      <trkpt lat="43.82779" lon="3.62392">
        <ele>153.418365</ele>
        <time>2012-05-24 18:56:05Z</time>
      </trkpt>
      <trkpt lat="43.8278" lon="3.62386">
        <ele>151.023041</ele>
        <time>2012-05-24 18:56:09Z</time>
      </trkpt>
      <trkpt lat="43.82783" lon="3.62382">
        <ele>153.713226</ele>
        <time>2012-05-24 18:56:13Z</time>
      </trkpt>
      <trkpt lat="43.82786" lon="3.62378">
        <ele>157.013397</ele>
        <time>2012-05-24 18:56:17Z</time>
      </trkpt>
      <trkpt lat="43.82789" lon="3.62374">
        <ele>158.502045</ele>
        <time>2012-05-24 18:56:21Z</time>
      </trkpt>
      <trkpt lat="43.82793" lon="3.62368">
        <ele>153.002625</ele>
        <time>2012-05-24 18:56:25Z</time>
      </trkpt>
      <trkpt lat="43.82796" lon="3.62364">
        <ele>152.053467</ele>
        <time>2012-05-24 18:56:29Z</time>
      </trkpt>
      <trkpt lat="43.82798" lon="3.62359">
        <ele>156.629822</ele>
        <time>2012-05-24 18:56:33Z</time>
      </trkpt>
      <trkpt lat="43.828" lon="3.62353">
        <ele>155.801819</ele>
        <time>2012-05-24 18:56:37Z</time>
      </trkpt>
      <trkpt lat="43.82802" lon="3.62346">
        <ele>152.164856</ele>
        <time>2012-05-24 18:56:41Z</time>
      </trkpt>
      <trkpt lat="43.82806" lon="3.62341">
        <ele>151.971924</ele>
        <time>2012-05-24 18:56:45Z</time>
      </trkpt>
      <trkpt lat="43.82809" lon="3.62335">
        <ele>149.975616</ele>
        <time>2012-05-24 18:56:49Z</time>
      </trkpt>
      <trkpt lat="43.82811" lon="3.62328">
        <ele>151.288116</ele>
        <time>2012-05-24 18:56:53Z</time>
      </trkpt>
      <trkpt lat="43.82813" lon="3.62321">
        <ele>155.94223</ele>
        <time>2012-05-24 18:56:57Z</time>
      </trkpt>
      <trkpt lat="43.82814" lon="3.62314">
        <ele>155.976196</ele>
        <time>2012-05-24 18:57:01Z</time>
      </trkpt>
      <trkpt lat="43.82815" lon="3.62306">
        <ele>156.491943</ele>
        <time>2012-05-24 18:57:05Z</time>
      </trkpt>
      <trkpt lat="43.82815" lon="3.62298">
        <ele>150.432343</ele>
        <time>2012-05-24 18:57:09Z</time>
      </trkpt>
      <trkpt lat="43.82818" lon="3.62292">
        <ele>144.843109</ele>
        <time>2012-05-24 18:57:13Z</time>
      </trkpt>
      <trkpt lat="43.82823" lon="3.62286">
        <ele>153.565643</ele>
        <time>2012-05-24 18:57:17Z</time>
      </trkpt>
      <trkpt lat="43.82826" lon="3.62281">
        <ele>151.800507</ele>
        <time>2012-05-24 18:57:21Z</time>
      </trkpt>
      <trkpt lat="43.82827" lon="3.62275">
        <ele>156.109406</ele>
        <time>2012-05-24 18:57:25Z</time>
      </trkpt>
      <trkpt lat="43.82828" lon="3.62269">
        <ele>155.410645</ele>
        <time>2012-05-24 18:57:29Z</time>
      </trkpt>
      <trkpt lat="43.82829" lon="3.62262">
        <ele>159.717407</ele>
        <time>2012-05-24 18:57:33Z</time>
      </trkpt>
      <trkpt lat="43.82832" lon="3.62255">
        <ele>158.569458</ele>
        <time>2012-05-24 18:57:37Z</time>
      </trkpt>
      <trkpt lat="43.82833" lon="3.62254">
        <ele>147.656067</ele>
        <time>2012-05-24 18:57:41Z</time>
      </trkpt>
      <trkpt lat="43.82838" lon="3.62248">
        <ele>153.895966</ele>
        <time>2012-05-24 18:57:45Z</time>
      </trkpt>
      <trkpt lat="43.82844" lon="3.62247">
        <ele>141.540741</ele>
        <time>2012-05-24 18:57:49Z</time>
      </trkpt>
      <trkpt lat="43.8285" lon="3.62247">
        <ele>149.32843</ele>
        <time>2012-05-24 18:57:53Z</time>
      </trkpt>
      <trkpt lat="43.82854" lon="3.62244">
        <ele>147.731445</ele>
        <time>2012-05-24 18:57:57Z</time>
      </trkpt>
      <trkpt lat="43.82858" lon="3.62238">
        <ele>151.888763</ele>
        <time>2012-05-24 18:58:01Z</time>
      </trkpt>
      <trkpt lat="43.82862" lon="3.62233">
        <ele>152.199371</ele>
        <time>2012-05-24 18:58:05Z</time>
      </trkpt>
      <trkpt lat="43.82866" lon="3.62228">
        <ele>153.70462</ele>
        <time>2012-05-24 18:58:09Z</time>
      </trkpt>
      <trkpt lat="43.82867" lon="3.62223">
        <ele>156.165924</ele>
        <time>2012-05-24 18:58:13Z</time>
      </trkpt>
      <trkpt lat="43.82868" lon="3.62217">
        <ele>151.589417</ele>
        <time>2012-05-24 18:58:17Z</time>
      </trkpt>
      <trkpt lat="43.82865" lon="3.62205">
        <ele>159.230042</ele>
        <time>2012-05-24 18:58:21Z</time>
      </trkpt>
      <trkpt lat="43.82864" lon="3.62199">
        <ele>155.680664</ele>
        <time>2012-05-24 18:58:25Z</time>
      </trkpt>
      <trkpt lat="43.82863" lon="3.62193">
        <ele>155.040894</ele>
        <time>2012-05-24 18:58:29Z</time>
      </trkpt>
      <trkpt lat="43.82862" lon="3.62186">
        <ele>155.471222</ele>
        <time>2012-05-24 18:58:33Z</time>
      </trkpt>
      <trkpt lat="43.82861" lon="3.6218">
        <ele>155.048676</ele>
        <time>2012-05-24 18:58:37Z</time>
      </trkpt>
      <trkpt lat="43.8286" lon="3.62174">
        <ele>158.286316</ele>
        <time>2012-05-24 18:58:41Z</time>
      </trkpt>
      <trkpt lat="43.82858" lon="3.62167">
        <ele>158.935089</ele>
        <time>2012-05-24 18:58:45Z</time>
      </trkpt>
      <trkpt lat="43.82857" lon="3.62163">
        <ele>161.541565</ele>
        <time>2012-05-24 18:58:49Z</time>
      </trkpt>
      <trkpt lat="43.82855" lon="3.62159">
        <ele>157.934418</ele>
        <time>2012-05-24 18:58:53Z</time>
      </trkpt>
      <trkpt lat="43.82852" lon="3.62156">
        <ele>157.377747</ele>
        <time>2012-05-24 18:58:57Z</time>
      </trkpt>
      <trkpt lat="43.8285" lon="3.62151">
        <ele>154.714844</ele>
        <time>2012-05-24 18:59:01Z</time>
      </trkpt>
      <trkpt lat="43.82846" lon="3.62144">
        <ele>158.305298</ele>
        <time>2012-05-24 18:59:05Z</time>
      </trkpt>
      <trkpt lat="43.82843" lon="3.62138">
        <ele>159.067535</ele>
        <time>2012-05-24 18:59:09Z</time>
      </trkpt>
      <trkpt lat="43.82839" lon="3.62133">
        <ele>161.73822</ele>
        <time>2012-05-24 18:59:13Z</time>
      </trkpt>
      <trkpt lat="43.82836" lon="3.62127">
        <ele>157.952972</ele>
        <time>2012-05-24 18:59:17Z</time>
      </trkpt>
      <trkpt lat="43.82833" lon="3.62122">
        <ele>156.691925</ele>
        <time>2012-05-24 18:59:21Z</time>
      </trkpt>
      <trkpt lat="43.82828" lon="3.6212">
        <ele>156.742554</ele>
        <time>2012-05-24 18:59:25Z</time>
      </trkpt>
      <trkpt lat="43.82826" lon="3.62118">
        <ele>159.983521</ele>
        <time>2012-05-24 18:59:29Z</time>
      </trkpt>
      <trkpt lat="43.82824" lon="3.62116">
        <ele>157.500092</ele>
        <time>2012-05-24 18:59:33Z</time>
      </trkpt>
      <trkpt lat="43.82819" lon="3.62115">
        <ele>159.032471</ele>
        <time>2012-05-24 18:59:37Z</time>
      </trkpt>
      <trkpt lat="43.82817" lon="3.62114">
        <ele>162.415283</ele>
        <time>2012-05-24 18:59:41Z</time>
      </trkpt>
      <trkpt lat="43.82812" lon="3.62111">
        <ele>164.383209</ele>
        <time>2012-05-24 18:59:45Z</time>
      </trkpt>
      <trkpt lat="43.82808" lon="3.6211">
        <ele>161.027496</ele>
        <time>2012-05-24 18:59:49Z</time>
      </trkpt>
      <trkpt lat="43.82803" lon="3.62109">
        <ele>160.711945</ele>
        <time>2012-05-24 18:59:53Z</time>
      </trkpt>
      <trkpt lat="43.82798" lon="3.62106">
        <ele>159.032471</ele>
        <time>2012-05-24 18:59:57Z</time>
      </trkpt>
      <trkpt lat="43.82795" lon="3.62104">
        <ele>160.654297</ele>
        <time>2012-05-24 19:00:01Z</time>
      </trkpt>
      <trkpt lat="43.8279" lon="3.62101">
        <ele>158.336365</ele>
        <time>2012-05-24 19:00:05Z</time>
      </trkpt>
      <trkpt lat="43.82786" lon="3.62098">
        <ele>159.385376</ele>
        <time>2012-05-24 19:00:09Z</time>
      </trkpt>
      <trkpt lat="43.82783" lon="3.62096">
        <ele>160.398956</ele>
        <time>2012-05-24 19:00:13Z</time>
      </trkpt>
      <trkpt lat="43.82779" lon="3.62092">
        <ele>161.423065</ele>
        <time>2012-05-24 19:00:17Z</time>
      </trkpt>
      <trkpt lat="43.82777" lon="3.62088">
        <ele>163.629181</ele>
        <time>2012-05-24 19:00:21Z</time>
      </trkpt>
      <trkpt lat="43.82772" lon="3.62083">
        <ele>164.254028</ele>
        <time>2012-05-24 19:00:25Z</time>
      </trkpt>
      <trkpt lat="43.82769" lon="3.62077">
        <ele>164.425354</ele>
        <time>2012-05-24 19:00:29Z</time>
      </trkpt>
      <trkpt lat="43.82767" lon="3.62073">
        <ele>167.345367</ele>
        <time>2012-05-24 19:00:33Z</time>
      </trkpt>
      <trkpt lat="43.82764" lon="3.62069">
        <ele>164.25119</ele>
        <time>2012-05-24 19:00:37Z</time>
      </trkpt>
      <trkpt lat="43.82759" lon="3.62063">
        <ele>162.198059</ele>
        <time>2012-05-24 19:00:41Z</time>
      </trkpt>
      <trkpt lat="43.82755" lon="3.62056">
        <ele>168.784454</ele>
        <time>2012-05-24 19:00:45Z</time>
      </trkpt>
      <trkpt lat="43.82751" lon="3.6205">
        <ele>168.128662</ele>
        <time>2012-05-24 19:00:49Z</time>
      </trkpt>
      <trkpt lat="43.82749" lon="3.62045">
        <ele>165.817993</ele>
        <time>2012-05-24 19:00:53Z</time>
      </trkpt>
      <trkpt lat="43.82747" lon="3.62042">
        <ele>165.448395</ele>
        <time>2012-05-24 19:00:57Z</time>
      </trkpt>
      <trkpt lat="43.82744" lon="3.62037">
        <ele>166.133575</ele>
        <time>2012-05-24 19:01:01Z</time>
      </trkpt>
      <trkpt lat="43.82741" lon="3.62029">
        <ele>162.032074</ele>
        <time>2012-05-24 19:01:05Z</time>
      </trkpt>
      <trkpt lat="43.82739" lon="3.62022">
        <ele>162.401642</ele>
        <time>2012-05-24 19:01:09Z</time>
      </trkpt>
      <trkpt lat="43.82738" lon="3.62015">
        <ele>163.63443</ele>
        <time>2012-05-24 19:01:13Z</time>
      </trkpt>
      <trkpt lat="43.82737" lon="3.62009">
        <ele>165.11261</ele>
        <time>2012-05-24 19:01:17Z</time>
      </trkpt>
      <trkpt lat="43.82736" lon="3.62001">
        <ele>161.200745</ele>
        <time>2012-05-24 19:01:21Z</time>
      </trkpt>
      <trkpt lat="43.82736" lon="3.61994">
        <ele>164.0466</ele>
        <time>2012-05-24 19:01:25Z</time>
      </trkpt>
      <trkpt lat="43.82735" lon="3.61985">
        <ele>163.307434</ele>
        <time>2012-05-24 19:01:29Z</time>
      </trkpt>
      <trkpt lat="43.82736" lon="3.61979">
        <ele>158.956146</ele>
        <time>2012-05-24 19:01:33Z</time>
      </trkpt>
      <trkpt lat="43.82737" lon="3.61972">
        <ele>159.341949</ele>
        <time>2012-05-24 19:01:37Z</time>
      </trkpt>
      <trkpt lat="43.82737" lon="3.61965">
        <ele>156.911743</ele>
        <time>2012-05-24 19:01:41Z</time>
      </trkpt>
      <trkpt lat="43.82739" lon="3.61961">
        <ele>158.393555</ele>
        <time>2012-05-24 19:01:45Z</time>
      </trkpt>
      <trkpt lat="43.82739" lon="3.61958">
        <ele>159.457306</ele>
        <time>2012-05-24 19:01:49Z</time>
      </trkpt>
      <trkpt lat="43.82739" lon="3.6195">
        <ele>155.722839</ele>
        <time>2012-05-24 19:01:53Z</time>
      </trkpt>
      <trkpt lat="43.8274" lon="3.61944">
        <ele>159.027832</ele>
        <time>2012-05-24 19:01:57Z</time>
      </trkpt>
      <trkpt lat="43.8274" lon="3.61941">
        <ele>161.421478</ele>
        <time>2012-05-24 19:02:01Z</time>
      </trkpt>
      <trkpt lat="43.82741" lon="3.61936">
        <ele>161.177887</ele>
        <time>2012-05-24 19:02:05Z</time>
      </trkpt>
      <trkpt lat="43.82742" lon="3.61927">
        <ele>162.122925</ele>
        <time>2012-05-24 19:02:09Z</time>
      </trkpt>
      <trkpt lat="43.82745" lon="3.61921">
        <ele>159.559814</ele>
        <time>2012-05-24 19:02:13Z</time>
      </trkpt>
      <trkpt lat="43.82749" lon="3.61914">
        <ele>163.711945</ele>
        <time>2012-05-24 19:02:17Z</time>
      </trkpt>
      <trkpt lat="43.82751" lon="3.61909">
        <ele>159.905243</ele>
        <time>2012-05-24 19:02:21Z</time>
      </trkpt>
      <trkpt lat="43.82749" lon="3.61898">
        <ele>164.086029</ele>
        <time>2012-05-24 19:02:25Z</time>
      </trkpt>
      <trkpt lat="43.82749" lon="3.61889">
        <ele>160.69812</ele>
        <time>2012-05-24 19:02:29Z</time>
      </trkpt>
      <trkpt lat="43.8275" lon="3.61877">
        <ele>163.559601</ele>
        <time>2012-05-24 19:02:33Z</time>
      </trkpt>
      <trkpt lat="43.8275" lon="3.61868">
        <ele>162.56485</ele>
        <time>2012-05-24 19:02:37Z</time>
      </trkpt>
      <trkpt lat="43.82751" lon="3.6186">
        <ele>159.595215</ele>
        <time>2012-05-24 19:02:41Z</time>
      </trkpt>
      <trkpt lat="43.82752" lon="3.61855">
        <ele>163.929626</ele>
        <time>2012-05-24 19:02:45Z</time>
      </trkpt>
      <trkpt lat="43.82755" lon="3.61854">
        <ele>168.405273</ele>
        <time>2012-05-24 19:02:49Z</time>
      </trkpt>
      <trkpt lat="43.82755" lon="3.61854">
        <ele>164.644684</ele>
        <time>2012-05-24 19:02:53Z</time>
      </trkpt>
      <trkpt lat="43.82753" lon="3.61847">
        <ele>170.507812</ele>
        <time>2012-05-24 19:02:57Z</time>
      </trkpt>
      <trkpt lat="43.8275" lon="3.61842">
        <ele>172.206696</ele>
        <time>2012-05-24 19:03:01Z</time>
      </trkpt>
      <trkpt lat="43.82748" lon="3.61837">
        <ele>171.52478</ele>
        <time>2012-05-24 19:03:05Z</time>
      </trkpt>
      <trkpt lat="43.82744" lon="3.61832">
        <ele>164.239868</ele>
        <time>2012-05-24 19:03:09Z</time>
      </trkpt>
      <trkpt lat="43.82743" lon="3.6183">
        <ele>167.592957</ele>
        <time>2012-05-24 19:03:13Z</time>
      </trkpt>
      <trkpt lat="43.82743" lon="3.61829">
        <ele>167.170288</ele>
        <time>2012-05-24 19:03:17Z</time>
      </trkpt>
      <trkpt lat="43.82748" lon="3.61826">
        <ele>166.338196</ele>
        <time>2012-05-24 19:03:21Z</time>
      </trkpt>
      <trkpt lat="43.82751" lon="3.61822">
        <ele>162.251801</ele>
        <time>2012-05-24 19:03:25Z</time>
      </trkpt>
      <trkpt lat="43.82755" lon="3.61817">
        <ele>160.784637</ele>
        <time>2012-05-24 19:03:29Z</time>
      </trkpt>
      <trkpt lat="43.82757" lon="3.61813">
        <ele>161.599655</ele>
        <time>2012-05-24 19:03:33Z</time>
      </trkpt>
      <trkpt lat="43.82758" lon="3.61808">
        <ele>161.857056</ele>
        <time>2012-05-24 19:03:37Z</time>
      </trkpt>
      <trkpt lat="43.82758" lon="3.61802">
        <ele>161.648224</ele>
        <time>2012-05-24 19:03:41Z</time>
      </trkpt>
      <trkpt lat="43.82758" lon="3.618">
        <ele>161.648224</ele>
        <time>2012-05-24 19:03:45Z</time>
      </trkpt>
      <trkpt lat="43.82758" lon="3.618">
        <ele>161.648224</ele>
        <time>2012-05-24 19:03:49Z</time>
      </trkpt>
      <trkpt lat="43.82762" lon="3.61805">
        <ele>162.500275</ele>
        <time>2012-05-24 19:03:53Z</time>
      </trkpt>
      <trkpt lat="43.82749" lon="3.61818">
        <ele>162.500275</ele>
        <time>2012-05-24 19:03:57Z</time>
      </trkpt>
      <trkpt lat="43.82749" lon="3.61818">
        <ele>162.500275</ele>
        <time>2012-05-24 19:04:01Z</time>
      </trkpt>
      <trkpt lat="43.82739" lon="3.61822">
        <ele>162.472504</ele>
        <time>2012-05-24 19:04:05Z</time>
      </trkpt>
      <trkpt lat="43.82739" lon="3.61822">
        <ele>162.472504</ele>
        <time>2012-05-24 19:04:09Z</time>
      </trkpt>
      <trkpt lat="43.82739" lon="3.61822">
        <ele>162.472504</ele>
        <time>2012-05-24 19:04:13Z</time>
      </trkpt>
      <trkpt lat="43.82763" lon="3.61773">
        <ele>157.542816</ele>
        <time>2012-05-24 19:04:17Z</time>
      </trkpt>
      <trkpt lat="43.82763" lon="3.61758">
        <ele>155.501862</ele>
        <time>2012-05-24 19:04:21Z</time>
      </trkpt>
      <trkpt lat="43.82763" lon="3.61758">
        <ele>156.320892</ele>
        <time>2012-05-24 19:04:25Z</time>
      </trkpt>
      <trkpt lat="43.82766" lon="3.61753">
        <ele>158.663818</ele>
        <time>2012-05-24 19:04:29Z</time>
      </trkpt>
      <trkpt lat="43.82771" lon="3.61752">
        <ele>162.78363</ele>
        <time>2012-05-24 19:04:33Z</time>
      </trkpt>
      <trkpt lat="43.82777" lon="3.6175">
        <ele>165.873932</ele>
        <time>2012-05-24 19:04:37Z</time>
      </trkpt>
      <trkpt lat="43.82796" lon="3.61749">
        <ele>170.59668</ele>
        <time>2012-05-24 19:04:41Z</time>
      </trkpt>
      <trkpt lat="43.82807" lon="3.6175">
        <ele>173.06839</ele>
        <time>2012-05-24 19:04:45Z</time>
      </trkpt>
      <trkpt lat="43.82817" lon="3.61753">
        <ele>167.113647</ele>
        <time>2012-05-24 19:04:49Z</time>
      </trkpt>
      <trkpt lat="43.82824" lon="3.61756">
        <ele>177.405365</ele>
        <time>2012-05-24 19:04:53Z</time>
      </trkpt>
      <trkpt lat="43.8283" lon="3.61762">
        <ele>180.296875</ele>
        <time>2012-05-24 19:04:57Z</time>
      </trkpt>
      <trkpt lat="43.82836" lon="3.61766">
        <ele>175.203156</ele>
        <time>2012-05-24 19:05:01Z</time>
      </trkpt>
      <trkpt lat="43.82839" lon="3.61765">
        <ele>172.176422</ele>
        <time>2012-05-24 19:05:05Z</time>
      </trkpt>
      <trkpt lat="43.82842" lon="3.61765">
        <ele>173.031403</ele>
        <time>2012-05-24 19:05:09Z</time>
      </trkpt>
      <trkpt lat="43.82844" lon="3.61766">
        <ele>172.421509</ele>
        <time>2012-05-24 19:05:13Z</time>
      </trkpt>
      <trkpt lat="43.82848" lon="3.61766">
        <ele>166.037354</ele>
        <time>2012-05-24 19:05:17Z</time>
      </trkpt>
      <trkpt lat="43.82852" lon="3.61767">
        <ele>167.536072</ele>
        <time>2012-05-24 19:05:21Z</time>
      </trkpt>
      <trkpt lat="43.82854" lon="3.61768">
        <ele>156.54538</ele>
        <time>2012-05-24 19:05:25Z</time>
      </trkpt>
      <trkpt lat="43.82858" lon="3.61769">
        <ele>163.781372</ele>
        <time>2012-05-24 19:05:29Z</time>
      </trkpt>
      <trkpt lat="43.82862" lon="3.61767">
        <ele>172.131927</ele>
        <time>2012-05-24 19:05:33Z</time>
      </trkpt>
    </trkseg>
  </trk>
</gpx>